[[{"header":{"parameterUnit":"m.s-1","parameterCategory":1,"la1":30.6,"la2":28.766,"lo1":-90.7593,"lo2":-88.6598,"dy":0.0162,"dx":0.0183,"nx":116,"ny":114,"refTime":"2024-05-14T06:00:00:Z","depth":0,"parameterNumber":2,"parameterNumberName":"U-component_of_WINDS"},"data":[0.0,0.0,0.0,0.0,0.0,0.0,0.0,0.0,0.0,0.0,0.0,0.0,0.0,0.0,0.0,0.0,0.0,0.0,0.0,0.0,0.0,0.0,0.0,0.0,0.0,0.0,0.0,0.0,0.0,0.0,0.0,0.0,0.0,0.0,0.0,0.0,0.0,0.0,0.0,0.0,0.0,0.0,0.0,0.0,0.0,0.0,0.0,0.0,0.0,0.0,0.0,0.0,0.0,0.0,0.0,0.0,0.0,0.0,0.0,0.0,0.0,0.0,0.0,0.0,0.0,0.0,0.0,0.0,0.0,0.0,0.0,0.0,0.0,0.0,0.0,0.0,0.0,0.0,0.0,0.0,0.0,0.0,0.0,0.0,0.0,0.0,0.0,0.0,0.0,0.0,0.0,0.0,0.0,0.0,0.0,0.0,0.0,0.0,0.0,0.0,0.0,0.0,0.0,0.0,0.0,0.0,0.0,0.0,0.0,0.0,0.0,0.0,0.0,0.0,0.0,0.0,0.0,0.0,0.0,0.0,0.0,0.0,0.0,0.0,0.0,0.0,0.0,0.0,0.0,0.0,0.0,0.0,0.0,0.0,0.0,0.0,0.0,0.0,0.0,0.0,0.0,0.0,0.0,0.0,0.0,0.0,0.0,0.0,0.0,0.0,0.0,0.0,0.0,0.0,0.0,0.0,0.0,0.0,0.0,0.0,0.0,0.0,0.0,0.0,0.0,0.0,0.0,0.0,0.0,0.0,0.0,0.0,0.0,0.0,0.0,0.0,0.0,0.0,0.0,0.0,0.0,0.0,0.0,0.0,0.0,0.0,0.0,0.0,0.0,0.0,0.0,0.0,0.0,0.0,0.0,0.0,0.0,0.0,0.0,0.0,0.0,0.0,0.0,0.0,0.0,0.0,0.0,0.0,0.0,0.0,0.0,0.0,0.0,0.0,0.0,0.0,0.0,0.0,0.0,0.0,0.0,0.0,0.0,0.0,0.0,0.0,0.0,0.0,0.0,0.0,0.0,0.0,0.0,0.0,0.0,0.0,0.0,0.0,0.0,0.0,0.0,0.0,0.0,0.0,0.0,0.0,0.0,0.0,0.0,0.0,0.0,0.0,0.0,0.0,0.0,0.0,0.0,0.0,0.0,0.0,0.0,0.0,0.0,0.0,0.0,0.0,0.0,0.0,0.0,0.0,0.0,0.0,0.0,0.0,0.0,0.0,0.0,0.0,0.0,0.0,0.0,0.0,0.0,0.0,0.0,0.0,0.0,0.0,0.0,0.0,0.0,0.0,0.0,0.0,0.0,0.0,0.0,0.0,0.0,0.0,0.0,0.0,0.0,0.0,0.0,0.0,0.0,0.0,0.0,0.0,0.0,0.0,0.0,0.0,0.0,0.0,0.0,0.0,0.0,0.0,0.0,0.0,0.0,0.0,0.0,0.0,0.0,0.0,0.0,0.0,0.0,0.0,0.0,0.0,0.0,0.0,0.0,0.0,0.0,0.0,0.0,0.0,0.0,0.0,0.0,0.0,0.0,0.0,0.0,0.0,0.0,0.0,0.0,0.0,0.0,0.0,0.0,0.0,0.0,0.0,0.0,0.0,0.0,0.0,0.0,0.0,0.0,0.0,0.0,0.0,0.0,0.0,0.0,0.0,0.0,0.0,0.0,0.0,0.0,0.0,0.0,0.0,0.0,0.0,0.0,0.0,0.0,0.0,0.0,0.0,0.0,0.0,0.0,0.0,0.0,0.0,0.0,0.0,0.0,0.0,0.0,0.0,0.0,0.0,0.0,0.0,0.0,0.0,0.0,0.0,0.0,0.0,0.0,0.0,0.0,0.0,0.0,0.0,0.0,0.0,0.0,0.0,0.0,0.0,0.0,0.0,0.0,0.0,0.0,0.0,0.0,0.0,0.0,0.0,0.0,0.0,0.0,0.0,0.0,0.0,0.0,0.0,0.0,0.0,0.0,0.0,0.0,0.0,0.0,0.0,0.0,0.0,0.0,0.0,0.0,0.0,0.0,0.0,0.0,0.0,0.0,0.0,0.0,0.0,0.0,0.0,0.0,0.0,0.0,0.0,0.0,0.0,0.0,0.0,0.0,0.0,0.0,0.0,0.0,0.0,0.0,0.0,0.0,0.0,0.0,0.0,0.0,0.0,0.0,0.0,0.0,0.0,0.0,0.0,0.0,0.0,0.0,0.0,0.0,0.0,0.0,0.0,0.0,0.0,0.0,0.0,0.0,0.0,0.0,0.0,0.0,0.0,0.0,0.0,0.0,0.0,0.0,0.0,0.0,0.0,0.0,0.0,0.0,0.0,0.0,0.0,0.0,0.0,0.0,0.0,0.0,0.0,0.0,0.0,0.0,0.0,0.0,0.0,0.0,0.0,0.0,0.0,0.0,0.0,0.0,0.0,0.0,0.0,0.0,0.0,0.0,0.0,0.0,0.0,0.0,0.0,0.0,0.0,0.0,0.0,0.0,0.0,0.0,0.0,0.0,0.0,0.0,0.0,0.0,0.0,0.0,0.0,0.0,0.0,0.0,0.0,0.0,0.0,0.0,0.0,0.0,0.0,0.0,0.0,0.0,0.0,0.0,0.0,0.0,0.0,0.0,0.0,0.0,0.0,0.0,0.0,0.0,0.0,0.0,0.0,0.0,0.0,0.0,0.0,0.0,0.0,0.0,0.0,0.0,0.0,0.0,0.0,0.0,0.0,0.0,0.0,0.0,0.0,0.0,0.0,0.0,0.0,0.0,0.0,0.0,0.0,0.0,0.0,0.0,0.0,0.0,0.0,0.0,0.0,0.0,0.0,0.0,0.0,0.0,0.0,0.0,0.0,0.0,0.0,0.0,0.0,0.0,0.0,0.0,0.0,0.0,0.0,0.0,0.0,0.0,0.0,0.0,0.0,0.0,0.0,0.0,0.0,0.0,0.0,0.0,0.0,0.0,0.0,0.0,0.0,0.0,0.0,0.0,0.0,0.0,0.0,0.0,0.0,0.0,0.0,0.0,0.0,0.0,0.0,0.0,0.0,0.0,0.0,0.0,0.0,0.0,0.0,0.0,0.0,0.0,0.0,0.0,0.0,0.0,0.0,0.0,0.0,0.0,0.0,0.0,0.0,0.0,0.0,0.0,0.0,0.0,0.0,0.0,0.0,0.0,0.0,0.0,0.0,0.0,0.0,0.0,0.0,0.0,0.0,0.0,0.0,0.0,0.0,0.0,0.0,0.0,0.0,0.0,0.0,0.0,0.0,0.0,0.0,0.0,0.0,0.0,0.0,0.0,0.0,0.0,0.0,0.0,0.0,0.0,0.0,0.0,0.0,0.0,0.0,0.0,0.0,0.0,0.0,0.0,0.0,0.0,0.0,0.0,0.0,0.0,0.0,0.0,0.0,0.0,0.0,0.0,0.0,0.0,0.0,0.0,0.0,0.0,0.0,0.0,0.0,0.0,0.0,0.0,0.0,0.0,0.0,0.0,0.0,0.0,0.0,0.0,0.0,0.0,0.0,0.0,0.0,0.0,0.0,0.0,0.0,0.0,0.0,0.0,0.0,0.0,0.0,0.0,0.0,0.0,0.0,0.0,0.0,0.0,0.0,0.0,0.0,0.0,0.0,0.0,0.0,0.0,0.0,0.0,0.0,0.0,0.0,0.0,0.0,0.0,0.0,0.0,0.0,0.0,0.0,0.0,0.0,0.0,0.0,0.0,0.0,0.0,0.0,0.0,0.0,0.0,0.0,0.0,0.0,0.0,0.0,0.0,0.0,0.0,0.0,0.0,0.0,0.0,0.0,0.0,0.0,0.0,0.0,0.0,0.0,0.0,0.0,0.0,0.0,0.0,0.0,0.0,0.0,0.0,0.0,0.0,0.0,0.0,0.0,0.0,0.0,0.0,0.0,0.0,0.0,0.0,0.0,0.0,0.0,0.0,0.0,0.0,0.0,0.0,0.0,0.0,0.0,0.0,0.0,0.0,0.0,0.0,0.0,0.0,0.0,0.0,0.0,0.0,0.0,0.0,0.0,0.0,0.0,0.0,0.0,0.0,0.0,0.0,0.0,0.0,0.0,0.0,0.0,0.0,0.0,0.0,0.0,0.0,0.0,0.0,0.0,0.0,0.0,0.0,0.0,0.0,0.0,0.0,0.0,0.0,0.0,0.0,0.0,0.0,0.0,0.0,0.0,0.0,0.0,0.0,0.0,0.0,0.0,0.0,0.0,0.0,0.0,0.0,0.0,0.0,0.0,0.0,0.0,0.0,0.0,0.0,0.0,0.0,0.0,0.0,0.0,0.0,0.0,0.0,0.0,0.0,0.0,0.0,0.0,0.0,0.0,0.0,0.0,0.0,0.0,0.0,0.0,0.0,0.0,0.0,0.0,0.0,0.0,0.0,0.0,0.0,0.0,0.0,0.0,0.0,0.0,0.0,0.0,0.0,0.0,0.0,0.0,0.0,0.0,0.0,0.0,0.0,0.0,0.0,0.0,0.0,0.0,0.0,0.0,0.0,0.0,0.0,0.0,0.0,0.0,0.0,0.0,0.0,0.0,0.0,0.0,0.0,0.0,0.0,0.0,0.0,0.0,0.0,0.0,0.0,0.0,0.0,0.0,0.0,0.0,0.0,0.0,0.0,0.0,0.0,0.0,0.0,0.0,0.0,0.0,0.0,0.0,0.0,0.0,0.0,0.0,0.0,0.0,0.0,0.0,0.0,0.0,0.0,0.0,0.0,0.0,0.0,0.0,0.0,0.0,0.0,0.0,0.0,0.0,0.0,0.0,0.0,0.0,0.0,0.0,0.0,0.0,0.0,0.0,0.0,0.0,0.0,0.0,0.0,0.0,0.0,0.0,0.0,0.0,0.0,0.0,0.0,0.0,0.0,0.0,0.0,0.0,0.0,0.0,0.0,0.0,0.0,0.0,0.0,0.0,0.0,0.0,0.0,0.0,0.0,0.0,0.0,0.0,0.0,0.0,0.0,0.0,0.0,0.0,0.0,0.0,0.0,0.0,0.0,0.0,0.0,0.0,0.0,0.0,0.0,0.0,0.0,0.0,0.0,0.0,0.0,0.0,0.0,0.0,0.0,0.0,0.0,0.0,0.0,0.0,0.0,0.0,0.0,0.0,0.0,0.0,0.0,0.0,0.0,0.0,0.0,0.0,0.0,0.0,0.0,0.0,0.0,0.0,0.0,0.0,0.0,0.0,0.0,0.0,0.0,0.0,0.0,0.0,0.0,0.0,0.0,0.0,0.0,0.0,0.0,0.0,0.0,0.0,0.0,0.0,0.0,0.0,0.0,0.0,0.0,0.0,0.0,0.0,0.0,0.0,0.0,0.0,0.0,0.0,0.0,0.0,0.0,0.0,0.0,0.0,0.0,0.0,0.0,0.0,0.0,0.0,0.0,0.0,0.0,0.0,0.0,0.0,0.0,0.0,0.0,0.0,0.0,0.0,0.0,0.0,0.0,0.0,0.0,0.0,0.0,0.0,0.0,0.0,0.0,0.0,0.0,0.0,0.0,0.0,0.0,0.0,0.0,0.0,0.0,0.0,0.0,0.0,0.0,0.0,0.0,0.0,0.0,0.0,0.0,0.0,0.0,0.0,0.0,0.0,0.0,0.0,0.0,0.0,0.0,0.0,0.0,0.0,0.0,0.0,0.0,0.0,0.0,0.0,0.0,0.0,0.0,0.0,0.0,0.0,0.0,0.0,0.0,0.0,0.0,0.0,0.0,0.0,0.0,0.0,0.0,0.0,0.0,0.0,0.0,0.0,0.0,0.0,0.0,0.0,0.0,0.0,0.0,0.0,0.0,0.0,0.0,0.0,0.0,0.0,0.0,0.0,0.0,0.0,0.0,0.0,0.0,0.0,0.0,0.0,0.0,0.0,0.0,0.0,0.0,0.0,0.0,0.0,0.0,0.0,0.0,0.0,0.0,0.0,0.0,0.0,0.0,0.0,0.0,0.0,0.0,0.0,0.0,0.0,0.0,0.0,0.0,0.0,0.0,0.0,0.0,0.0,0.0,0.0,0.0,0.0,0.0,0.0,0.0,0.0,0.0,0.0,0.0,0.0,0.0,0.0,0.0,0.0,0.0,0.0,0.0,0.0,-3.3872,0.0,0.0,0.0,0.0,0.0,0.0,0.0,0.0,0.0,0.0,0.0,0.0,0.0,0.0,0.0,0.0,0.0,0.0,0.0,0.0,0.0,0.0,0.0,0.0,-3.3571,-3.3897,-3.3897,-3.4715,-3.5411,-3.5688,0.0,0.0,0.0,0.0,0.0,0.0,0.0,-3.6161,-3.555,-3.6296,-3.6535,-3.6263,-3.6251,-3.5679,-3.4673,0.0,0.0,0.0,0.0,0.0,0.0,0.0,0.0,0.0,0.0,0.0,0.0,0.0,0.0,0.0,0.0,0.0,0.0,0.0,0.0,0.0,0.0,0.0,0.0,0.0,0.0,0.0,0.0,0.0,0.0,0.0,0.0,0.0,0.0,0.0,0.0,0.0,0.0,0.0,0.0,0.0,0.0,0.0,0.0,0.0,0.0,0.0,0.0,0.0,0.0,0.0,0.0,0.0,0.0,0.0,0.0,0.0,0.0,0.0,0.0,0.0,0.0,0.0,0.0,0.0,0.0,0.0,0.0,0.0,0.0,0.0,-3.5057,0.0,0.0,0.0,0.0,0.0,0.0,0.0,0.0,0.0,0.0,0.0,0.0,0.0,0.0,0.0,0.0,0.0,0.0,0.0,0.0,0.0,-3.3262,-3.3262,-3.3796,-3.4198,-3.4218,-3.5305,-3.5957,-3.5865,-3.6325,-3.6482,-3.6279,-3.6599,-3.6548,-3.6126,-3.7059,-3.7176,-3.6322,-3.7671,-3.821,-3.8101,-3.7898,-3.72,-3.6014,-3.5123,0.0,0.0,0.0,0.0,0.0,0.0,0.0,0.0,0.0,0.0,0.0,0.0,0.0,0.0,0.0,0.0,0.0,0.0,0.0,0.0,0.0,0.0,0.0,0.0,0.0,0.0,0.0,0.0,0.0,0.0,0.0,0.0,0.0,0.0,0.0,0.0,0.0,0.0,0.0,0.0,0.0,0.0,0.0,0.0,0.0,0.0,0.0,0.0,0.0,0.0,0.0,0.0,0.0,0.0,0.0,0.0,0.0,0.0,0.0,0.0,0.0,0.0,0.0,-4.0991,-4.1183,-4.0577,-4.1119,-4.1055,-4.0417,-3.8176,-3.6584,-3.5564,-3.6073,0.0,0.0,0.0,0.0,0.0,0.0,0.0,0.0,0.0,0.0,0.0,0.0,0.0,0.0,0.0,0.0,0.0,0.0,0.0,-3.3796,-3.3796,-3.468,-3.5374,-3.5623,-3.6067,-3.6586,-3.7217,-3.6887,-3.6959,-3.7586,-3.7494,-3.735,-3.7272,-3.7638,-3.7684,-3.7318,-3.8999,-4.0013,-4.0456,-4.0946,-4.0692,-3.9746,-3.6673,-3.5327,-3.5253,0.0,0.0,0.0,0.0,0.0,0.0,0.0,0.0,0.0,0.0,0.0,0.0,0.0,0.0,0.0,0.0,0.0,0.0,0.0,0.0,0.0,0.0,0.0,0.0,0.0,0.0,0.0,0.0,0.0,0.0,0.0,0.0,0.0,0.0,0.0,0.0,0.0,0.0,0.0,0.0,0.0,-3.5192,-3.481,0.0,0.0,0.0,0.0,0.0,0.0,0.0,0.0,0.0,0.0,0.0,0.0,0.0,-4.2268,-4.3556,-4.3725,-4.3513,-4.2913,-4.3172,-4.2917,-4.2262,-4.2355,-4.2355,-4.2231,-4.1926,0.0,-3.7713,-3.7668,0.0,0.0,0.0,0.0,0.0,0.0,0.0,0.0,0.0,0.0,0.0,0.0,0.0,0.0,0.0,0.0,0.0,0.0,0.0,0.0,0.0,-3.5491,-3.6193,-3.6168,-3.7588,-3.8213,-3.7599,-3.8045,-3.8131,-3.7696,-3.7716,-3.7716,-3.7716,-3.7854,-3.8324,-3.912,-4.0575,-4.1513,-4.1931,-4.2658,-4.2449,-4.1492,-4.0102,-3.8265,-3.6164,-3.5187,0.0,0.0,0.0,0.0,0.0,0.0,0.0,0.0,0.0,0.0,0.0,0.0,0.0,0.0,0.0,0.0,0.0,0.0,0.0,0.0,0.0,0.0,0.0,0.0,0.0,0.0,0.0,0.0,0.0,0.0,0.0,0.0,0.0,0.0,0.0,0.0,0.0,0.0,0.0,-3.6237,-3.6626,-3.522,-3.5699,-3.5729,0.0,0.0,0.0,0.0,0.0,0.0,0.0,0.0,0.0,-4.2167,-4.3474,-4.4427,-4.5055,-4.5852,-4.5887,-4.5273,-4.6453,-4.6234,-4.488,-4.5649,-4.5557,-4.4849,-4.4849,-4.3448,-4.1041,-3.9365,-3.7898,-3.6625,0.0,0.0,0.0,0.0,-3.5671,-3.5489,0.0,0.0,0.0,0.0,0.0,0.0,0.0,0.0,0.0,0.0,0.0,0.0,-3.5102,-3.6445,-3.7349,-3.7453,-3.9035,-3.9539,-3.8418,-3.8855,-3.8683,-3.765,-3.7808,-3.79,-3.79,-3.8318,-3.939,-4.1089,-4.2552,-4.3597,-4.4087,-4.4877,-4.4715,-4.379,-4.3877,-4.1647,-3.7797,-3.6688,-3.5633,-3.4424,0.0,0.0,0.0,0.0,0.0,0.0,0.0,0.0,0.0,0.0,0.0,0.0,0.0,0.0,0.0,0.0,0.0,0.0,0.0,0.0,0.0,0.0,0.0,0.0,0.0,0.0,0.0,0.0,0.0,0.0,0.0,0.0,0.0,0.0,0.0,0.0,0.0,-3.7075,-3.7674,-3.5729,-3.7225,-3.7793,0.0,0.0,0.0,0.0,0.0,0.0,-4.0712,-4.2879,-4.4456,-4.5164,-4.615,-4.688,-4.7404,-4.8235,-4.8389,-4.7927,-4.9281,-4.9127,-4.7681,-4.8512,-4.8327,-4.7373,-4.7188,-4.6172,-4.4401,-4.1528,-3.9471,-3.7989,-3.7171,-3.6874,-3.6841,-3.6454,-3.6481,-3.6729,0.0,0.0,0.0,0.0,0.0,0.0,0.0,0.0,0.0,0.0,0.0,-3.5127,-3.6204,-3.7813,-3.9196,-4.0185,-3.9956,-3.9855,-4.0236,-3.881,-3.7938,-3.788,-3.79,-3.79,-3.79,-3.9468,-4.1141,-4.2892,-4.514,-4.6839,-4.7937,-4.8538,-4.8486,-4.7911,-4.7304,-4.4697,-4.0668,-3.9041,-3.7526,-3.6132,-3.4474,0.0,0.0,0.0,0.0,0.0,0.0,0.0,0.0,0.0,0.0,0.0,0.0,0.0,0.0,0.0,0.0,0.0,0.0,0.0,0.0,0.0,0.0,0.0,0.0,0.0,0.0,0.0,0.0,0.0,0.0,0.0,0.0,0.0,0.0,0.0,0.0,0.0,0.0,-3.5729,-3.8871,0.0,0.0,0.0,0.0,-4.0516,-4.191,-4.3191,-4.3991,-4.4987,-4.6696,-4.9281,-4.9435,-5.0389,-5.2329,-5.1775,-5.1498,-5.1436,-5.0882,-5.0574,-5.0451,-4.9897,-4.9589,-4.9497,-4.882,-4.8081,-4.7167,-4.4367,-4.1985,-4.007,-3.9262,-3.8953,-3.8792,-3.7496,-3.7459,-3.7915,0.0,0.0,0.0,0.0,0.0,-3.3366,-3.3589,-3.4054,-3.4527,-3.4876,-3.5894,-3.702,-3.8133,-4.0109,-4.1722,-4.2646,-4.283,-4.2577,-4.1878,-4.0348,-3.9198,-3.8475,-3.8083,-3.8423,-3.9494,-4.0853,-4.2762,-4.5245,-4.7545,-4.9087,-4.9871,-5.0446,-5.0394,-4.9845,-4.9244,-4.7652,-4.5175,-4.1982,-3.9519,-3.7551,-3.5502,-3.4275,0.0,0.0,0.0,0.0,0.0,0.0,0.0,0.0,0.0,0.0,0.0,0.0,0.0,0.0,0.0,0.0,0.0,0.0,0.0,0.0,0.0,0.0,0.0,0.0,0.0,0.0,0.0,0.0,0.0,0.0,0.0,0.0,0.0,0.0,0.0,0.0,0.0,-4.1205,-4.3928,0.0,-4.2701,-4.3329,-4.3708,-4.3244,-4.5475,-4.7056,-4.7465,-4.9616,-5.1282,-5.2267,-5.2698,-5.3067,-5.3345,-5.3129,-5.2575,-5.1713,-5.1898,-5.1528,-5.0697,-5.0451,-5.0112,-4.9651,-4.8912,-4.8235,-4.7465,-4.6067,-4.4291,-4.2279,-4.0649,-3.9997,-3.9935,-3.9467,-3.9186,-3.9093,0.0,0.0,0.0,-3.3111,-3.3197,-3.3366,-3.3614,-3.4079,-3.4673,-3.5269,-3.6514,-3.8,-3.9828,-4.2006,-4.3842,-4.4922,-4.4804,-4.411,-4.284,-4.0993,-3.9529,-3.8475,-3.8632,-3.9468,-4.0958,-4.2709,-4.4931,-4.7623,-4.9531,-5.089,-5.1675,-5.1831,-5.1701,-5.1335,-5.0734,-4.9828,-4.864,-4.5571,-4.2396,-3.9293,-3.7216,-3.5831,-3.4844,0.0,0.0,0.0,0.0,0.0,0.0,0.0,0.0,0.0,0.0,0.0,0.0,0.0,0.0,0.0,0.0,0.0,0.0,0.0,0.0,0.0,0.0,0.0,0.0,0.0,0.0,0.0,0.0,0.0,0.0,0.0,0.0,0.0,0.0,-4.1983,-4.4366,-4.4616,-4.7578,-4.8805,-4.683,-4.7638,-4.8025,-4.7327,-4.9805,-5.1378,-5.1344,-5.3269,-5.4483,-5.473,-5.4945,-5.4945,-5.476,-5.4299,-5.3622,-5.2729,-5.2698,-5.2236,-5.1374,-5.0913,-5.0451,-4.9959,-4.9035,-4.8358,-4.7896,-4.7219,-4.6018,-4.4425,-4.2355,-4.1555,-4.1494,-4.1063,-4.072,-4.067,0.0,-3.3111,-3.3111,-3.3111,-3.3111,-3.3136,-3.3093,-3.3162,-3.3651,-3.4939,-3.6146,-3.8044,-4.1106,-4.3496,-4.5407,-4.6855,-4.5587,-4.4252,-4.3127,-4.0631,-3.8791,-3.8031,-3.9573,-4.1036,-4.2342,-4.5114,-4.7675,-4.9976,-5.1126,-5.2276,-5.34,-5.2825,-5.2537,-5.2537,-5.191,-5.1335,-5.0812,-4.9662,-4.6269,-4.1517,-3.9728,-3.8333,-3.7124,0.0,0.0,0.0,0.0,0.0,0.0,0.0,0.0,0.0,0.0,0.0,0.0,0.0,0.0,0.0,0.0,0.0,0.0,0.0,0.0,0.0,0.0,0.0,0.0,0.0,0.0,0.0,0.0,0.0,0.0,0.0,0.0,0.0,-3.9612,-4.3569,-4.6232,-4.5693,-4.9613,-5.1618,-4.9748,-5.2426,-5.3871,-5.2791,-5.4801,-5.5865,-5.5437,-5.5664,-5.6084,-5.681,-5.6115,-5.6084,-5.6779,-5.5407,-5.4683,-5.4621,-5.3345,-5.2698,-5.2667,-5.1344,-5.0728,-5.0605,-4.9251,-4.8635,-4.8573,-4.7896,-4.7188,-4.6388,-4.4456,-4.3655,-4.347,-4.2171,-4.2078,-4.2509,-3.3111,-3.3111,-3.3111,-3.3111,-3.324,-3.3409,-3.3664,-3.4331,-3.5016,-3.5567,-3.7343,-3.9507,-4.2061,-4.4162,-4.6195,-4.829,-4.6226,-4.4637,-4.433,-4.0882,-3.9086,-3.9703,-4.0592,-4.2579,-4.5846,-4.7519,-4.9479,-5.1779,-5.2929,-5.3661,-5.3975,-5.3818,-5.3739,-5.3687,-5.2694,-5.2406,-5.2642,-5.1606,-4.9776,-4.721,-4.3248,-4.0875,-3.9436,0.0,0.0,0.0,0.0,0.0,0.0,0.0,0.0,0.0,0.0,0.0,0.0,0.0,0.0,0.0,0.0,0.0,0.0,0.0,0.0,0.0,0.0,0.0,0.0,0.0,0.0,0.0,0.0,0.0,0.0,0.0,-4.2013,-4.4018,-4.5005,-4.7459,-5.0152,-5.2845,-5.5149,-5.6077,-5.5029,-5.6226,-5.6599,-5.5581,-5.6678,-5.7496,-5.7564,-5.7783,-5.7808,-5.7549,-5.7364,-5.6823,-5.5992,-5.5161,-5.4437,-5.3945,-5.3129,-5.2698,-5.2698,-5.1805,-5.1159,-5.0636,-4.9774,-4.9097,-4.8573,-4.7896,-4.7188,-4.648,-4.5434,-4.4764,-4.4302,-4.3895,-4.3279,-4.2509,-3.3111,-3.3111,-3.3111,-3.3111,-3.3283,-3.347,-3.3669,-3.4463,-3.5244,-3.5782,-3.783,-4.0117,-4.258,-4.4248,-4.5898,-4.7492,-4.5428,-4.3729,-4.2997,-4.0749,-4.0043,-4.1455,-4.2997,-4.5271,-4.8329,-5.0028,-5.1779,-5.3583,-5.4262,-5.4811,-5.5282,-5.455,-5.4341,-5.4524,-5.34,-5.306,-5.3373,-5.2815,-5.2085,-5.1073,-4.7534,-4.4736,-4.2449,-4.0046,-3.9084,-3.8808,-3.7482,-3.7339,-3.7456,-3.5704,0.0,0.0,0.0,0.0,0.0,0.0,0.0,0.0,0.0,0.0,0.0,0.0,0.0,0.0,0.0,0.0,0.0,0.0,0.0,0.0,0.0,0.0,0.0,0.0,-4.5084,-4.7908,-5.0631,-5.1528,-5.3054,-5.6196,-5.7483,-5.8082,-5.7962,-5.853,-5.8607,-5.7902,-5.8676,-5.914,-5.8818,-5.9041,-5.8885,-5.8258,-5.798,-5.7426,-5.6577,-5.5345,-5.4468,-5.4099,-5.316,-5.2698,-5.2698,-5.2021,-5.1344,-5.0667,-4.9989,-4.9281,-4.8573,-4.8173,-4.7619,0.0,0.0,0.0,0.0,0.0,-4.3925,-4.291,-3.3111,-3.3111,-3.3111,-3.3111,-3.3283,-3.3411,-3.3487,-3.4186,-3.501,-3.5797,-3.7811,-4.006,-4.2449,-4.3702,-4.4589,-4.5349,-4.3781,-4.2108,-4.0618,-4.0592,-4.1507,-4.352,-4.6186,-4.8486,-5.0342,-5.2485,-5.4158,-5.5282,-5.5282,-5.5804,-5.6771,-5.5229,-5.4733,-5.5151,-5.4079,-5.3583,-5.3583,-5.3504,-5.3478,-5.3347,-5.1805,-4.9139,-4.579,-4.3203,-4.232,-4.216,-3.9913,-3.9128,-3.8919,-3.7037,0.0,0.0,0.0,0.0,0.0,0.0,0.0,0.0,0.0,0.0,0.0,0.0,0.0,0.0,0.0,0.0,0.0,0.0,0.0,0.0,0.0,0.0,0.0,0.0,-4.792,-5.1118,-5.5594,-5.5287,-5.5329,-5.7094,-5.7932,-5.853,-5.9069,-5.9697,-5.9981,-5.959,-6.0341,-6.0426,-5.9603,0.0,0.0,0.0,0.0,-5.798,-5.7826,-5.5807,-5.4745,-5.4652,-5.3345,-5.2698,-5.2698,-5.2082,-5.1436,-5.0759,-5.0082,-4.9404,-4.8727,-4.8635,-4.8173,-4.7373,-4.608,-4.5187,-4.461,-4.461,-4.4178,-4.3531,-3.3111,-3.3111,-3.3111,-3.3111,-3.3283,-3.3538,-3.3994,-3.4879,-3.5779,-3.6392,-3.7846,-3.9342,-4.0775,-4.1559,-4.2579,-4.4068,-4.2186,-4.0984,-4.1141,-4.1559,-4.3441,-4.7022,-4.8616,-5.0629,-5.3321,-5.4288,-5.5334,-5.6484,-5.6484,-5.6588,-5.6798,-5.6458,-5.6118,-5.5726,-5.5072,-5.4759,-5.4733,-5.4262,-5.4053,-5.4027,-5.3687,-5.1753,-4.8773,-4.5947,-4.4615,-4.399,-4.216,-4.1794,-4.1768,-3.9102,-3.8527,-3.8553,-3.6332,-3.5312,0.0,0.0,0.0,0.0,0.0,0.0,0.0,0.0,0.0,0.0,0.0,0.0,0.0,0.0,0.0,0.0,0.0,0.0,0.0,-4.5391,-4.8824,-5.2296,-5.58,-5.69,-5.7693,-5.859,-5.9308,-5.9548,-5.9129,-5.9697,-6.0036,-5.994,-6.0054,-6.0289,-6.0506,-6.0609,-6.0301,-5.9624,-5.947,-5.8885,-5.7826,-5.6269,-5.5253,-5.4652,0.0,0.0,-5.2698,-5.2575,-5.2144,-5.1467,-5.079,-5.0112,-4.9435,-4.885,-4.7896,-4.6696,-4.5895,-4.5187,-4.461,-4.461,-4.4178,-4.3593,-3.3111,-3.3111,-3.3111,-3.3111,-3.3368,-3.376,-3.4321,-3.5278,-3.6155,-3.6727,-3.7912,-3.905,-3.9913,-4.0278,-4.0801,-4.1664,-4.0409,-4.0069,-4.1246,-4.2944,-4.5689,-4.9714,-5.1282,-5.3138,-5.5465,-5.6092,-5.6667,-5.7242,-5.7242,-5.7373,-5.766,-5.7085,-5.6798,-5.6745,-5.5883,-5.5674,-5.5909,-5.502,-5.4811,-5.502,-5.4445,-5.3191,-5.1387,-4.9087,-4.7492,-4.6238,-4.4513,-4.3702,-4.3049,-4.0435,-3.9573,-3.9259,-3.7194,-3.6149,-3.5521,0.0,0.0,0.0,0.0,0.0,0.0,0.0,0.0,0.0,0.0,0.0,0.0,0.0,0.0,-3.8585,-3.9636,0.0,-4.524,-4.7981,-5.1193,-5.4226,-5.6432,-5.7803,-5.874,-5.9069,-5.9398,-5.9458,-5.9129,-5.9398,-5.9675,-5.9963,-6.0016,-6.025,-6.0742,-6.0794,-6.064,-6.0301,-5.9624,-5.8947,-5.83,-5.6238,-5.5037,-5.4652,-5.3345,-5.2698,-5.2698,-5.2698,-5.2329,-5.1652,-5.0974,-5.0328,-4.962,-4.8912,-4.7804,-4.6573,-4.6234,-4.5464,-4.461,-4.461,-4.4394,-4.4055,-3.3111,-3.3111,-3.3111,-3.3111,-3.3428,-3.3879,-3.4341,-3.5375,-3.6279,-3.675,-3.7848,-3.8736,-3.9233,-3.9285,-3.9285,-3.9285,-3.9024,-3.9756,-4.1847,-4.4487,-4.7754,-5.1779,-5.3609,-5.5255,-5.6771,-5.7373,-5.7782,-5.7817,-5.7817,-5.8052,-5.8497,-5.7582,-5.732,-5.7704,-5.6667,-5.6458,-5.6745,-5.57,-5.5438,-5.5647,-5.4628,-5.3739,-5.2877,-5.1361,-4.9766,-4.812,-4.629,-4.4722,-4.3232,-4.1246,-4.0148,-3.9364,-3.7952,-3.709,-3.6358,-3.5103,-3.458,0.0,0.0,0.0,0.0,0.0,0.0,0.0,0.0,-3.5495,-3.5966,-3.7325,-3.8932,-4.068,-4.2549,-4.5066,-4.7722,-5.0165,-5.3108,-5.5524,-5.6705,-5.8166,-5.9069,-5.8919,-5.9039,-5.9099,-5.9099,-5.9099,-5.9315,-5.988,-5.988,-6.0144,-6.0586,-6.069,-6.069,-6.069,-5.9624,-5.8916,-5.8793,-5.6207,-5.4806,-5.4652,-5.3345,-5.2698,-5.2698,-5.2698,-5.2329,-5.1652,-5.0697,-4.9989,-4.9404,-4.8573,-4.7588,-4.6573,-4.6449,-4.5649,-4.461,-4.461,-4.461,-4.4548,-3.3111,-3.3111,-3.3111,-3.3111,-3.3428,-3.3751,-3.3802,-3.5115,-3.6123,-3.6201,-3.7246,-3.8031,-3.8083,-3.8083,-3.8083,-3.8083,-3.8972,-4.088,-4.4147,-4.6051,-4.8956,-5.3008,-5.4811,-5.6066,-5.6798,-5.7373,-5.7895,-5.8418,-5.8418,-5.8444,-5.8523,-5.8392,-5.8078,-5.773,-5.7599,-5.7216,-5.6771,-5.6092,-5.5569,-5.5125,-5.4471,-5.3243,-5.1727,-5.1047,-5.0028,-4.8695,-4.6447,-4.4225,-4.229,-4.1481,-4.0488,-3.9573,-3.939,-3.8893,-3.8083,-3.641,-3.5182,-3.4267,-3.3744,-3.3587,-3.3718,-3.4188,-3.4763,-3.5861,0.0,-3.939,-4.0357,-4.2552,-4.3572,-4.4332,-4.5088,-4.6747,-4.8279,-4.914,-5.2297,-5.4826,-5.5532,-5.7581,-5.889,-5.8291,-5.874,-5.9099,-5.9099,-5.9099,-5.9207,-5.9529,-5.9583,-5.969,-6.0039,-6.0355,-6.0429,-6.0429,-5.9952,-5.9378,-5.8793,-5.6638,-5.5284,-5.4652,-5.3345,-5.2698,-5.2698,-5.2698,-5.2329,-5.159,-4.9682,-4.8789,-4.8635,-4.7342,-4.6726,-4.6542,-4.5926,-4.5249,-4.461,-4.461,-4.461,-4.461,-3.3111,-3.3111,-3.3111,-3.3111,-3.3368,-3.37,-3.429,-3.5297,-3.6095,-3.6549,-3.7377,-3.79,-3.79,-3.79,-3.7769,-3.7403,-3.8423,-4.054,-4.4016,-4.6186,-4.9453,-5.4184,-5.57,-5.685,-5.7791,-5.8026,-5.8287,-5.8523,-5.8523,-5.8523,-5.8523,-5.8523,-5.8392,-5.8131,-5.7817,-5.7712,-5.7686,-5.6118,-5.5491,-5.5465,-5.4236,-5.2877,-5.1465,-5.0263,-4.8669,-4.6813,-4.4826,-4.284,0.0,-3.973,-3.8789,-3.8161,-3.8501,-3.8214,-3.7456,-3.6044,-3.5286,-3.4737,-3.3822,-3.4084,-3.4711,-3.526,-3.6358,-3.7874,-4.0095,-4.1298,-4.25,-4.4487,-4.5872,-4.7022,-4.7937,-4.8982,-4.9897,-5.0446,-5.2446,-5.4256,-5.5239,-5.6272,-5.6917,-5.7012,-5.6885,-5.7274,-5.8411,-5.853,-5.8787,-5.9446,-5.9529,-5.9636,-6.0016,-6.025,-6.0193,-5.9796,-5.9461,-5.8885,-5.8208,-5.6176,-5.5007,-5.4652,-5.3345,-5.2698,-5.2698,-5.2698,-5.1929,-5.0513,-5.002,-4.9158,-4.7989,-4.7404,-4.6726,-4.5988,-4.5711,-4.4941,-4.4086,-4.4456,-4.461,-4.461,-3.3111,-3.3111,-3.3111,-3.3154,-3.3326,-3.3666,-3.4461,-3.5176,-3.5921,-3.6627,-3.7273,-3.7717,-3.7874,-3.79,-3.7717,-3.7299,-3.8135,-3.9991,-4.2971,-4.5323,-4.8721,-5.3452,-5.5229,-5.6693,-5.8,-5.8366,-5.8523,-5.8523,-5.8523,-5.8523,-5.8523,-5.8523,-5.8418,-5.8261,-5.7843,-5.7712,-5.7686,-5.5857,-5.5151,-5.5072,-5.353,-5.1988,-5.0472,-4.8773,-4.6604,-4.4278,-4.2997,-4.1219,-3.9285,-3.8057,-3.7168,-3.6671,-3.7403,-3.7351,-3.6802,-3.5809,-3.5286,-3.4868,-3.4031,-3.4659,-3.5809,-3.6985,-3.837,-3.9965,-4.203,-4.3258,-4.446,-4.6212,-4.7571,-4.8721,-4.9714,-5.0394,-5.104,-5.1778,-5.2795,-5.391,-5.4984,-5.5106,-5.5075,-5.5123,-5.4699,-5.4999,-5.6615,-5.7274,-5.7985,-5.9038,-5.8918,-5.9084,-5.969,-5.9856,-5.9679,-5.9192,-5.8777,-5.8254,-5.758,-5.5603,-5.4589,-5.4559,-5.3299,-5.2698,-5.2698,-5.2329,-5.1344,-4.9959,-4.9866,-4.9097,-4.7835,-4.7065,-4.6419,-4.5803,-4.5249,-4.4579,-4.3932,-4.4425,-4.461,-4.461,-3.3111,-3.3111,-3.3154,-3.3368,-3.3386,-3.3496,-3.3709,-3.4623,-3.5521,-3.607,-3.6645,-3.7246,-3.7848,-3.79,-3.79,-3.7874,-3.8397,-3.9468,-4.1272,-4.3546,-4.6369,-4.9897,-5.2772,-5.5099,-5.6824,-5.7948,-5.8523,-5.8523,-5.8523,-5.8523,-5.8523,-5.8523,-5.8209,-5.7756,-5.773,-5.7033,-5.5935,-5.536,-5.4471,-5.3373,-5.2145,-5.0315,-4.8094,-4.6395,-4.3938,-4.1428,-4.1376,-3.952,-3.7116,-3.7037,-3.6279,-3.5547,-3.6671,-3.7011,-3.6881,-3.6253,-3.5286,-3.4424,-3.4371,-3.5208,-3.675,-3.9573,-4.0775,-4.1977,-4.4853,-4.595,-4.6865,-4.8616,-4.9035,-4.9218,-4.9793,-5.0394,-5.1189,-5.2344,-5.307,-5.3773,-5.4425,-5.4419,-5.3912,-5.2659,-5.2388,-5.2576,0.0,-5.5089,-5.6765,-5.8052,-5.7543,-5.7723,-5.9039,-5.8851,-5.8678,-5.8595,-5.8213,-5.7699,-5.7031,-5.5237,-5.4293,-5.4293,-5.3208,-5.2698,-5.2667,-5.1344,-5.0728,-5.0543,-4.8573,-4.805,-4.8389,-4.5741,-4.5434,-4.6357,-4.4425,-4.4055,-4.4579,-4.461,-4.461,-4.461,-3.3111,-3.3111,-3.3154,-3.3368,-3.3513,-3.3683,-3.3937,-3.4555,-3.5297,-3.6,-3.6985,0.0,0.0,0.0,0.0,0.0,-3.7717,-3.8475,-4.0592,-4.216,-4.4408,-4.7492,-5.0394,-5.2563,-5.3922,-5.5072,-5.604,-5.6798,-5.6432,-5.6432,-5.6771,-5.6432,-5.6144,-5.5961,-5.5961,-5.5752,-5.5282,-5.3949,-5.3373,-5.3138,-5.0002,-4.8303,-4.731,-4.4434,-4.203,-4.0043,0.0,-3.7351,-3.5757,-3.4999,-3.4476,-3.4293,-3.5025,-3.5286,-3.5234,-3.5025,-3.5234,-3.5704,-3.6515,-3.7821,-3.9573,-4.2082,-4.3441,-4.4643,-4.6312,-4.7205,-4.778,-4.8355,-4.7571,-4.6839,-4.7022,-4.6917,-4.7324,-4.8859,-5.0632,-5.2572,-5.476,-5.429,-5.35,-5.2968,-5.212,0.0,0.0,0.0,0.0,-5.6705,-5.6615,-5.6855,-5.7723,-5.7866,-5.7691,-5.7269,-5.7334,-5.7031,-5.6362,-5.4831,-5.4118,-5.4087,-5.2979,-5.2273,-5.2021,-5.1559,-5.0605,-4.9312,-4.9066,-4.8573,-4.7835,-4.648,-4.5649,-4.5226,-4.4548,-4.3833,-4.3371,-4.4264,-4.461,-4.461,0.0,-3.3154,-3.324,-3.3386,-3.3641,0.0,0.0,0.0,0.0,0.0,0.0,0.0,0.0,0.0,0.0,0.0,0.0,-3.7848,-3.9102,-4.0278,-4.1951,-4.4225,-4.6682,-4.8643,-5.0002,-5.0969,-5.191,-5.2851,-5.2485,-5.272,-5.3452,-5.3112,-5.2955,-5.2955,-5.2955,-5.272,-5.225,-5.0917,-5.0577,-5.0629,-4.7179,-4.5663,-4.5166,-4.2108,-3.986,0.0,-3.6854,-3.5783,-3.4868,-3.4136,-3.3875,-3.3953,-3.4293,-3.4397,-3.4476,-3.4894,-3.5835,-3.7194,-3.9181,-4.0827,-4.2552,-4.5114,-4.6133,-4.6734,-4.7466,-4.7754,-4.7649,-4.6813,-4.5767,-4.4748,-4.3912,-4.365,-4.4123,-4.5818,-4.7397,-4.9491,-5.2707,-5.238,-5.1774,-5.1655,-5.1387,-5.0994,0.0,0.0,0.0,-5.5329,-5.5688,-5.6107,-5.6735,-5.7002,-5.6895,-5.6474,-5.6626,-5.6395,-5.5731,-5.4449,-5.3685,-5.3387,-5.2734,-5.215,-5.1682,-5.1436,-5.0482,-4.9004,-4.922,-4.8789,-4.7865,-4.6449,-4.5649,-4.5187,-4.3987,-4.3433,-4.3371,-4.3987,-4.4394,-4.4579,0.0,0.0,-3.3386,0.0,0.0,0.0,0.0,0.0,0.0,0.0,0.0,0.0,0.0,0.0,0.0,0.0,0.0,0.0,-3.7037,-3.7978,-3.9076,-4.02,-4.1925,-4.3624,-4.5323,-4.595,-4.6552,-4.7153,-4.7069,-4.7702,-4.8826,-4.8773,-4.8773,-4.8773,-4.8773,-4.8146,-4.7017,-4.6499,-4.6264,-4.6107,-4.3755,-4.25,-4.1845,-3.9468,-3.7534,-3.5992,-3.5495,-3.492,-3.4397,-3.4397,-3.4424,-3.445,-3.4502,-3.4528,-3.4763,-3.594,-3.7168,-3.8893,-4.2291,-4.4042,-4.5637,-4.846,-4.8669,-4.8172,-4.8146,-4.7597,-4.6473,-4.4251,-4.365,-4.284,-4.0644,-4.0697,-4.1696,-4.3601,-4.4008,-4.5287,-4.887,-4.9245,-4.9125,-4.9116,-5.0341,-5.1058,-5.0726,0.0,0.0,-5.4132,0.0,-5.5388,-5.6077,-5.6188,-5.6188,-5.6188,-5.6188,-5.5807,-5.5209,-5.4138,-5.3166,-5.2261,-5.2518,-5.2284,-5.1621,-5.0974,-5.0297,-4.9589,-4.8912,-4.8604,-4.8358,-4.5711,-4.5372,-4.6172,-4.2971,-4.2848,-4.4486,-4.387,-4.4055,-4.4517,0.0,0.0,0.0,0.0,0.0,0.0,0.0,0.0,0.0,0.0,0.0,0.0,0.0,0.0,0.0,0.0,0.0,0.0,-3.6985,-3.6854,-3.709,-3.7848,-3.9547,-4.088,-4.1716,-4.2735,-4.3755,-4.4748,-4.433,-4.4487,-4.5192,-4.4774,-4.4565,-4.4565,-4.4565,-4.4408,-4.4095,-4.352,-4.352,-4.365,-4.0906,-3.9991,-4.0017,-3.7665,-3.6253,-3.5495,-3.5338,-3.492,-3.4397,-3.4397,-3.4685,-3.5208,-3.607,-3.6332,-3.6645,-3.824,-4.0148,-4.2291,-4.4879,-4.6761,-4.8355,-4.9949,-4.927,-4.8068,-4.7649,-4.5767,-4.3833,-4.2866,-4.054,-3.8579,-3.7978,-3.8004,-3.9092,-4.2142,-4.4858,-4.7785,-5.1231,-5.2062,-5.2482,-5.2812,-5.2014,-5.1917,-5.3127,-5.2532,0.0,0.0,-5.4162,-5.4192,-5.5388,-5.5448,-5.5448,-5.5448,-5.5448,-5.5359,-5.5179,-5.3961,-5.2803,-5.1757,-5.1849,-5.1425,-5.0651,-5.0468,-4.9849,-4.8881,-4.8696,-4.8327,-4.7742,-4.6018,-4.5249,-4.501,-4.3624,-4.3408,-4.3901,-4.424,-4.4456,-4.4517,0.0,0.0,0.0,0.0,0.0,0.0,0.0,0.0,0.0,0.0,0.0,0.0,0.0,0.0,0.0,0.0,0.0,0.0,0.0,-3.6698,-3.6541,-3.6593,-3.7325,-3.7848,-3.8161,-3.8553,-3.9207,-4.0122,-3.9782,-4.0043,-4.0853,-4.054,-4.0514,-4.0775,-4.0775,-4.0775,-4.0723,-4.0148,-4.0252,0.0,0.0,-3.7717,-3.8266,-3.6436,-3.5704,-3.5626,-3.5391,-3.5077,-3.492,-3.5678,-3.6149,-3.6593,-3.7482,-3.8266,-3.9285,-4.1298,-4.331,-4.5428,-4.7728,-4.927,-5.0342,-5.0995,-4.9845,-4.8094,-4.6238,-4.4356,-4.2343,-3.9991,-3.8161,-3.6698,-3.5678,-3.5704,-3.675,-3.9468,-4.2448,-4.5687,-4.9404,-5.1044,-5.2147,-5.2678,-5.2534,-5.2573,-5.302,-5.2678,-5.296,0.0,-5.3928,-5.4116,-5.5179,-5.5179,-5.5179,-5.5179,-5.5179,-5.491,-5.4311,-5.3391,-5.2485,-5.1572,-5.1439,-5.0955,-5.0188,-4.9883,-4.9194,-4.8313,0.0,-4.8223,-4.7773,-4.5918,-4.5095,-4.4849,-4.331,-4.31,-4.3655,-4.4024,-4.4363,-4.4517,0.0,0.0,0.0,0.0,0.0,0.0,0.0,0.0,0.0,0.0,-3.5234,-3.5574,-3.6671,-3.6854,0.0,0.0,0.0,0.0,0.0,0.0,-3.6698,-3.6253,-3.5704,-3.5417,-3.5417,-3.4894,-3.4842,-3.5286,-3.5286,-3.5757,-3.6645,-3.6645,-3.6933,-3.7429,-3.7429,-3.7429,-3.7403,-3.6881,-3.6959,-3.7299,-3.5783,-3.5783,-3.6567,0.0,-3.5574,-3.594,-3.5469,-3.5338,-3.5652,-3.7246,-3.7926,-3.8266,-3.905,-4.0435,-4.2213,-4.4539,-4.6395,-4.8172,-5.0498,-5.1413,-5.1727,-5.1727,-5.0263,-4.7963,-4.4643,-4.3127,-4.1246,-3.6985,-3.641,-3.6044,-3.4058,-3.4136,-3.5155,-3.7142,-3.9259,-4.2082,-4.6238,-4.8592,-5.0189,-5.1049,-5.2321,-5.2925,-5.2256,-5.2283,-5.2657,-5.35,-5.3829,-5.4202,-5.4819,-5.4751,-5.4713,-5.4624,-5.4818,-5.4261,-5.286,-5.266,-5.2218,-5.1526,-5.1122,-5.0546,-4.9924,-4.9226,-4.8602,-4.8007,-4.8175,-4.8179,-4.7884,-4.5594,-4.4972,-4.5095,-4.2756,-4.2571,-4.3624,-4.3716,-4.4117,-4.4517,0.0,0.0,0.0,0.0,0.0,0.0,0.0,0.0,0.0,0.0,-3.4868,-3.4816,0.0,0.0,0.0,0.0,0.0,0.0,0.0,0.0,0.0,-3.6828,-3.6279,-3.5966,-3.5966,-3.5861,-3.5626,-3.5286,-3.5286,-3.5155,-3.4842,-3.4842,-3.492,-3.4999,-3.4999,-3.4999,-3.4999,-3.4894,-3.492,-3.4972,-3.4685,-3.4685,-3.4868,-3.5182,0.0,0.0,-3.5338,-3.5574,-3.6096,-3.6881,-3.8109,-3.9651,-4.1638,-4.3127,-4.4591,-4.6917,-4.8486,-4.9949,-5.2302,-5.2642,-5.2328,-5.2328,-4.9976,-4.697,-4.446,-4.1585,-3.8815,-3.6567,-3.5443,-3.4737,-3.4319,-3.4737,-3.6175,-3.9311,-4.0984,-4.3441,-4.7989,-4.9344,-5.0691,-5.2789,-5.2356,-5.2641,-5.455,-5.2923,0.0,0.0,-5.2984,-5.2375,-5.293,-5.2582,-5.2042,-5.1583,-5.2876,-5.2723,-5.1041,-5.1862,-5.1935,-5.1246,-5.0633,-5.011,-4.9627,-4.8964,-4.843,-4.8007,-4.8049,0.0,-4.6559,-4.559,-4.4695,-4.3901,-4.3439,-4.3408,-4.3685,-4.424,-4.4517,-4.461,0.0,0.0,0.0,0.0,0.0,0.0,0.0,-3.5103,-3.5391,-3.5678,-3.5469,-3.5391,-3.5678,-3.5704,-3.5913,0.0,0.0,0.0,0.0,0.0,0.0,0.0,0.0,0.0,-3.6567,-3.6253,-3.5966,-3.573,0.0,-3.5417,-3.4868,-3.5155,-3.5129,-3.4868,-3.5155,-3.5286,-3.5286,-3.5286,-3.5286,-3.5286,-3.5286,-3.5129,0.0,0.0,0.0,0.0,-3.573,-3.5704,-3.5861,-3.7063,-3.8423,-4.0017,-4.2291,-4.4225,-4.6029,-4.8068,-4.9662,-5.1152,-5.2929,-5.34,-5.3164,-5.225,-4.9662,-4.6365,-4.2866,-4.0122,-3.7612,-3.5286,-3.458,-3.4397,-3.4397,-3.4894,-3.6044,-3.8266,-3.9599,-4.1873,-4.6212,-4.7571,-4.9114,-5.1748,-5.1786,-5.2068,-5.3329,-5.205,-5.1575,-5.2523,-5.1153,-5.1034,-5.2519,-5.1731,-5.0969,-5.0431,-5.0794,-5.0608,-4.9766,-5.0495,-5.0688,-5.0364,-5.0262,-4.9928,-4.9404,-4.8743,-4.8126,-4.7624,-4.7752,-4.7262,-4.6386,-4.5534,-4.4647,-4.3777,-4.3523,-4.3438,-4.3536,-4.4326,-4.461,-4.461,0.0,0.0,0.0,0.0,0.0,0.0,-3.5208,-3.5391,-3.5678,-3.6227,-3.6305,-3.6253,-3.6123,-3.573,-3.56,0.0,0.0,0.0,0.0,0.0,0.0,0.0,0.0,0.0,0.0,0.0,0.0,-3.6305,-3.6305,0.0,0.0,0.0,0.0,0.0,-3.573,-3.594,-3.594,-3.6044,-3.5966,0.0,0.0,-3.5783,0.0,0.0,0.0,0.0,0.0,-3.5652,-3.5521,-3.7011,-3.8292,-3.9573,-4.1507,-4.4016,-4.6578,-4.8094,-4.9976,-5.1858,-5.306,-5.3713,-5.3635,-5.2014,-4.9165,-4.5607,-4.1402,-3.8919,-3.6776,-3.4136,-3.4031,-3.4397,-3.4397,-3.4789,-3.5469,-3.6619,-3.7795,-3.9913,-4.3807,-4.5584,-4.7492,-5.0263,-5.1178,0.0,-5.1596,-5.11,0.0,-5.0603,-4.9427,-4.952,-5.1432,-5.057,-4.9732,-4.91,-4.8906,-4.8673,-4.8443,-4.9002,-4.9268,-4.9239,-4.9303,-4.906,-4.8604,-4.7806,-4.7185,-4.6638,-4.6814,-4.6645,-4.6184,-4.518,-4.4368,-4.3663,-4.3526,-4.3297,-4.3122,-4.4098,-4.4496,-4.4534,0.0,0.0,0.0,0.0,0.0,0.0,-3.5208,-3.5704,-3.6253,-3.6854,-3.6933,-3.6724,-3.6175,-3.607,-3.5861,0.0,0.0,0.0,0.0,0.0,0.0,0.0,0.0,0.0,0.0,0.0,0.0,-3.6933,-3.6933,0.0,0.0,0.0,0.0,0.0,0.0,-3.5365,-3.5417,-3.5887,0.0,0.0,0.0,0.0,0.0,0.0,0.0,0.0,0.0,-3.5338,-3.5391,-3.6044,-3.7063,-3.8187,-3.8893,-4.2134,-4.5846,-4.6525,-4.9035,-5.1858,-5.306,-5.3426,-5.3164,-5.191,-4.825,-4.4173,-4.1191,-3.8292,-3.5757,-3.3953,-3.4031,-3.4397,-3.4397,-3.445,-3.4868,-3.5992,-3.7194,-3.9207,-4.2683,-4.5088,-4.7362,-4.9688,-5.0943,0.0,-5.1596,-5.11,-5.0551,-5.0002,-4.8433,-4.755,-4.7753,-4.7592,-4.7056,-4.602,-4.7383,-4.762,-4.6665,-4.7666,-4.8117,-4.8117,-4.7031,-4.6438,-4.6353,-4.5214,-4.4648,-4.4591,-4.4591,-4.4862,0.0,-4.4467,-4.3595,-4.279,-4.3624,-4.3163,-4.2216,-4.3559,-4.4181,-4.4305,0.0,0.0,0.0,0.0,0.0,0.0,-3.5155,-3.5757,-3.6332,-3.6933,-3.7325,-3.7325,-3.6724,-3.6332,-3.573,-3.4842,-3.5286,0.0,0.0,0.0,0.0,0.0,0.0,0.0,0.0,0.0,-3.7429,-3.7534,-3.7534,0.0,0.0,0.0,0.0,0.0,0.0,-3.6515,-3.6828,-3.6332,0.0,0.0,0.0,0.0,0.0,0.0,0.0,0.0,0.0,0.0,-3.4842,-3.5417,-3.594,-3.6384,-3.6593,-3.8397,-4.1036,-4.4016,-4.663,-4.9008,-5.123,-5.2328,-5.2485,-5.0943,-4.7623,-4.3885,-4.0671,-3.7717,-3.5234,-3.3875,-3.377,-3.3927,-3.3927,-3.3927,-3.3953,-3.4031,-3.4162,-3.5469,-3.8919,-4.0514,-4.2814,-4.6839,-4.8643,-4.9819,0.0,0.0,-4.9714,-4.8433,-4.7388,-4.6682,-4.626,-4.6233,-4.5866,-4.5088,-4.5662,-4.5794,-4.5395,-4.6451,-4.7023,-4.7023,-4.7186,-4.6841,-4.6062,-4.5585,-4.5015,-4.4312,-4.4312,-4.4178,0.0,-4.338,-4.2653,-4.1952,-4.2092,-4.214,-4.2206,-4.2902,-4.3576,-4.4143,0.0,0.0,0.0,0.0,0.0,-3.4162,-3.5155,-3.5626,-3.607,-3.6671,-3.7116,-3.722,-3.6776,-3.6201,-3.5547,-3.4737,-3.4894,0.0,0.0,0.0,0.0,0.0,0.0,0.0,0.0,0.0,-3.7482,-3.79,-3.79,-3.7273,0.0,0.0,-3.6907,-3.6123,0.0,0.0,0.0,0.0,0.0,0.0,0.0,0.0,0.0,0.0,0.0,0.0,0.0,0.0,0.0,0.0,0.0,-3.5234,-3.4894,-3.5469,-3.7037,-4.1141,-4.3938,-4.6264,-4.8826,-5.0472,-5.1152,-4.974,-4.6656,-4.3258,-4.0488,-3.7351,-3.4868,-3.4214,-3.3822,-3.3692,-3.4031,-3.3822,-3.3404,-3.2803,-3.2515,-3.3338,-3.6332,-3.7717,-4.0017,-4.4356,-4.6238,-4.7675,-4.9008,-4.9453,-4.893,-4.7205,-4.6708,-4.6159,-4.5401,-4.5294,-4.5111,-4.4694,-4.4668,-4.4668,-4.4668,-4.5502,-4.582,-4.5658,-4.6274,-4.5999,-4.493,-4.4765,-4.4214,-4.3416,-4.3416,-4.331,0.0,-4.2342,-4.1758,-4.133,-4.097,-4.1085,-4.1504,-4.1877,-4.2478,-4.315,0.0,0.0,0.0,0.0,0.0,-3.4607,-3.5208,-3.5312,-3.5495,-3.6044,-3.6123,-3.6123,-3.6123,-3.5626,-3.5286,-3.5286,-3.4737,0.0,0.0,0.0,0.0,0.0,0.0,0.0,-3.79,-3.79,-3.79,-3.79,-3.79,-3.7273,-3.6096,-3.6123,-3.6123,-3.6096,0.0,0.0,0.0,0.0,0.0,0.0,0.0,0.0,0.0,0.0,0.0,0.0,0.0,0.0,0.0,0.0,0.0,0.0,0.0,-3.3979,-3.4999,-3.79,-4.1193,-4.4278,-4.6055,-4.778,-4.8982,-4.8355,-4.5166,-4.1873,-4.0671,-3.7299,-3.458,-3.5155,-3.4371,-3.3927,-3.5077,-3.4345,-3.3404,-3.2803,-3.3195,-3.4162,-3.5861,-3.8109,-4.0461,-4.2762,-4.4095,-4.548,-4.7122,-4.8407,-4.8381,-4.663,-4.6473,0.0,-4.4746,-4.4694,-4.4694,-4.4668,-4.4668,-4.4668,-4.4668,-4.4722,-4.4434,-4.3939,-4.331,-4.2787,-4.2211,-4.1636,-4.1324,-4.1324,-4.1324,-4.1918,0.0,-4.1517,-4.1074,-4.1077,-4.0733,-4.0145,-3.964,-4.0361,-4.0746,-4.1056,0.0,0.0,0.0,0.0,0.0,0.0,-3.4607,-3.5025,-3.5365,-3.5521,-3.5861,-3.6096,-3.6096,-3.526,-3.4842,-3.526,-3.4737,0.0,0.0,0.0,0.0,0.0,0.0,0.0,-3.7874,-3.7508,-3.7482,-3.79,-3.7482,-3.709,-3.6698,-3.6305,-3.6332,-3.6698,-3.6279,-3.6671,0.0,0.0,0.0,0.0,0.0,0.0,0.0,0.0,0.0,0.0,0.0,0.0,0.0,0.0,0.0,0.0,0.0,0.0,0.0,-3.6436,-3.8841,-4.1428,-4.3546,-4.48,-4.5375,-4.48,-4.2788,-4.0566,-3.905,-3.6776,-3.5077,-3.526,-3.4685,-3.4267,-3.4607,-3.4084,-3.3535,-3.3352,-3.3117,-3.3587,-3.5312,-3.722,-3.9442,-4.2108,-4.5192,-4.7466,0.0,0.0,-4.7911,-4.6578,-4.6473,-4.595,-4.4746,-4.4668,-4.4668,-4.4668,-4.4668,-4.4668,-4.4668,-4.4668,-4.4434,-4.3912,-4.3702,-4.3101,-4.2211,-4.1977,-4.169,-4.1324,-4.1324,-4.1498,-4.1716,-4.0923,-4.0605,-4.0547,-3.9634,-3.9563,-3.9915,-3.97,-4.0059,-4.0831,0.0,0.0,0.0,0.0,0.0,0.0,-3.4345,-3.4711,-3.4946,-3.4946,-3.526,-3.5469,-3.5469,-3.4816,-3.4554,-3.492,-3.4607,0.0,0.0,0.0,0.0,0.0,0.0,0.0,-3.7874,-3.7534,-3.7534,-3.79,-3.7534,-3.7116,-3.6645,-3.6279,-3.6305,-3.6645,-3.6279,-3.6776,0.0,0.0,0.0,0.0,0.0,0.0,-3.492,0.0,0.0,0.0,0.0,0.0,0.0,0.0,0.0,0.0,0.0,0.0,0.0,0.0,-3.7142,-3.9076,-4.1167,-4.2317,-4.2814,-4.2474,-4.1246,-3.9782,-3.8501,-3.6698,-3.5417,-3.5861,-3.5129,-3.4476,-3.4685,-3.411,-3.3456,-3.3012,-3.262,-3.2908,-3.445,-3.6332,-3.871,-4.1845,-4.5166,0.0,0.0,-4.7832,-4.7466,-4.6552,-4.629,-4.5741,-4.472,-4.4668,-4.4668,-4.4668,-4.4668,-4.4668,-4.4668,-4.4513,-4.4121,-4.3546,-4.3389,-4.2735,-4.1847,-4.1847,-4.1664,-4.1324,-4.1324,-4.1324,0.0,-4.0671,-4.0305,-4.0017,-3.9076,-3.8926,-3.9192,-3.8863,-3.906,-3.9809,0.0,0.0,0.0,0.0,0.0,0.0,0.0,-3.4397,-3.4397,-3.4397,-3.4397,-3.4371,-3.4345,-3.4345,-3.4345,-3.4345,-3.4345,0.0,0.0,0.0,0.0,0.0,0.0,-3.6671,-3.7874,-3.79,-3.7874,-3.7848,-3.7848,-3.7273,-3.6175,-3.6096,-3.6123,-3.6227,-3.6149,-3.6776,-3.7874,-3.722,-3.6619,-3.6044,-3.5469,-3.4894,0.0,0.0,0.0,0.0,0.0,0.0,0.0,0.0,0.0,0.0,0.0,0.0,0.0,0.0,0.0,0.0,0.0,-4.0252,-4.1063,-4.1063,-4.0278,-3.9337,-3.8736,-3.6907,0.0,-3.6724,-3.5626,-3.4633,-3.5234,-3.4397,-3.3273,-3.2215,-3.2006,-3.2398,-3.3613,-3.5887,-3.8658,-4.2002,-4.4356,-4.566,-4.5637,-4.663,-4.7022,-4.6473,-4.5924,-4.5375,-4.4694,-4.4668,-4.4668,-4.4668,-4.4668,-4.4668,-4.4668,-4.4173,-4.3598,-4.3023,-4.2448,-4.1873,-4.1324,-4.1324,-4.1324,0.0,-4.1324,-4.1324,-4.1272,-4.0671,-4.0122,-3.9599,-3.8972,-3.8397,-3.7952,-3.7926,-3.79,-3.8148,0.0,0.0,0.0,0.0,0.0,0.0,0.0,0.0,0.0,0.0,-3.4397,-3.4241,-3.3822,-3.377,-3.377,0.0,0.0,0.0,0.0,0.0,0.0,0.0,-3.6096,-3.6671,-3.7874,-3.79,-3.7665,-3.722,-3.722,-3.7063,-3.6776,-3.5887,-3.6201,-3.7456,-3.6515,-3.6776,-3.7821,-3.6776,-3.6227,-3.6018,-3.4999,-3.4528,0.0,0.0,0.0,0.0,-3.4397,-3.4476,0.0,0.0,0.0,0.0,0.0,0.0,0.0,0.0,-3.6802,-3.7194,-3.8057,0.0,-3.871,-3.871,-3.8501,-3.8135,0.0,-3.6645,-3.5992,-3.6253,-3.5652,-3.526,-3.5809,-3.4633,-3.3796,-3.4397,-3.411,-3.4188,-3.5338,-3.9024,-4.2239,-4.3938,-4.5794,-4.6521,-4.566,-4.6264,-4.6447,-4.5872,-4.5715,-4.5375,-4.4694,-4.4668,-4.4668,-4.4668,-4.4668,-4.4668,-4.4668,-4.4173,-4.3598,-4.3023,-4.2448,-4.1873,-4.1324,-4.1324,-4.1324,-4.1324,-4.1324,-4.1324,-4.1272,-4.0671,-4.0357,-4.0122,-3.9102,-3.8632,-3.8475,-3.8057,-3.79,-3.8057,0.0,0.0,0.0,0.0,0.0,0.0,0.0,0.0,0.0,0.0,-3.4188,-3.3822,-3.3247,-3.3169,-3.33,0.0,0.0,0.0,0.0,0.0,0.0,-3.607,-3.6358,-3.6959,-3.7874,-3.79,-3.7612,-3.7011,-3.7011,-3.6724,-3.6201,-3.5574,-3.594,-3.7063,-3.6985,-3.7142,-3.7456,-3.6802,-3.6201,-3.5678,-3.5051,0.0,0.0,0.0,0.0,0.0,-3.4397,-3.4397,0.0,-3.573,-3.6096,-3.6253,0.0,0.0,0.0,0.0,-3.7194,-3.7429,-3.7482,-3.7691,-3.79,-3.79,-3.79,-3.7743,-3.7142,-3.6541,-3.6175,-3.6462,-3.5861,-3.5469,-3.5992,-3.5155,-3.4476,-3.4816,-3.4842,-3.5495,-3.7429,-4.0095,-4.2552,-4.4513,-4.582,-4.6421,0.0,-4.6055,-4.595,-4.5637,-4.532,-4.5007,-4.4748,-4.4668,-4.4668,-4.4668,-4.446,-4.433,-4.433,-4.3781,-4.3206,-4.2631,-4.2056,-4.1611,-4.1324,-4.1324,-4.1324,-4.1324,-4.1324,-4.1324,-4.1298,-4.0958,-4.0514,-3.9991,-3.9364,-3.8789,-3.8318,-3.8004,-3.79,-3.8037,0.0,0.0,0.0,0.0,0.0,0.0,0.0,0.0,0.0,0.0,0.0,0.0,0.0,0.0,0.0,0.0,0.0,0.0,0.0,0.0,-3.5678,-3.6227,-3.6724,-3.7273,-3.79,-3.7821,-3.7482,-3.6854,-3.6959,-3.6462,-3.5417,-3.5417,-3.5652,-3.6149,-3.7168,-3.7456,-3.7142,-3.6933,-3.6358,-3.5547,-3.5365,0.0,0.0,0.0,0.0,0.0,0.0,0.0,0.0,-3.5626,-3.5992,-3.6175,-3.7273,0.0,0.0,0.0,0.0,0.0,-3.7168,-3.7456,-3.79,-3.79,-3.79,-3.7743,-3.7142,-3.6593,-3.6332,-3.6671,-3.5966,-3.5469,-3.5992,-3.5574,-3.5051,-3.4711,-3.5234,-3.6724,-3.9703,-4.0592,-4.1873,-4.4383,-4.5218,0.0,-4.6055,-4.5715,-4.5425,-4.5425,-4.5009,-4.4668,-4.4668,-4.4668,-4.4668,-4.4668,-4.4173,-4.3833,-4.3729,-4.318,-4.2657,-4.2211,-4.1585,-4.1324,-4.1324,-4.1324,-4.1324,-4.1324,0.0,0.0,-4.1167,-4.1089,-4.0435,-3.9468,-3.939,-3.8762,-3.79,-3.79,-3.79,-3.8037,0.0,0.0,0.0,0.0,0.0,0.0,0.0,0.0,0.0,0.0,0.0,0.0,0.0,0.0,0.0,0.0,0.0,0.0,0.0,-3.5495,-3.6253,-3.6854,-3.6959,-3.7273,-3.79,-3.7403,-3.6854,-3.6253,-3.675,-3.6645,-3.5992,-3.5992,-3.6018,-3.6123,-3.6305,-3.6907,-3.7691,-3.6671,-3.6436,-3.6645,-3.5678,0.0,0.0,0.0,0.0,0.0,0.0,0.0,0.0,-3.5182,-3.5417,-3.5521,-3.6175,0.0,0.0,0.0,0.0,0.0,-3.7168,-3.7456,-3.79,-3.79,-3.79,-3.7743,-3.7142,-3.6933,-3.6619,-3.573,-3.5417,-3.5469,-3.5992,-3.5234,-3.4816,-3.5704,-3.6776,-3.8684,-4.203,-4.2997,-4.352,-4.4017,0.0,-4.5271,-4.4356,-4.4643,-4.4853,-4.4853,-4.472,-4.4668,-4.4668,-4.4668,-4.4668,-4.4668,-4.4173,-4.3624,-4.3154,-4.2579,-4.229,-4.2211,-4.1585,-4.1324,-4.1324,-4.1324,-4.1324,-4.1324,0.0,-4.1036,-4.0514,-4.0069,-3.9468,-3.8789,-3.8344,-3.8057,-3.79,-3.79,-3.79,-3.8037,0.0,0.0,0.0,0.0,0.0,0.0,0.0,0.0,0.0,0.0,0.0,0.0,0.0,0.0,0.0,0.0,0.0,0.0,-3.5234,-3.5809,-3.6384,-3.6985,-3.6698,-3.6802,-3.7403,-3.7456,-3.7194,-3.6593,-3.7194,-3.7194,-3.6593,-3.6253,-3.6096,-3.6096,-3.6096,-3.6253,-3.6488,-3.6567,-3.6384,-3.607,0.0,0.0,0.0,0.0,0.0,0.0,0.0,0.0,0.0,0.0,-3.5286,-3.5391,-3.594,0.0,0.0,0.0,0.0,0.0,-3.6593,-3.6959,-3.7403,-3.7403,-3.7665,-3.7821,-3.756,-3.7246,-3.6959,-3.675,-3.6201,-3.6018,-3.6907,-3.6881,-3.722,-3.8684,-3.939,-4.0409,-4.2291,-4.2788,-4.3232,0.0,0.0,-4.4591,-4.4356,-4.4565,-4.4668,-4.4668,-4.4668,-4.4668,-4.4668,-4.4668,-4.4591,-4.4278,-4.3702,-4.3127,-4.2579,-4.2004,-4.1716,-4.1716,-4.1428,-4.1324,-4.1324,-4.1324,-4.1324,-4.1324,0.0,-4.0984,-4.0409,-4.0148,-3.9703,-3.9128,-3.8579,-3.8344,-3.8318,-3.8004,-3.79,-3.7946,0.0,0.0,0.0,0.0,0.0,0.0,0.0,0.0,0.0,0.0,0.0,0.0,0.0,0.0,0.0,0.0,0.0,-3.4267,-3.5809,-3.6044,-3.6436,-3.7194,-3.6488,-3.6384,-3.6985,-3.7456,-3.7534,-3.722,-3.7665,-3.7586,-3.6985,-3.6384,-3.6096,-3.6096,-3.5835,-3.5626,-3.5547,-3.641,-3.6358,-3.573,0.0,0.0,0.0,0.0,0.0,0.0,0.0,0.0,0.0,0.0,0.0,0.0,0.0,0.0,0.0,-3.594,-3.6096,-3.6253,-3.5992,-3.6358,-3.6828,-3.6959,-3.7456,-3.7978,-3.824,-3.7952,-3.7743,-3.8214,-3.756,-3.7116,-3.7795,-3.8449,-3.9442,-4.1063,-4.1664,-4.2108,-4.2683,-4.2892,-4.3258,-4.399,-4.4068,-4.4251,-4.4696,-4.4668,-4.4668,-4.4668,-4.4668,-4.467,-4.4539,-4.4539,-4.4278,-4.3702,-4.3127,-4.2605,-4.2211,-4.1611,-4.1324,-4.1324,-4.1324,-4.1324,-4.1324,-4.1324,-4.1324,-4.1298,-4.1167,-4.0775,-4.0226,-4.0069,-3.9703,-3.9155,-3.871,-3.8527,-3.8475,-3.8057,-3.79,-3.79,0.0,0.0,0.0,0.0,0.0,0.0,0.0,0.0,0.0,0.0,0.0,0.0,0.0,0.0,0.0,0.0,-3.2934,-3.4084,-3.5286,-3.5835,-3.6619,-3.7795,-3.6724,-3.6384,-3.6985,-3.7037,-3.7325,-3.7848,-3.7874,-3.7586,-3.6985,-3.6384,-3.6096,-3.6044,-3.4999,-3.5077,-3.6044,-3.6123,-3.6436,-3.6881,-3.6933,0.0,0.0,0.0,0.0,0.0,0.0,0.0,0.0,0.0,0.0,0.0,0.0,0.0,-3.5992,-3.5495,-3.6096,-3.6698,-3.5652,-3.5757,-3.6305,-3.6854,-3.7456,-3.8187,-3.9233,-3.9442,-3.9442,-3.9468,-3.9416,-3.905,-3.8083,-3.8815,-3.9939,-4.1115,-4.2657,-4.3885,-4.446,-4.5036,-4.5192,-4.4722,-4.467,-4.4696,-4.4668,-4.4668,-4.4668,-4.4668,-4.4668,-4.4487,-4.3964,-4.3938,-4.3676,-4.3101,-4.2526,-4.2264,-4.2211,-4.1611,-4.1324,-4.1324,-4.1324,-4.1324,-4.1324,-4.1324,-4.1324,-4.1298,-4.0723,-4.0174,-3.9625,-3.905,-3.8527,-3.8031,-3.7978,-3.7952,-3.7952,-3.7926,-3.79,-3.79,0.0,0.0,0.0,0.0,0.0,0.0,0.0,0.0,0.0,0.0,0.0,-3.3796,-3.3012,0.0,0.0,0.0,-3.377,-3.4842,-3.526,-3.6149,-3.6698,-3.6776,-3.6358,-3.6044,-3.594,-3.7011,-3.7665,-3.79,-3.824,-3.8292,-3.8031,-3.6724,-3.6096,-3.6044,-3.492,-3.4633,-3.5077,-3.5443,-3.594,-3.6436,-3.6436,-3.6671,0.0,0.0,0.0,0.0,0.0,0.0,0.0,0.0,-3.4397,-3.4424,-3.4659,-3.5129,-3.5495,-3.492,-3.5312,-3.5757,-3.4946,-3.5417,-3.6149,-3.6384,-3.7194,-3.8214,-3.9337,-3.986,-4.0122,-4.0122,-4.0697,-4.0958,-4.0174,-4.0383,-4.1036,-4.2186,-4.3232,-4.4068,-4.4589,-4.4931,-4.4983,-4.4748,-4.4668,-4.4668,-4.4668,-4.4668,-4.4591,-4.4225,-4.4199,-4.3938,-4.3363,-4.3337,-4.3075,-4.25,-4.2342,-4.2004,-4.1638,-4.1063,-4.0958,-4.1324,-4.1324,-4.1324,-4.1324,-4.1324,-4.1115,-4.0749,-4.0514,-3.9886,-3.9024,-3.8789,-3.8579,-3.8397,-3.8397,-3.8187,-3.79,-3.79,-3.79,-3.79,0.0,0.0,0.0,0.0,0.0,0.0,0.0,0.0,-3.3796,0.0,0.0,0.0,0.0,-3.3587,0.0,0.0,-3.4397,-3.5365,-3.5547,-3.6462,-3.6907,-3.6671,-3.6305,-3.6096,-3.6123,-3.7116,-3.7717,-3.79,-3.8449,-3.8632,-3.8423,-3.7037,-3.6384,-3.6332,-3.5182,-3.4685,-3.4711,-3.5312,-3.5757,-3.6123,-3.6305,-3.6645,0.0,0.0,0.0,0.0,0.0,0.0,0.0,0.0,-3.4397,-3.4424,-3.4633,-3.4972,-3.5208,-3.4816,-3.4972,-3.5155,-3.4554,-3.4972,-3.56,-3.5809,-3.6881,-3.824,-3.9573,-4.0435,-4.1115,-4.1664,-4.1847,-4.1899,-4.1873,-4.1559,-4.169,-4.284,-4.3807,-4.4487,-4.4696,-4.4824,-4.4877,-4.4694,-4.4668,-4.4668,-4.4668,-4.4565,-4.4304,-4.3965,-4.3702,-4.3363,-4.2788,-4.2762,-4.25,-4.1925,-4.1716,-4.1428,-4.1036,-4.0461,-4.0357,-4.0775,-4.0775,-4.0853,-4.1036,-4.0853,-4.054,-4.0148,-3.9965,-3.9442,-3.871,-3.8527,-3.8449,-3.8449,-3.8449,-3.8214,-3.79,-3.79,-3.79,-3.79,0.0,0.0,0.0,0.0,0.0,0.0,0.0,0.0,-3.3796,-3.4319,-3.4397,0.0,0.0,0.0,0.0,0.0,-3.4659,-3.5547,-3.607,-3.6671,-3.7273,-3.7874,-3.675,-3.6671,-3.7848,-3.7299,-3.7299,-3.79,-3.8449,-3.8423,-3.79,-3.7273,-3.7011,-3.6959,-3.5809,-3.5312,-3.5338,-3.5861,-3.6096,-3.6149,-3.675,-3.6985,-3.6933,0.0,0.0,0.0,0.0,0.0,0.0,0.0,-3.4397,-3.4502,-3.5103,-3.5286,-3.5286,-3.5286,-3.5286,-3.5182,-3.4554,-3.4397,-3.4554,-3.5155,-3.6619,-3.8344,-4.0043,-4.135,-4.2657,-4.4382,-4.2918,-4.169,-4.2814,-4.2108,-4.1716,-4.284,-4.4487,-4.5401,-4.4746,-4.519,-4.5401,-4.4746,-4.4668,-4.4668,-4.4668,-4.4199,-4.3912,-4.3912,-4.3337,-4.2762,-4.2238,-4.2211,-4.1899,-4.1324,-4.0723,-4.0409,-4.0409,-3.9886,-3.9599,-3.9599,-3.9599,-3.9886,-4.0383,-3.986,-3.9599,-3.9573,-3.8972,-3.871,-3.8658,-3.8135,-3.79,-3.79,-3.79,-3.79,-3.79,-3.79,-3.79,-3.79,0.0,0.0,0.0,0.0,0.0,0.0,0.0,0.0,-3.3796,-3.4319,-3.4397,0.0,0.0,0.0,0.0,0.0,0.0,-3.6567,-3.6724,-3.7299,-3.7534,-3.7273,-3.7325,-3.6959,-3.6096,-3.5887,-3.6488,-3.79,-3.8449,-3.8423,-3.79,-3.7273,-3.7011,-3.6959,-3.6201,-3.5652,-3.5312,-3.5469,-3.5547,-3.5574,-3.6149,-3.6619,-3.6985,0.0,0.0,0.0,0.0,0.0,0.0,0.0,0.0,0.0,-3.4162,-3.492,-3.5547,-3.3927,-3.4607,-3.5574,-3.4214,-3.4424,-3.526,-3.6253,-3.7482,-3.9024,-4.1167,-4.2213,-4.3258,-4.5009,-4.4173,-4.3206,-4.3546,-4.3023,-4.2631,-4.2971,-4.3781,-4.446,-4.4696,-4.4824,-4.4931,-4.4748,-4.4668,-4.4565,-4.4173,-4.3964,-4.3598,-4.2787,-4.2526,-4.216,-4.1611,-4.1559,-4.1481,-4.1324,-4.0723,-4.0409,-4.0409,-3.9468,-3.9181,-3.9599,-3.8789,-3.8919,-3.9834,-3.9677,-3.939,-3.8972,-3.8789,-3.8501,-3.8135,-3.7978,-3.79,-3.79,-3.79,-3.79,-3.79,-3.79,-3.79,-3.79,0.0,0.0,0.0,0.0,0.0,0.0,-3.3927,-3.3927,-3.4031,-3.4345,-3.4397,-3.4397,0.0,0.0,0.0,-3.5286,-3.6332,-3.7011,-3.7011,-3.756,-3.7743,-3.7377,-3.7482,-3.6854,-3.5338,-3.5992,-3.6515,-3.6881,-3.7403,-3.7639,-3.7534,-3.7168,-3.7142,-3.7325,-3.6724,-3.6149,-3.5626,-3.5626,-3.5626,-3.5652,-3.5966,-3.6462,-3.6985,0.0,0.0,0.0,0.0,0.0,0.0,0.0,0.0,0.0,-3.4084,-3.4607,-3.5155,-3.377,-3.4345,-3.5208,-3.4188,-3.4215,-3.4917,-3.6582,-3.7568,-3.8804,-4.1673,-4.3359,-4.4639,-4.5525,-4.4918,-4.4304,-4.4539,-4.3729,-4.318,-4.3624,-4.399,-4.433,-4.467,-4.4668,-4.4668,-4.4668,-4.4668,-4.4513,-4.3938,-4.3676,-4.3154,-4.229,-4.1951,-4.1585,-4.0984,-4.0958,-4.0853,-4.0644,-4.0043,-3.973,-3.973,-3.8841,-3.8579,-3.8919,-3.824,-3.8266,-3.8919,-3.8919,-3.8736,-3.8397,-3.8397,-3.8214,-3.79,-3.79,-3.79,-3.79,-3.79,-3.79,-3.79,-3.79,-3.79,-3.79,0.0,0.0,-3.4397,-3.4397,0.0,0.0,-3.4397,-3.4397,-3.4397,-3.4397,-3.4397,-3.4397,0.0,0.0,0.0,-3.5365,-3.641,-3.709,-3.709,-3.7612,-3.7874,-3.7821,-3.7246,-3.6462,-3.5469,-3.6959,-3.6959,-3.5365,-3.5913,-3.6462,-3.7011,-3.7011,-3.7325,-3.7874,-3.7325,-3.6724,-3.6096,-3.6175,-3.6123,-3.6044,-3.6149,-3.6515,-3.6933,-3.6384,0.0,0.0,0.0,0.0,0.0,0.0,0.0,0.0,-3.4528,-3.4424,-3.4502,-3.4319,-3.4345,-3.445,-3.4262,-3.3929,-3.415,-3.6366,-3.725,-3.8407,-4.163,-4.4446,-4.6186,-4.5846,-4.5283,-4.5009,-4.5532,-4.4224,-4.352,-4.4511,-4.4668,-4.4668,-4.4668,-4.4668,-4.4642,-4.4643,-4.4643,-4.4408,-4.3781,-4.3258,-4.2709,-4.2185,-4.1611,-4.1063,-4.0461,-4.0409,-4.0174,-3.9625,-3.9024,-3.871,-3.871,-3.8161,-3.79,-3.79,-3.79,-3.79,-3.79,-3.79,-3.79,-3.79,-3.79,-3.79,-3.79,-3.79,-3.79,-3.79,-3.79,-3.79,-3.79,-3.79,-3.79,-3.79,0.0,0.0,-3.4397,-3.4397,0.0,0.0,-3.4397,-3.4397,-3.4397,-3.4397,-3.4397,-3.4397,-3.4397,-3.5312,0.0,-3.594,-3.7011,-3.7717,-3.7717,-3.7821,-3.7691,-3.722,-3.6619,-3.641,-3.6645,-3.6541,-3.6305,-3.594,-3.6515,-3.6881,-3.7011,-3.7011,-3.7325,-3.79,-3.7769,-3.7116,-3.6123,-3.6619,-3.6305,-3.5547,-3.6436,-3.6881,-3.6985,-3.6854,-3.6802,0.0,0.0,0.0,0.0,0.0,0.0,0.0,-3.4084,-3.4685,-3.5391,-3.3587,-3.4031,-3.4767,-3.329,-3.3994,-3.5344,-3.6223,-3.8407,-4.0544,-4.145,-4.3291,-4.4796,-4.4908,-4.521,-4.548,-4.5611,-4.4931,-4.438,-4.4642,-4.4668,-4.4668,-4.4668,-4.4668,-4.4565,-4.4121,-4.4068,-4.365,-4.2682,-4.2473,-4.2108,-4.1533,-4.1376,-4.1063,-4.0461,-4.0409,-4.0174,-3.9625,-3.9024,-3.871,-3.871,-3.8161,-3.79,-3.79,-3.79,-3.79,-3.79,-3.79,-3.79,-3.79,-3.79,-3.79,-3.79,-3.79,-3.79,-3.79,-3.79,-3.79,-3.79,-3.79,-3.79,-3.79,0.0,0.0,0.0,0.0,0.0,0.0,0.0,0.0,-3.4737,-3.4424,-3.4397,-3.4397,-3.4397,-3.5417,0.0,0.0,-3.722,-3.79,-3.79,-3.79,-3.7508,-3.6619,-3.6279,-3.5992,-3.5757,-3.573,-3.573,-3.573,-3.6044,-3.6462,-3.7011,-3.7299,-3.7743,-3.8292,-3.8292,-3.7639,-3.6541,-3.6567,-3.607,-3.5365,-3.6227,-3.675,-3.6959,-3.6671,-3.675,-3.6854,-3.5704,0.0,0.0,0.0,0.0,0.0,0.0,0.0,-3.5495,-3.4293,-3.4344,-3.4572,-3.353,-3.3756,-3.46,-3.5965,-3.8635,-4.0974,-4.1065,-4.1822,-4.2722,-4.3265,-4.4587,-4.5477,-4.519,-4.4877,-4.4668,-4.4668,-4.4668,-4.4668,-4.4668,-4.4487,-4.4199,-4.3912,-4.3624,-4.3127,-4.229,-4.2211,-4.1925,-4.135,-4.1036,-4.0644,-4.0069,-3.9756,-3.9337,-3.8815,-3.8475,-3.8318,-3.8318,-3.8057,-3.7769,-3.7482,-3.7769,-3.79,-3.79,-3.79,-3.79,-3.79,-3.79,-3.79,-3.79,-3.79,-3.79,-3.79,-3.79,-3.79,-3.79,-3.79,-3.79,-3.79,0.0,0.0,0.0,0.0,0.0,0.0,0.0,0.0,0.0,-3.4476,-3.4476,-3.4528,-3.4397,-3.5521,-3.6227,0.0,0.0,0.0,-3.79,-3.7717,-3.7142,-3.6149,-3.6018,-3.5574,-3.4711,-3.5286,-3.56,-3.56,-3.5704,-3.6332,-3.7456,-3.7769,-3.824,-3.8867,-3.8762,-3.8083,-3.6959,-3.6462,-3.5887,-3.5338,-3.5887,-3.6462,-3.6933,-3.6227,-3.6332,-3.6698,-3.5547,-3.5443,-3.573,-3.5286,0.0,0.0,0.0,0.0,-3.5417,-3.5338,-3.4745,-3.4048,-3.3846,-3.3381,-3.3545,-3.5841,-3.8414,-4.029,-4.0195,-4.0358,-4.0775,-4.1493,-4.3406,-4.4801,-4.431,-4.4396,-4.4505,-4.4505,-4.4613,-4.4696,-4.4591,-4.4173,-4.386,-4.3651,-4.3154,-4.2657,-4.2082,-4.2004,-4.1768,-4.1193,-4.0697,-4.0148,-3.9494,-3.8972,-3.8449,-3.7926,-3.79,-3.79,-3.79,-3.79,-3.7665,-3.7168,-3.756,-3.7795,-3.79,-3.7795,-3.7795,-3.79,-3.7795,-3.7795,-3.79,-3.7795,-3.7821,-3.79,-3.79,-3.79,-3.79,-3.79,-3.79,-3.79,0.0,0.0,0.0,0.0,0.0,0.0,0.0,0.0,0.0,0.0,-3.4868,-3.4972,-3.445,-3.5887,-3.6671,-3.6149,-3.722,-3.79,-3.79,0.0,0.0,-3.6123,-3.5652,-3.5547,-3.5861,-3.6462,-3.6776,-3.6776,-3.7299,-3.8135,-3.9233,-3.8318,-3.8475,-3.9468,-3.8945,-3.8083,-3.6985,-3.6907,-3.6279,-3.5338,-3.5887,-3.6462,-3.6881,-3.5809,-3.5757,-3.607,-3.492,-3.458,-3.4607,-3.4528,-3.5182,0.0,0.0,0.0,-3.5913,-3.5443,-3.4538,-3.353,-3.2735,-3.3172,-3.4314,-3.6392,-3.7929,-3.8782,-3.832,-3.9122,-4.0054,-4.0168,-4.1428,-4.245,-4.2375,-4.3048,-4.3547,-4.3547,-4.4232,-4.4565,-4.4068,-4.3912,-4.3546,-4.2552,-4.2368,-4.2056,-4.1481,-4.1428,-4.1193,-4.0592,-4.0461,-3.9939,-3.8893,-3.8762,-3.8449,-3.7926,-3.79,-3.79,-3.79,-3.79,-3.7874,-3.7769,-3.7325,-3.7403,-3.7874,-3.7351,-3.7403,-3.7874,-3.7351,-3.7429,-3.7874,-3.7351,-3.7429,-3.79,-3.79,-3.79,-3.79,-3.79,-3.79,-3.79,0.0,0.0,0.0,0.0,0.0,0.0,0.0,0.0,0.0,0.0,0.0,-3.5652,-3.5391,-3.6332,-3.6907,-3.6645,-3.709,-3.7403,-3.7403,-3.6305,-3.5783,-3.6096,-3.526,-3.4894,-3.5129,-3.573,-3.6201,-3.6488,-3.7116,-3.8318,-4.0043,-3.9886,-4.0252,-4.101,-4.0069,-3.9233,-3.8397,-3.7403,-3.6332,-3.5391,-3.6253,-3.6567,-3.6436,-3.594,-3.5887,-3.594,-3.4816,-3.4397,-3.4397,-3.4397,-3.4946,-3.5652,-3.573,0.0,0.0,0.0,-3.4568,-3.3677,-3.2666,-3.3184,-3.4418,-3.6162,-3.7173,-3.7724,-3.777,-3.8294,-3.8741,-3.8741,-3.9245,-4.012,-4.1744,-4.2518,-4.2924,-4.2899,-4.3687,-4.4042,-4.3467,-4.3127,-4.2787,-4.229,-4.1873,-4.1585,-4.135,-4.1324,-4.1063,-4.0461,-4.0148,-3.9599,-3.8762,-3.8423,-3.8135,-3.7926,-3.79,-3.79,-3.79,-3.79,-3.79,-3.79,-3.7299,-3.7142,-3.7403,-3.7482,-3.7665,-3.7874,-3.7273,-3.7168,-3.7351,-3.675,-3.6645,-3.6907,-3.6907,-3.6907,-3.6933,-3.7273,-3.7403,-3.7456,0.0,0.0,0.0,0.0,0.0,0.0,0.0,0.0,0.0,0.0,0.0,-3.6279,-3.6123,0.0,0.0,0.0,-3.7142,-3.7168,-3.7011,-3.6201,-3.5783,-3.5887,-3.5208,-3.4685,-3.4397,-3.5286,-3.5861,-3.6096,-3.7011,-3.8606,-4.088,-4.1324,-4.216,-4.3258,-4.1742,-4.0697,-3.9939,-3.8187,-3.6933,-3.6201,-3.6619,-3.6593,-3.6305,-3.6149,-3.6096,-3.5966,-3.4972,-3.4528,-3.4397,-3.4397,-3.4789,-3.5391,-3.594,-3.641,0.0,0.0,0.0,-3.3448,-3.2465,-3.2894,-3.4005,-3.5205,-3.6002,-3.6599,-3.7104,-3.7311,-3.7448,-3.7563,-3.7494,-3.8152,-4.0523,-4.1386,-4.1743,-4.1663,-4.2423,-4.2859,-4.2239,-4.2009,-4.1774,-4.1489,-4.125,-4.1036,-4.0906,-4.088,-4.0644,-4.0017,-3.9599,-3.9128,-3.8527,-3.8109,-3.79,-3.79,-3.79,-3.79,-3.79,-3.79,-3.79,-3.79,-3.7299,-3.709,-3.7246,-3.7534,-3.7769,-3.7874,-3.7273,-3.709,-3.7168,-3.641,-3.6201,-3.6332,-3.6332,-3.6332,-3.641,-3.7011,-3.722,-3.7299,0.0,0.0,0.0,0.0,0.0,0.0,0.0,0.0,0.0,0.0,0.0,-3.675,-3.6175,-3.7168,-3.7612,-3.7063,-3.7534,-3.7612,-3.7037,-3.6959,-3.6436,-3.5391,-3.5783,0.0,-3.4424,-3.6044,-3.6645,-3.6096,-3.7795,-3.9808,-4.2133,-4.2159,-4.3651,-4.6159,-4.3885,-4.2265,-4.1115,-3.9364,-3.8579,-3.8397,-3.6802,-3.6462,-3.6907,-3.6332,-3.6096,-3.6044,-3.5469,-3.4894,-3.4397,-3.4397,-3.4789,-3.5391,-3.594,-3.6123,-3.6017,0.0,0.0,0.0,-3.1458,-3.206,-3.2983,-3.3377,-3.4188,-3.5037,-3.552,-3.6002,-3.6484,-3.6966,-3.6691,-3.6723,-3.7847,-3.8774,-3.9364,-3.9364,-4.0111,-4.0483,-3.9964,-4.0528,-4.0567,-3.9474,-4.0018,-4.0252,-3.9756,-3.9703,-3.9442,-3.8841,-3.8762,-3.8527,-3.7978,-3.7926,-3.79,-3.79,-3.79,-3.79,-3.79,-3.79,-3.79,-3.79,-3.7299,-3.7299,-3.7848,-3.7299,-3.7351,-3.7874,-3.7273,-3.7325,-3.7769,-3.6593,-3.6436,-3.6959,-3.6959,-3.6959,-3.7037,-3.7639,-3.7848,-3.7874,0.0,0.0,0.0,0.0,0.0,0.0,0.0,0.0,0.0,0.0,0.0,0.0,0.0,-3.7639,-3.7821,-3.7612,-3.7429,-3.7246,-3.7011,-3.6645,-3.641,-3.6384,-3.6201,-3.5913,-3.5495,-3.6488,-3.6907,-3.6671,-3.7691,-3.9181,-4.1063,-4.1821,-4.2918,-4.4225,-4.3389,-4.2788,-4.2291,-4.054,-3.939,-3.8684,-3.8449,-3.824,-3.8004,-3.7037,-3.6671,-3.6515,-3.5182,-3.458,-3.4314,-3.3894,-3.4127,-3.464,-3.482,-3.4863,-3.4675,-3.3903,-3.2616,-3.1456,-3.153,-3.1623,-3.1762,-3.2241,-3.281,-3.3361,-3.3522,-3.4211,-3.4877,-3.506,-3.5221,-3.5428,-3.5795,-3.7411,-3.8673,-3.8618,-3.9358,-3.9656,-3.877,-3.8881,-3.8814,-3.8041,-3.8216,-3.8537,-3.88,-3.8823,-3.8785,-3.8715,-3.871,-3.8475,-3.7926,-3.79,-3.79,-3.79,-3.79,-3.79,-3.79,-3.79,-3.79,-3.79,-3.7691,-3.7482,-3.7325,-3.7508,-3.7482,-3.7325,-3.7508,-3.7482,-3.7273,-3.6436,-3.6227,-3.6436,-3.6436,-3.6436,-3.6488,-3.7116,-3.7325,-3.7377,0.0,0.0,0.0,0.0,0.0,-3.824,-3.8449,-3.8161,-3.8031,-3.8423,0.0,0.0,0.0,0.0,-3.8109,-3.7926,-3.7534,-3.7299,-3.7299,-3.6933,-3.6802,-3.6985,-3.6802,-3.6515,-3.6123,-3.6907,-3.722,-3.7011,-3.7795,-3.8945,-4.0435,-4.1428,-4.2396,-4.3284,-4.2918,-4.3049,-4.3493,-4.1951,-4.0853,-4.0148,-3.9965,-3.9651,-3.9207,-3.8449,-3.8031,-3.7717,-3.6567,-3.5887,-3.5444,-3.4722,-3.4502,-3.4502,-3.4394,-3.4074,-3.363,-3.3265,-3.2441,-3.1599,-3.1757,-3.1575,-3.1437,-3.1941,-3.1869,-3.1915,-3.2604,-3.3017,-3.3384,-3.3889,-3.428,-3.4601,-3.4762,-3.6144,-3.7197,-3.7143,-3.7655,-3.7786,-3.7012,-3.7148,-3.7158,-3.6673,-3.6849,-3.7122,-3.7437,-3.7461,-3.7503,-3.7625,-3.7882,0.0,-3.7134,-3.7624,-3.79,-3.79,-3.79,-3.79,-3.79,-3.79,-3.79,-3.79,-3.79,-3.7691,-3.7325,-3.7717,-3.7691,-3.7325,-3.7743,-3.7665,-3.7246,-3.6645,-3.641,-3.641,-3.641,-3.641,-3.6488,-3.709,-3.7299,-3.7351,0.0,0.0,-3.9625,-3.9625,-3.9128,-3.8919,-3.952,-3.8658,-3.8344,-3.9442,0.0,0.0,0.0,0.0,0.0,-3.7978,-3.7926,-3.7926,-3.79,-3.79,-3.7639,-3.7063,-3.7586,-3.7351,-3.6175,-3.7299,-3.7612,-3.7037,-3.8135,-3.9259,-4.0383,-4.101,-4.2186,-4.3755,-4.2709,-4.3127,-4.4591,-4.3441,-4.2971,-4.284,-4.1141,-4.0461,-4.0461,-4.0409,-4.0069,-3.9599,-3.9573,-3.8867,-3.7788,-3.6875,-3.5953,-3.5077,-3.4728,-3.3832,-3.3005,-3.3529,-3.322,-3.2606,0.0,0.0,0.0,-3.236,-3.1295,-3.0721,-3.2718,-3.2397,-3.2073,-3.3614,-3.3912,-3.4096,-3.4624,-3.4716,-3.4716,-3.4739,-3.4762,-3.4785,-3.4785,-3.5442,-3.5741,-3.5191,-3.5817,-3.6088,-3.562,-3.5571,-3.5571,-3.5619,-3.6238,-3.638,-3.5619,-3.7015,-3.7828,-3.79,-3.7874,-3.7874,-3.79,-3.79,-3.79,-3.79,-3.79,-3.79,-3.79,-3.79,-3.79,-3.79,-3.79,-3.79,-3.7848,-3.7273,-3.7037,-3.7037,-3.7037,-3.7037,-3.7116,-3.7691,-3.79,-3.79,0.0,-4.0488,-4.02,-4.02,-3.973,-3.9416,-3.9573,-3.9337,-3.9102,0.0,0.0,0.0,-3.8762,-3.9102,-3.9128,-3.8527,-3.8475,-3.8318,-3.7926,-3.79,-3.7821,-3.7665,-3.7821,-3.7743,-3.7403,-3.7743,-3.7821,-3.7665,-3.7978,-3.8475,-3.9207,-4.02,-4.1141,-4.2056,-4.2552,-4.3049,-4.3415,-4.2265,-4.203,-4.2317,-4.1428,-4.1298,-4.1559,-4.0305,-3.973,-3.9494,-3.8684,-3.8423,-3.8329,-3.7143,-3.643,-3.5618,-3.3339,-3.27,-3.2747,-3.244,-3.2458,-3.2524,-3.2331,0.0,0.0,0.0,0.0,0.0,-3.0422,-3.0583,-3.0859,-3.1685,-3.2121,-3.242,-3.2581,-3.2604,-3.2718,-3.3063,-3.4073,-3.467,-3.428,-3.4416,-3.4384,-3.3897,-3.4027,-3.4304,-3.4702,-3.4727,-3.4969,0.0,-3.581,-3.581,-3.5619,-3.6142,-3.6882,-3.79,-3.7482,-3.7456,-3.79,-3.79,-3.79,-3.79,-3.79,-3.79,-3.79,-3.79,-3.79,-3.79,-3.79,-3.79,-3.79,-3.7717,-3.7665,-3.7665,-3.7665,-3.7665,-3.7665,-3.7848,-3.79,-3.79,-4.1324,-4.1036,-4.0801,-4.0801,-4.0331,-4.0043,-4.0278,-3.9913,-3.9651,0.0,0.0,0.0,-3.9468,-3.973,-3.9599,-3.8789,-3.871,-3.8475,-3.7952,-3.79,-3.79,-3.79,-3.8109,-3.824,-3.824,-3.824,-3.824,-3.824,-3.8004,-3.8187,-3.8736,-3.9651,-4.0383,-4.0958,-4.1638,-4.2082,-4.2239,-4.1324,-4.1402,-4.216,-4.1647,-4.1699,-4.1853,-4.0722,-4.0287,-4.0211,-3.9499,-3.9321,-3.9195,-3.7842,-3.6671,-3.5315,-3.2876,-3.2503,-3.2883,-3.2266,-3.2308,-3.2443,-3.2236,-3.1754,-3.1249,-3.095,0.0,0.0,-2.9802,-2.9848,-3.0055,-3.0583,-3.1042,-3.1502,-3.1779,-3.1825,-3.1917,-3.2144,-3.2948,-3.3568,-3.3683,-3.3706,-3.3591,-3.3315,-3.3292,-3.3377,-3.3564,-3.359,-3.3691,-3.3983,-3.4553,-3.5024,-3.5351,-3.4913,-3.5282,-3.669,-3.6399,-3.6534,-3.7142,-3.7403,-3.7534,-3.7534,-3.7795,-3.79,-3.79,-3.79,-3.79,-3.79,-3.79,-3.79,-3.79,-3.79,-3.79,-3.79,-3.79,-3.79,-3.79,-3.79,-3.79,-3.79,0.0,-4.1324,-4.1324,-4.1324,-4.088,-4.0697,-4.1246,-4.0461,-4.0148,0.0,-4.0801,-4.0566,-4.0697,-4.0644,-4.0148,-3.8998,-3.8893,-3.8632,-3.8031,-3.8057,-3.8083,-3.8083,-3.8475,-3.871,-3.871,-3.871,-3.8684,-3.8632,-3.8266,-3.8318,-3.8736,-3.939,-3.9965,-4.0409,-4.0488,-4.0801,-4.1272,-4.0749,-4.1115,-4.2083,-4.1849,-4.1788,-4.1783,-4.1395,-4.1238,-4.1238,-4.1127,-4.0802,-4.0196,-3.8868,-3.6831,-3.4618,-3.3135,-3.2902,-3.3109,-3.2627,-3.2535,-3.2466,-3.203,-3.1869,-3.1871,-3.1825,-3.1019,0.0,-3.0239,-2.9894,-2.9688,-3.0055,-3.0514,-3.0973,-3.1411,-3.1526,-3.1572,-3.1641,-3.1687,-3.2007,-3.2971,-3.3109,-3.3109,-3.3109,-3.3109,-3.2925,-3.2443,-3.2397,-3.2236,-3.1848,-3.3026,-3.4107,-3.49,-3.3762,-3.3671,-3.506,-3.5029,-3.534,-3.5965,-3.6512,-3.6843,-3.7011,-3.7534,-3.7848,-3.79,-3.79,-3.79,-3.79,-3.79,-3.79,-3.79,-3.79,-3.79,-3.79,-3.79,-3.79,-3.79,-3.79,-3.79,-3.79,-4.1324,-4.1324,-4.1324,-4.1324,-4.1219,-4.1167,-4.1298,-4.1115,-4.088,-4.0618,-4.0906,-4.1481,-4.2422,-4.2108,-4.135,-4.0174,-4.0095,-3.9651,-3.8632,-3.8998,-3.9285,-3.9285,-3.8919,-3.871,-3.871,-3.871,-3.8501,-3.8057,-3.8867,-3.9076,-3.8736,-3.9782,-4.0305,-4.0435,-4.0932,-4.1219,-4.1298,-4.1193,-4.1272,-4.1533,-4.1955,-4.2346,-4.2657,-4.1912,-4.1616,-4.1509,-4.0725,-4.0728,-4.0814,-3.945,-3.7305,-3.5011,-3.4,-3.3224,-3.2627,-3.2512,-3.2787,-3.3109,-3.3017,-3.2673,-3.2259,-3.1917,-3.1318,0.0,-3.0308,-3.0147,-2.9986,-2.9711,-2.9711,-2.9688,-2.9366,-2.9642,-3.0055,-3.0445,-3.0882,-3.1364,-3.1984,-3.2101,-3.2101,-3.2101,-3.2101,-3.2078,-3.1963,-3.1963,-3.1917,-3.1825,-3.2536,-3.3351,-3.4107,-3.3956,-3.4268,-3.5079,-3.4647,-3.4666,-3.5302,-3.543,-3.6006,-3.7011,-3.7116,-3.7429,-3.79,-3.79,-3.79,-3.79,-3.79,-3.79,-3.79,-3.79,-3.79,-3.79,-3.79,-3.79,-3.79,-3.79,-3.79,-3.79,-4.1324,-4.1324,-4.1324,-4.1324,-4.1324,-4.1324,-4.1324,-4.1324,-4.1402,-4.169,-4.2474,-4.3023,-4.3023,-4.2762,-4.2004,-4.054,-4.0174,-3.9651,-3.8762,-3.8998,-3.9155,-3.9155,-3.9416,-3.9442,-3.9155,-3.9416,-3.9442,-3.9155,-3.9468,-3.9599,-3.9573,-4.0148,-4.0566,-4.088,-4.1193,-4.1324,-4.1298,-4.0984,-4.1036,-4.1302,-4.1284,-4.1425,-4.1569,-4.0807,-4.0499,-4.0443,-3.9992,-3.9656,-3.9347,-3.8404,-3.7099,-3.5614,-3.4711,-3.405,-3.3545,-3.304,-3.2879,-3.2833,-3.2581,-3.2489,-3.242,-3.2239,-3.1938,0.0,0.0,-3.0606,-3.0468,-2.9963,-2.9665,-2.9481,-2.9458,-2.9274,-2.9274,-2.978,-3.0078,-3.0422,-3.0928,-3.1433,-3.1825,-3.1825,-3.1825,-3.1662,-3.141,-3.1387,-3.1413,-3.1529,-3.1529,-3.185,-3.2554,-3.2333,-3.2487,-3.3182,-3.2911,-3.3044,-3.3715,-3.424,-3.4801,-3.5466,-3.6024,-3.6641,-3.732,-3.732,-3.7505,-3.79,-3.79,-3.79,-3.79,-3.79,-3.79,-3.79,-3.79,-3.79,-3.79,-3.79,-3.79,-3.79,-4.1324,-4.1324,-4.1324,-4.1324,-4.1324,-4.1324,-4.1324,-4.1324,-4.1716,-4.2866,-4.4042,-4.4408,-4.3441,-4.3258,-4.2709,-4.1533,-4.0514,-3.9834,-3.9547,-3.9337,-3.9155,-3.905,-3.9913,-4.02,-3.9782,-4.02,-4.0357,-4.0252,-4.0043,-4.0095,-4.0409,-4.054,-4.0853,-4.1324,-4.1324,-4.1324,-4.1272,-4.0671,-4.0775,-4.1252,-4.0461,-4.0242,-4.0311,-3.9659,-3.9441,-3.9405,-3.9321,-3.8642,-3.7724,-3.7311,-3.6714,-3.5979,-3.5198,-3.4877,-3.4647,-3.3821,-3.3269,0.0,-3.2394,-3.2627,-3.2879,-3.2695,-3.2718,-3.2489,0.0,0.0,0.0,-3.0354,-2.9825,0.0,0.0,0.0,0.0,-2.955,0.0,0.0,0.0,-3.0859,0.0,-3.1456,-3.1434,-3.1203,-3.0882,-3.0859,-3.0905,-3.1074,-3.0668,-3.0668,-3.125,-3.0847,-3.0847,-3.1294,-3.1294,-3.156,-3.2108,-3.2963,-3.3591,-3.3924,-3.4834,-3.5682,-3.6474,-3.6474,-3.6828,-3.7459,-3.7459,-3.7551,-3.7644,-3.7644,-3.7762,-3.79,-3.79,-3.79,-3.79,-3.79,-3.79,-3.79,-4.1324,-4.1324,-4.1324,-4.1324,-4.1324,-4.1324,-4.1324,-4.1324,-4.1716,-4.2866,-4.4016,-4.467,-4.4485,-4.4068,-4.4121,-4.4957,-4.2631,-4.1533,-4.2474,-4.1585,-4.0775,-4.0252,-4.0357,-4.0383,-4.0331,-4.0383,-4.0174,-3.9703,-4.0644,-4.088,-4.0435,-4.0958,-4.1246,-4.1324,-4.1324,-4.1324,-4.1272,-4.0671,-4.0775,-4.12,-3.996,-4.005,-4.0757,-4.0074,-3.9827,-3.976,-3.9417,-3.8642,-3.777,-3.7724,-3.6759,-3.5588,-3.5474,-3.5152,-3.4785,-3.467,0.0,0.0,0.0,0.0,0.0,0.0,-3.3522,-3.3453,-3.2007,0.0,-3.141,-3.0422,0.0,-2.9366,0.0,0.0,0.0,0.0,0.0,0.0,-3.0216,-2.9963,-2.9917,-3.0331,-3.0009,-2.9894,-3.0262,-3.0308,-3.0285,-3.0306,-3.0847,-3.1205,-3.1294,-3.1801,-3.1845,-3.1318,-3.1294,-3.1339,-3.1427,-3.1547,-3.2364,-3.3924,-3.4047,-3.4659,-3.5715,-3.5715,-3.5763,-3.5858,-3.5858,-3.6238,-3.6828,-3.6828,-3.7248,-3.79,-3.79,-3.79,-3.79,-3.79,-3.79,-3.79,-4.1324,-4.1324,-4.1324,-4.1324,-4.1324,-4.1324,-4.1324,-4.2735,-4.3755,-4.3546,-4.5401,-4.6604,-4.6264,-4.5715,-4.5454,-4.5611,-4.3598,-4.25,-4.2997,-4.1611,-4.0984,-4.1402,-4.0898,-4.0693,-4.0908,-4.0718,-4.064,-4.0592,-4.0723,-4.0853,-4.0932,-4.0827,-4.0984,-4.1324,-4.1664,-4.1794,-4.1794,-4.1533,-4.1307,-4.1029,-4.0507,-4.024,-4.0149,-3.9718,-3.9546,-3.9488,-3.9034,-3.8413,-3.7747,-3.7448,-3.6736,-3.5956,-3.5956,0.0,0.0,-3.5221,0.0,0.0,0.0,0.0,0.0,0.0,0.0,0.0,-3.2856,0.0,-3.2053,0.0,0.0,0.0,0.0,0.0,0.0,0.0,-2.9802,-2.9802,0.0,0.0,-2.9228,-2.9734,0.0,0.0,-3.017,-3.0216,-3.0216,-3.0216,-3.0487,-3.0668,-3.0668,-3.0913,-3.0958,-3.0668,-3.0668,-3.0668,-3.0668,-3.0994,-3.1622,-3.2676,-3.296,-3.372,-3.4872,-3.4872,-3.5162,-3.5619,-3.5619,-3.5763,-3.6048,-3.6048,-3.6238,-3.6593,-3.6593,-3.7134,-3.79,-3.79,-3.79,-3.79,-4.1324,-4.1324,-4.1324,-4.1324,-4.1324,-4.1376,-4.1533,-4.3467,-4.4722,-4.4199,-4.6212,-4.7675,-4.7571,-4.7336,-4.7283,-4.7492,-4.5637,-4.4434,-4.4434,-4.2657,-4.1768,-4.2185,-4.1673,-4.1441,-4.1559,-4.1312,-4.1235,-4.1324,-4.088,-4.088,-4.1298,-4.0853,-4.0801,-4.1115,-4.1847,-4.2133,-4.1951,-4.2159,-4.1931,-4.1412,-4.094,-4.0265,-3.9592,-3.952,-3.9336,-3.9055,-3.8711,-3.8252,-3.7701,-3.7196,-3.6782,0.0,-3.6378,-3.6025,-3.5703,0.0,0.0,0.0,-3.5037,0.0,0.0,0.0,0.0,0.0,0.0,0.0,0.0,0.0,0.0,0.0,0.0,0.0,-2.9665,-3.0055,0.0,-2.9825,0.0,-2.9045,0.0,0.0,0.0,0.0,0.0,-3.0147,-3.0216,-3.0216,-3.0216,-3.0216,-3.0216,-3.0216,-3.0216,-3.0216,-3.0354,-3.0445,-3.0445,-3.095,-3.1479,-3.2009,-3.2328,-3.3085,-3.4115,-3.4115,-3.4409,-3.4945,-3.4945,-3.509,-3.5283,-3.5283,-3.5427,-3.5619,-3.5619,-3.6285,-3.7273,-3.7273,-3.7273,-3.7273,-4.1324,-4.1324,-4.1324,-4.1324,-4.1324,-4.1507,-4.2107,-4.2683,-4.3493,-4.4591,-4.5794,-4.6944,-4.8041,-4.8669,-4.9897,-5.2093,-4.9662,-4.8015,-4.8015,-4.5872,-4.3859,-4.229,-4.2683,-4.2684,-4.2211,-4.216,-4.1873,-4.1324,-4.1298,-4.1298,-4.1324,-4.1298,-4.0984,-4.0488,-4.1638,-4.1873,-4.1376,-4.1925,-4.2474,-4.2762,-4.1039,-3.9914,-3.9347,-3.975,-3.938,-3.8596,-3.8596,-3.8252,0.0,-3.7196,-3.6956,0.0,0.0,0.0,0.0,0.0,0.0,0.0,0.0,0.0,0.0,-3.5037,0.0,0.0,0.0,0.0,-3.3109,0.0,0.0,0.0,0.0,-3.1756,-3.1733,-3.1733,-3.1295,0.0,0.0,-2.9045,-2.87,-2.8723,0.0,0.0,0.0,-2.994,-3.0216,0.0,-3.0216,-3.0216,-3.0216,-3.0216,-3.0216,-3.0216,-3.0721,-3.0996,-3.0996,-3.1502,-3.2032,-3.2466,-3.2466,-3.2764,-3.3342,-3.3342,-3.3342,-3.3369,-3.3369,-3.3793,-3.4434,-3.4434,-3.4872,-3.5619,-3.5619,-3.5619,-3.5667,-3.5667,-3.5667,-3.5667,-4.1794,-4.1559,-4.1324,-4.1324,-4.1324,-4.1638,-4.2579,-4.3885,-4.5428,-4.7362,-4.8616,-5.0054,-5.1962,-5.2354,-5.2772,-5.3556,-5.204,-5.0707,-4.9949,-4.7388,-4.5637,-4.5036,-4.3532,-4.2592,-4.2413,-4.2054,-4.1593,-4.0952,-4.0789,-4.0932,-4.1298,-4.0906,-4.0827,-4.1063,-4.2213,-4.232,-4.167,-4.3177,-4.3115,-4.1802,-4.1175,-4.0668,-4.0141,-3.9686,-3.914,-3.855,-3.8183,-3.7724,0.0,-3.6691,-3.653,-3.6507,-3.6323,-3.6332,-3.6231,-3.6071,-3.614,-3.6286,0.0,0.0,-3.6117,-3.5451,0.0,0.0,0.0,0.0,0.0,0.0,0.0,0.0,0.0,-3.2032,-3.171,-3.1318,-3.1134,-3.0652,0.0,-2.9045,-2.87,-2.87,-2.916,-2.9619,0.0,0.0,0.0,0.0,-2.9917,-2.9871,-3.0193,-3.0216,-3.0216,-3.0216,-3.0399,-3.0652,-3.1019,-3.118,-3.1685,-3.2489,-3.2489,-3.2764,-3.3292,-3.3292,-3.3292,-3.3292,-3.3292,-3.3419,-3.3645,-3.3645,-3.3843,-3.4089,-3.4089,-3.4089,-3.4188,-3.5235,-3.5619,-3.5523,-4.2185,-4.203,-4.1847,-4.1664,-4.1794,-4.2239,-4.318,-4.5166,-4.7231,-4.9113,-5.0551,-5.2197,-5.4288,-5.4707,-5.4889,-5.5125,-5.4445,-5.3112,-5.0943,-4.9427,-4.7989,-4.6552,-4.5004,-4.4057,-4.3592,-4.2849,-4.2182,-4.1593,-4.1255,-4.135,-4.1899,-4.1115,-4.0958,-4.1326,-4.2138,-4.2265,-4.1952,-4.3204,-4.3068,-4.1966,-4.1377,-4.0602,-3.993,-3.9474,-3.901,-3.8481,0.0,-3.7425,-3.7196,-3.6507,-3.6392,-3.6507,-3.6323,-3.6332,-3.6286,-3.6048,-3.6117,-3.6286,-3.6048,-3.614,0.0,-3.5634,-3.529,0.0,-3.4165,0.0,-3.4096,0.0,0.0,0.0,0.0,0.0,-3.1869,-3.1364,-3.1134,-3.0583,0.0,-2.8907,-2.87,-2.87,-2.8999,-2.9343,0.0,0.0,-2.9343,-2.9642,-2.9573,-2.9642,0.0,-3.0124,-3.0216,-3.0216,-3.0399,-3.0744,-3.1272,-3.1456,-3.1961,-3.2764,-3.2764,-3.2948,-3.3292,-3.3292,-3.3292,-3.3292,-3.3292,-3.3292,-3.3292,-3.3292,-3.3292,-3.3292,-3.3292,-3.3292,-3.3419,-3.4433,-3.4751,-3.4702,-4.2368,-4.2683,-4.2918,-4.2395,-4.2709,-4.3284,-4.3912,-4.6369,-4.8643,-4.9897,-5.157,-5.3295,-5.5072,-5.5726,-5.6275,-5.685,-5.6876,-5.5229,-5.1335,-5.2014,-5.0838,-4.6891,-4.7153,-4.6782,-4.5578,-4.4487,-4.3598,-4.2892,-4.237,-4.237,-4.2892,-4.1745,-4.1224,-4.1302,-4.1618,-4.1849,-4.2008,-4.2043,-4.2519,-4.3103,-4.1411,-3.9883,-3.8665,-3.9101,-3.901,-3.8481,-3.7471,-3.7402,-3.7632,-3.6645,-3.6645,-3.6966,-3.6438,-3.63,-3.6254,-3.5749,-3.5933,-3.6208,-3.5749,-3.5956,-3.6162,-3.5703,-3.5566,0.0,0.0,0.0,-3.4509,0.0,0.0,0.0,0.0,0.0,0.0,-3.1894,-3.1318,-3.0468,-2.8976,-2.8769,-2.8769,-2.8769,-2.8746,-2.8746,-2.8769,-2.8723,-2.8723,-2.8769,-2.9183,-2.9458,0.0,-2.994,-3.0193,-3.0216,-3.0698,-3.1226,-3.1802,-3.2213,-3.2741,-3.3292,-3.3292,-3.3292,-3.3292,-3.3292,-3.3292,-3.3292,-3.3292,-3.3292,-3.3292,-3.3292,-3.3292,-3.3292,-3.3292,-3.3292,-3.3292,-3.3292,-3.3292,-3.3292,-4.284,-4.3598,-4.4095,-4.3546,-4.3546,-4.4147,-4.5584,-4.7153,-4.9218,-5.2119,-5.3635,-5.5255,-5.7399,-5.7765,-5.7895,-5.8052,-5.8078,-5.7268,-5.5386,-5.4314,-5.272,-5.0394,-4.8799,-4.7126,-4.5278,-4.4344,-4.3194,-4.1663,-4.0971,-4.1105,-4.2025,-4.0901,-4.0645,-4.1054,-4.2163,-4.1402,-3.9458,-4.1958,-4.2375,-4.1353,-4.0918,-4.0094,-3.9101,0.0,-3.8918,-3.9033,-3.8413,-3.8022,-3.7701,-3.7058,-3.7173,-3.7448,-3.6553,-3.6782,-3.7311,-3.6805,-3.6736,-3.6897,-3.715,-3.6736,-3.6323,-3.6576,-3.6071,-3.5451,0.0,0.0,0.0,0.0,0.0,0.0,0.0,0.0,0.0,-3.1963,-3.1019,-3.0285,-2.9894,-2.9825,-2.9825,-2.9825,-2.9504,-2.9435,-2.978,-2.9137,-2.9022,-2.978,-2.893,-2.8861,-2.9963,0.0,-2.9848,-3.0193,-3.0354,-3.0859,-3.1802,-3.194,-3.2397,-3.3292,-3.3292,-3.3292,-3.3292,-3.3292,-3.3292,-3.3292,-3.3292,-3.3292,-3.3292,-3.3292,-3.3292,-3.3292,-3.3292,-3.3292,-3.3292,-3.3292,-3.3292,-3.3292,-4.3115,-4.4277,-4.515,-4.5128,-4.5515,-4.6223,-4.7435,-4.8355,-4.9897,-5.2642,-5.4236,-5.5595,-5.6876,-5.7921,-5.8523,-5.8523,-5.8523,-5.7817,-5.617,-5.5621,-5.4341,-5.2093,-5.0498,-4.8771,-4.6901,-4.5675,0.0,-4.2734,-4.1821,-4.1827,-4.2597,-4.1286,-4.0926,-4.1492,-4.211,-4.166,-4.0447,-4.2113,-4.198,-4.0687,-4.0281,-3.9639,0.0,-3.8918,-3.8941,-3.8987,-3.8918,-3.8573,-3.8045,-3.754,-3.7563,-3.7678,-3.7104,-3.7333,-3.7678,-3.7196,-3.7196,-3.7333,-3.7173,-3.7035,-3.6943,-3.7012,-3.6544,-3.6117,-3.591,-3.5313,-3.4647,0.0,-3.3843,-3.3614,0.0,0.0,0.0,0.0,0.0,0.0,0.0,0.0,-3.0399,-2.9963,-2.9848,-2.9917,-3.0193,-2.9114,-2.854,-2.8841,-2.8333,-2.8448,-2.9504,0.0,-2.9711,-3.0193,-3.0445,-3.095,-3.1802,-3.2032,-3.2489,-3.3292,-3.3292,-3.3292,-3.3292,-3.3292,-3.3292,-3.3292,-3.3292,-3.3292,-3.3292,-3.3292,-3.3292,-3.3292,-3.3292,-3.3292,-3.3292,-3.3292,-3.3292,-3.3292,-4.3274,-4.4673,-4.5885,-4.6467,-4.7582,-4.8738,-4.9568,-5.0185,-5.1152,-5.2746,-5.4471,-5.5543,-5.5543,-5.732,-5.8523,-5.8523,-5.8523,-5.766,-5.5674,-5.6327,-5.5647,-5.306,-5.2145,-5.089,-4.9113,-4.7362,-4.5816,-4.4375,-4.3309,-4.3049,-4.3569,-4.1929,-4.146,-4.2033,-4.1824,-4.2158,-4.2761,-4.2088,-4.1412,-4.0683,-3.9849,-3.9231,-3.8885,-3.9206,-3.9055,-3.8734,-3.9147,-3.9033,-3.8596,-3.8068,-3.793,-3.7953,-3.7839,-3.7885,-3.7885,-3.7379,-3.754,-3.7724,-3.6897,-3.7219,-3.7701,-3.7333,-3.7071,-3.692,-3.6461,-3.5611,-3.4739,-3.4211,-3.3775,-3.3453,-3.3315,0.0,0.0,0.0,0.0,0.0,0.0,0.0,0.0,0.0,-3.0078,0.0,-3.0147,-2.8953,-2.8035,-2.7603,-2.7851,-2.8241,0.0,0.0,-2.9665,-3.0308,-3.0767,-3.1295,-3.1894,-3.2282,-3.2764,-3.3292,-3.3292,-3.3292,-3.3292,-3.3292,-3.3292,-3.3292,-3.3292,-3.3292,-3.3292,-3.3292,-3.3292,-3.3292,-3.3292,-3.3292,-3.3292,-3.3292,-3.3292,-3.3292,-4.3481,-4.4502,-4.5459,-4.5944,-4.7744,-4.9924,-5.2305,-5.353,-5.4445,-5.5203,-5.6824,-5.7921,-5.7921,-5.8261,-5.8523,-5.8523,-5.8523,-5.834,-5.7948,-5.7216,-5.6353,-5.536,-5.34,-5.1309,-4.9139,-4.7362,-4.5304,0.0,-4.1819,-4.1537,-4.2072,-4.0848,-4.0619,-4.1182,-4.1828,-4.2034,-4.1864,-4.1047,0.0,-4.1062,-4.0612,-4.0408,-4.0279,-3.9556,-3.9262,-3.9193,-3.9285,-3.9239,-3.9101,-3.8619,-3.8711,-3.8895,-3.8045,-3.8367,-3.8941,-3.8459,-3.839,-3.8504,-3.8711,-3.8298,-3.7862,-3.8229,-3.7678,-3.6956,-3.692,-3.6117,-3.5244,-3.4762,-3.4601,-3.428,-3.343,0.0,0.0,0.0,0.0,0.0,0.0,0.0,0.0,0.0,0.0,-3.0537,-2.9711,-2.9389,-2.9366,-2.9665,-2.8632,0.0,0.0,0.0,-2.9458,0.0,-3.0973,-3.1456,0.0,0.0,-3.2764,-3.3292,-3.3292,-3.3292,-3.3292,-3.3292,-3.3292,-3.3292,-3.3292,-3.3292,-3.3292,-3.3292,-3.3292,-3.3292,-3.3292,-3.3292,-3.3292,-3.3292,-3.3292,-3.3292,-4.5379,-4.5749,-4.6625,-4.828,-4.9492,-5.1119,-5.3608,-5.5595,-5.6536,-5.5621,-5.6223,-5.6745,-5.6745,-5.7791,-5.8523,-5.8523,-5.8235,-5.8078,-5.8078,-5.6981,-5.6223,-5.5909,-5.4027,-5.2014,-5.0002,-4.825,-4.633,-4.4094,0.0,-4.2085,-4.2342,-4.1235,-4.0619,-4.0515,-4.1209,-4.1772,0.0,0.0,-4.1788,-4.2227,-4.1142,-4.0687,-4.0629,-3.9638,-3.9308,-3.9308,-3.9308,-3.9308,-3.9262,-3.9033,-3.9101,-3.9216,-3.8734,-3.8918,-3.9216,-3.8734,-3.8757,-3.8895,-3.8596,-3.855,-3.8504,-3.8229,-3.7793,-3.7356,-3.7048,-3.62,-3.5451,-3.5221,-3.4762,-3.4165,-3.343,-3.3063,0.0,0.0,0.0,0.0,0.0,0.0,-3.1869,0.0,0.0,0.0,0.0,-2.9871,-2.9757,-2.9458,-2.8746,0.0,0.0,0.0,-2.9573,0.0,0.0,0.0,-3.2099,0.0,-3.3017,-3.3292,-3.3292,-3.3292,-3.3292,-3.3292,-3.3292,-3.3292,-3.3292,-3.3292,-3.3292,-3.3292,-3.3292,-3.3292,-3.3292,-3.3292,-3.3292,-3.3292,-3.3292,-3.3292,-4.6998,-4.7066,-4.7967,-5.0684,-5.1574,-5.2541,-5.4526,-5.6884,-5.7869,-5.6066,-5.583,-5.583,-5.583,-5.7425,-5.8523,-5.8523,-5.8,-5.773,-5.773,-5.6562,-5.5857,-5.5726,-5.4236,-5.2511,-5.0629,-4.9008,-4.7283,0.0,0.0,-4.2971,-4.2554,-4.1797,-4.1076,-4.0364,-4.108,0.0,0.0,0.0,-4.2961,-4.3063,-4.159,-4.086,-4.0629,-3.9638,-3.9308,-3.9308,-3.9308,-3.9308,-3.9308,-3.9308,-3.9308,-3.9308,-3.9308,-3.9308,-3.9239,-3.8849,-3.901,-3.9124,-3.8321,-3.8688,-3.9078,-3.8183,-3.7862,-3.7655,-3.7094,-3.6323,-3.5657,-3.5543,-3.4716,-3.3912,-3.366,-3.343,0.0,0.0,0.0,0.0,0.0,0.0,-3.2282,0.0,0.0,0.0,-3.0285,-3.0216,-2.9894,-2.9091,0.0,0.0,-2.9619,0.0,0.0,0.0,0.0,-3.18,-3.1963,0.0,-3.3292,-3.3292,-3.3292,-3.3292,-3.3292,-3.3292,-3.3292,-3.3292,-3.3292,-3.3292,-3.3292,-3.3292,-3.3292,-3.3292,-3.3292,-3.3292,-3.3292,-3.3407,-3.343,-3.343,-4.6812,-4.749,-4.8664,-5.1327,-5.3131,-5.4551,-5.5611,-5.7329,-5.8444,-5.8235,-5.8183,-5.8183,-5.8183,-5.8392,-5.8523,-5.8523,-5.8,-5.773,-5.773,-5.6562,-5.57,-5.5203,-5.4027,-5.2328,-5.0028,-4.8799,-4.7074,0.0,0.0,-4.2864,-4.1102,-4.1801,-4.177,-4.12,0.0,0.0,0.0,-4.331,-4.3297,-4.2536,-4.2096,-4.1411,-4.0629,-3.9638,-3.9308,-3.9308,-3.9308,-3.9308,-3.9308,-3.9308,-3.9308,-3.9308,-3.9308,-3.9308,-3.9285,-3.9239,-3.9262,-3.9285,-3.9193,-3.9239,-3.917,-3.8642,-3.8137,-3.7655,-3.7094,-3.6599,-3.6071,-3.5611,-3.4716,-3.4142,-3.4578,-3.3912,-3.3292,0.0,0.0,0.0,0.0,0.0,-3.2833,-3.1871,0.0,0.0,-3.0308,-3.0216,-3.017,-3.0078,-2.9665,0.0,0.0,0.0,0.0,-3.0905,-3.1456,-3.1961,-3.242,-3.2994,-3.3292,-3.3292,-3.3292,-3.3292,-3.3292,-3.3292,-3.3292,-3.3292,-3.3292,-3.3292,-3.3292,-3.3292,-3.3292,-3.3292,-3.3292,-3.3292,-3.3338,-3.3775,-3.3935,-3.3935,-5.0936,-5.0886,-5.1682,-5.437,-5.4655,-5.515,-5.7181,-5.8052,-5.8523,-5.8523,-5.8523,-5.8523,-5.8523,-5.8523,-5.8366,-5.8026,-5.7477,-5.7007,-5.6641,-5.5857,-5.5177,-5.4576,-5.3818,-5.2459,-5.0472,-4.8956,-4.7388,0.0,0.0,0.0,0.0,-4.1872,-4.1826,0.0,0.0,-4.234,-4.2521,-4.3464,-4.3854,-4.3787,-4.3113,-4.2319,-4.1411,-4.0513,-3.9814,-3.9308,-3.9308,-3.9308,-3.9308,-3.9308,-3.9308,-3.9308,-3.9308,-3.9308,-3.9308,-3.9308,-3.9101,-3.8872,-3.8872,-3.8642,-3.8275,-3.7793,-3.7494,-3.7196,-3.6691,-3.6415,-3.6263,-3.6002,-3.5405,-3.49,-3.4808,-3.4211,-3.3706,-3.3706,0.0,0.0,0.0,0.0,0.0,-3.1869,0.0,-3.1341,-3.0308,-3.0216,-3.0216,0.0,0.0,0.0,0.0,0.0,0.0,-3.0996,0.0,-3.1984,-3.2466,-3.3017,-3.3292,-3.3292,-3.3292,-3.3292,-3.3292,-3.3292,-3.3292,-3.3292,-3.3292,-3.3292,-3.3292,-3.3292,-3.3292,-3.3292,-3.3292,-3.3292,-3.3315,-3.3499,-3.3752,-3.4004,-5.4039,-5.3716,-5.4287,-5.6825,-5.64,-5.632,-5.8172,-5.8523,-5.8523,-5.8523,-5.8523,-5.8523,-5.8523,-5.8366,-5.8104,-5.7756,-5.6981,-5.6353,-5.5935,-5.5229,-5.4576,-5.4001,-5.3426,0.0,-5.0551,-4.9165,-4.7806,-4.6473,-4.4432,0.0,0.0,0.0,0.0,0.0,-4.2516,-4.2772,-4.3003,-4.3828,-4.4194,-4.4232,-4.3326,-4.2432,-4.1501,-4.0605,-3.9873,-3.9308,-3.9308,-3.9308,-3.9308,-3.9308,-3.9308,-3.9308,-3.9308,-3.9308,-3.9308,-3.9308,-3.8964,-3.8596,-3.8596,-3.8206,-3.7655,-3.7094,-3.6979,-3.6897,-3.6392,-3.6332,-3.6332,-3.6332,-3.5864,-3.5428,-3.5083,-3.4463,-3.4004,-3.4004,0.0,0.0,0.0,-3.3292,0.0,-3.2053,-3.1961,-3.1547,-3.0537,-3.0445,-3.0376,-3.0239,0.0,0.0,0.0,0.0,0.0,0.0,0.0,0.0,-3.2489,-3.3017,-3.3292,-3.3292,-3.3292,-3.3292,-3.3292,-3.3292,-3.3292,-3.3292,-3.3292,-3.3292,-3.3292,-3.3292,-3.3292,-3.3292,-3.3292,-3.3292,-3.3315,-3.3614,-3.3935,-3.4257,-5.4778,-5.5191,-5.5829,-5.8075,-5.8497,-5.8497,-5.8523,-5.8523,-5.8523,-5.8523,-5.8523,-5.8523,-5.8523,-5.8,-5.773,-5.773,-5.6588,-5.5909,-5.5909,-5.4837,-5.3975,0.0,0.0,-5.1675,-4.9949,-4.9348,-4.8224,-4.6473,0.0,0.0,-4.2624,0.0,-4.2749,-4.3023,-4.4146,-4.4408,-4.3912,-4.4487,-4.4232,-4.3326,-4.2407,-4.1525,-4.0629,-3.9638,-3.9308,-3.9308,-3.9308,-3.9308,-3.9308,-3.9308,-3.9308,-3.9308,-3.9308,-3.9308,-3.9308,-3.9308,-3.8964,-3.8596,-3.8596,-3.8206,-3.7655,-3.7094,-3.6979,-3.6897,-3.6392,-3.6332,-3.6332,-3.6332,-3.5864,-3.552,-3.552,-3.467,-3.4004,-3.4004,0.0,0.0,0.0,-3.3292,0.0,-3.2535,-3.2466,-3.2099,-3.1111,-3.0996,-3.079,0.0,0.0,0.0,0.0,0.0,0.0,-3.1019,-3.1961,0.0,-3.2489,-3.3017,-3.3292,-3.3292,-3.3292,-3.3292,-3.3292,-3.3292,-3.3292,-3.3292,-3.3292,-3.3292,-3.3292,-3.3292,-3.3292,-3.3292,-3.3292,-3.3292,-3.3407,-3.4418,-3.4785,-3.4854,-5.7306,-5.7455,-5.7655,-5.8373,-5.8523,-5.8523,-5.8523,-5.8523,-5.8523,-5.8523,-5.8523,-5.8523,-5.8523,-5.8,-5.7503,0.0,-5.6353,-5.5752,0.0,-5.4628,-5.3949,-5.3426,-5.2825,-5.1675,-4.9923,-4.9348,-4.8433,-4.7074,0.0,0.0,0.0,-4.3127,-4.3544,-4.4146,-4.4565,-4.4617,-4.446,-4.4643,-4.4177,-4.3381,-4.3048,-4.2037,-4.0687,-4.0397,-3.9873,-3.9308,-3.9308,-3.9308,-3.9308,-3.9308,-3.9308,-3.9308,-3.9308,-3.9308,-3.9308,-3.9308,-3.8964,-3.8504,-3.8137,-3.7678,-3.715,-3.6645,-3.6507,-3.6461,-3.63,-3.6332,-3.6332,-3.6332,-3.614,-3.6025,-3.6025,-3.5474,-3.4923,-3.4601,-3.4119,0.0,-3.3338,0.0,-3.3086,-3.2558,-3.2489,-3.2236,-3.1593,-3.1226,0.0,0.0,0.0,0.0,0.0,0.0,0.0,0.0,-3.2328,0.0,-3.3017,-3.3201,-3.3292,-3.3292,-3.3292,-3.3292,-3.3292,-3.3292,-3.3292,-3.3292,-3.3292,-3.3292,-3.3292,-3.3292,-3.3292,-3.3292,-3.3292,-3.3292,-3.3361,-3.4027,-3.4486,-3.4877,-5.8523,-5.8523,-5.8523,-5.8523,-5.8523,-5.8523,-5.8523,-5.8523,-5.8523,-5.8523,-5.8523,-5.8418,-5.8209,-5.7686,0.0,-5.685,-5.6066,-5.5465,-5.5125,-5.4341,-5.3739,-5.34,-5.2589,-5.1439,-4.9923,-4.9557,0.0,-4.7278,-4.5623,-4.4468,-4.3903,-4.3903,-4.4177,-4.4668,-4.4668,-4.4668,-4.4668,-4.4668,-4.4396,-4.3848,-4.3159,-4.2206,-4.1124,-4.0455,-3.9814,-3.9308,-3.9308,-3.9308,-3.9308,-3.9308,-3.9308,-3.9308,-3.9308,-3.9308,-3.9308,-3.9308,-3.8964,-3.8459,-3.793,-3.7425,-3.692,-3.6392,-3.6332,-3.6332,-3.6332,-3.6332,-3.6332,-3.6332,-3.6332,-3.6332,-3.6332,-3.5864,-3.5359,-3.4877,-3.4349,-3.3843,-3.3361,0.0,-3.3155,0.0,0.0,-3.2581,0.0,-3.1754,-3.1502,0.0,0.0,0.0,0.0,0.0,-3.1662,-3.2466,-3.2673,-3.2948,-3.3292,-3.3292,-3.3292,-3.3292,-3.3292,-3.3292,-3.3292,-3.3292,-3.3292,-3.3292,-3.3292,-3.3292,-3.3292,-3.3292,-3.3292,-3.3292,-3.3292,-3.3292,-3.3361,-3.405,-3.4509,-3.49,-5.8523,-5.8523,-5.8523,-5.8523,-5.8523,-5.8523,-5.8523,-5.8523,-5.8523,-5.8523,-5.8523,-5.8287,-5.7782,-5.7137,-5.6798,-5.6745,0.0,0.0,-5.5099,-5.4027,-5.34,-5.34,-5.225,-5.1073,-4.9976,-4.9897,-4.9035,-4.7226,-4.6212,-4.5294,-4.4668,-4.4668,-4.4668,-4.4668,-4.4668,-4.4668,-4.4668,-4.4668,-4.4668,-4.445,-4.2743,-4.2069,-4.1785,-4.0048,-3.9426,-3.9367,-3.9308,-3.9308,-3.9308,-3.9308,-3.9308,-3.9308,-3.9308,-3.9308,-3.9308,-3.9308,-3.8964,-3.8481,-3.7976,-3.7448,-3.692,-3.6438,-3.63,-3.6332,-3.6332,-3.6332,-3.6332,-3.6332,-3.6332,-3.6332,-3.6332,-3.5864,-3.5359,-3.4877,-3.4349,-3.3843,-3.3361,-3.3292,-3.3292,0.0,0.0,0.0,-3.2581,-3.2512,-3.2305,0.0,0.0,0.0,0.0,0.0,-3.2101,-3.2535,-3.3017,-3.3292,-3.3292,-3.3292,-3.3292,-3.3292,-3.3292,-3.3292,-3.3292,-3.3292,-3.3292,-3.3292,-3.3292,-3.3292,-3.3292,-3.3292,-3.3292,-3.3292,-3.3292,-3.3292,-3.3407,-3.4418,-3.4808,-3.4946,-5.8523,-5.8523,-5.8523,-5.8523,-5.8523,-5.8523,-5.8523,-5.8523,-5.8523,-5.8523,-5.8523,-5.8287,-5.7782,-5.7137,-5.6615,-5.617,-5.5491,-5.5099,-5.5099,-5.4027,-5.34,-5.34,-5.225,-5.1282,-5.0603,-5.0132,-4.8826,-4.6682,-4.6395,-4.5741,-4.4668,-4.4668,-4.4668,-4.4668,-4.4668,-4.4668,-4.4668,-4.4668,-4.4341,-4.3657,-4.3215,-4.2656,-4.1899,-4.0779,-4.0397,-4.0281,-3.9544,-3.9308,-3.9308,-3.9308,-3.9308,-3.9308,-3.9308,-3.9308,-3.9308,-3.9308,-3.8964,-3.855,-3.8436,-3.7724,-3.6956,-3.6874,-3.6553,-3.6332,-3.6332,-3.6332,-3.6332,-3.6332,-3.6332,-3.6332,-3.6332,-3.5864,-3.5359,-3.4877,-3.4349,-3.3843,-3.3361,-3.3292,-3.3292,0.0,-3.3292,-3.3224,-3.3109,-3.2718,-3.2443,0.0,0.0,-3.2032,-3.2466,-3.2374,-3.2558,-3.3086,-3.3224,-3.3292,-3.3292,-3.3292,-3.3292,-3.3292,-3.3292,-3.3292,-3.3292,-3.3292,-3.3292,-3.3292,-3.3292,-3.3292,-3.3292,-3.3292,-3.3292,-3.3292,-3.3292,-3.3292,-3.3407,-3.4418,-3.4808,-3.4946,-5.8523,-5.8523,-5.8523,-5.8523,-5.8523,-5.8523,-5.8523,-5.8523,-5.8523,-5.8523,-5.8523,-5.8287,-5.7782,-5.7137,-5.6562,-5.5961,-5.5412,-5.4994,-5.4707,-5.387,-5.3269,-5.3008,-5.2093,-5.1204,-5.0394,-5.0054,-4.8904,-4.6865,-4.6604,-4.6003,-4.514,-4.4853,-4.4668,-4.4668,-4.4668,-4.4668,-4.4668,-4.4668,-4.445,-4.3958,-4.3547,-4.2824,-4.1899,-4.1009,-4.0455,-3.9989,-3.9485,-3.9308,-3.9308,-3.9308,-3.9308,-3.9308,-3.9308,-3.9308,-3.9308,-3.9308,-3.8964,-3.8527,-3.8298,-3.7632,-3.6933,-3.6736,-3.6484,-3.6332,-3.6332,-3.6332,-3.6332,-3.6332,-3.6332,-3.6332,-3.6332,-3.6048,-3.5634,-3.4923,-3.4555,-3.4119,-3.3384,-3.3292,-3.3292,-3.3292,-3.3292,-3.3292,-3.3292,-3.3017,-3.2856,-3.2856,-3.2604,0.0,-3.2833,-3.2856,-3.2994,-3.3269,-3.3292,-3.3292,-3.3292,-3.3292,-3.3292,-3.3292,-3.3292,-3.3292,-3.3292,-3.3292,-3.3292,-3.3292,-3.3292,-3.3292,-3.3292,-3.3292,-3.3292,-3.3292,-3.3292,-3.343,-3.3706,-3.4509,-3.4946,-3.5244,-5.8523,-5.8523,-5.8523,-5.8523,-5.8523,-5.8523,-5.8523,-5.8523,-5.847,-5.8392,-5.8392,-5.8131,-5.7477,-5.6954,-5.6432,-5.583,-5.536,-5.4837,-5.4236,-5.3609,-5.3034,-5.2511,-5.191,-5.1152,-5.0159,-4.9976,-4.9061,-4.7278,-4.6839,-4.6264,-4.5555,-4.5114,-4.4772,-4.4668,-4.4668,-4.4668,-4.4668,-4.4668,-4.4668,-4.4613,-4.3903,-4.3103,-4.2294,-4.1296,-4.0397,-3.9638,-3.9426,-3.9308,-3.9308,-3.9308,-3.9308,-3.9308,-3.9308,-3.9308,-3.9308,-3.9308,-3.8964,-3.8504,-3.8114,-3.7586,-3.7012,-3.6415,-3.6332,-3.6332,-3.6332,-3.6332,-3.6332,-3.6332,-3.6332,-3.6332,-3.6332,-3.6208,-3.5864,-3.4946,-3.4739,-3.4349,-3.3407,0.0,-3.3292,-3.3292,-3.3292,-3.3292,-3.3292,-3.3292,-3.3292,-3.3292,-3.3292,-3.3292,-3.3292,-3.3292,-3.3292,-3.3292,-3.3292,-3.3292,-3.3292,-3.3292,-3.3292,-3.3292,-3.3292,-3.3292,-3.3292,-3.3292,-3.3292,-3.3292,-3.3292,-3.3292,-3.3292,-3.3292,-3.3292,-3.3292,-3.3292,-3.3568,-3.4073,-3.4601,-3.5106,-3.5588,-5.8523,-5.8523,-5.8523,-5.8523,-5.8523,-5.8523,-5.8523,-5.8523,-5.834,-5.7843,-5.7791,-5.7373,-5.6301,-5.6092,-5.583,-5.5282,-5.5151,-5.4837,-5.4236,-5.3217,-5.2589,-5.2485,-5.191,-5.1518,-5.1335,-5.0394,-4.9061,-4.7278,-4.7257,-4.6656,-4.5581,-4.5477,-4.5218,-4.4668,-4.4668,-4.4668,-4.4668,-4.4668,-4.4668,-4.4668,-4.4559,-4.4396,-4.4097,-4.2407,-4.1728,-4.1386,-3.9873,-3.9308,-3.9308,-3.9308,-3.9308,-3.9308,-3.9308,-3.9308,-3.9308,-3.9308,-3.8964,-3.8665,-3.8987,-3.839,-3.7448,-3.6507,-3.6332,-3.6332,-3.6332,-3.6332,-3.6332,-3.6332,-3.6332,-3.6332,-3.6332,-3.5933,-3.5451,-3.49,-3.4418,-3.3935,-3.3361,0.0,-3.3292,-3.3292,-3.3292,-3.3292,-3.3292,-3.3292,-3.3292,-3.3292,-3.3292,-3.3292,-3.3292,-3.3292,-3.3292,-3.3292,-3.3292,-3.3292,-3.3292,-3.3292,-3.3292,-3.3292,-3.3292,-3.3292,-3.3292,-3.3292,-3.3292,-3.3292,-3.3292,-3.3292,-3.3292,-3.3292,-3.3292,-3.3292,-3.3292,-3.3568,-3.4073,-3.4601,-3.5106,-3.5588,-5.8523,-5.8523,-5.8523,-5.8523,-5.8523,-5.8523,-5.8523,-5.8523,-5.8314,-5.7739,-5.773,-5.732,-5.6484,-5.6092,-5.5804,-5.5569,-5.4968,-5.4367,-5.3818,-5.3269,-5.2694,-5.204,-5.1753,-5.1309,-5.0681,-4.9557,-4.859,-4.778,-4.7492,-4.7017,-4.6495,-4.6238,-4.5767,-4.5164,-4.5164,-4.4981,-4.4668,-4.4668,-4.4668,-4.4668,-4.4668,-4.4396,-4.3823,-4.2519,-4.1696,-4.1124,-3.9755,-3.9308,-3.9308,-3.9308,-3.9308,-3.9308,-3.9308,-3.9308,-3.9308,-3.9308,-3.8964,-3.8573,-3.8504,-3.7953,-3.7333,-3.7127,-3.6668,-3.6401,-3.6622,-3.6461,-3.6332,-3.6332,-3.6332,-3.6332,-3.6332,-3.6094,-3.568,-3.4923,-3.4601,-3.4165,-3.3384,-3.3292,-3.3292,-3.3292,-3.3292,-3.3292,-3.3292,-3.3292,-3.3292,-3.3292,-3.3292,-3.3292,-3.3292,-3.3292,-3.3292,-3.3292,-3.3292,-3.3292,-3.3292,-3.3292,-3.3292,-3.3292,-3.3292,-3.3292,-3.3292,-3.3292,-3.3292,-3.3292,-3.3292,-3.3292,-3.3292,-3.3292,-3.3292,-3.3315,-3.3568,-3.3981,-3.4486,-3.4992,-3.5497,-3.5956,-5.8523,-5.8523,-5.8523,-5.8523,-5.8523,-5.8523,-5.8523,-5.8523,-5.8314,-5.7739,-5.773,-5.7399,-5.6667,-5.6196,-5.5857,-5.5726,-5.4916,-5.4184,-5.3609,-5.3478,-5.2851,-5.1648,-5.1596,-5.1073,-4.9923,-4.9035,-4.846,-4.8172,-4.7754,-4.7466,-4.7278,-4.6891,-4.6369,-4.582,-4.582,-4.5506,-4.4931,-4.4931,-4.4853,-4.4668,-4.4668,-4.4287,-4.3602,-4.2712,-4.1785,-4.0894,-3.9931,-3.9485,-3.9308,-3.9308,-3.9308,-3.9308,-3.9308,-3.9308,-3.9308,-3.9308,-3.9033,-3.8619,-3.7953,-3.7586,-3.7448,-3.7724,-3.7104,-3.6553,-3.6943,-3.6645,-3.6332,-3.6332,-3.6332,-3.6332,-3.6332,-3.6332,-3.5979,-3.5106,0.0,-3.4647,-3.3752,-3.3522,-3.3453,-3.3453,-3.3361,-3.3292,-3.3292,-3.3292,-3.3292,-3.3292,-3.3292,-3.3292,-3.3292,-3.3292,-3.3292,-3.3292,-3.3292,-3.3292,-3.3292,-3.3292,-3.3292,-3.3292,-3.3292,-3.3292,-3.3292,-3.3292,-3.3292,-3.3292,-3.3292,-3.3292,-3.3292,-3.3292,-3.3292,-3.3338,-3.3821,-3.4326,-3.4854,-3.5336,-3.5841,-3.6332,-5.8523,-5.8523,-5.8523,-5.8523,-5.8523,-5.8523,-5.8523,-5.8523,-5.8314,-5.7739,-5.773,-5.7216,-5.6092,-5.5935,-5.57,-5.5203,-5.5072,-5.4785,-5.4184,-5.3687,-5.2851,-5.1648,-5.1596,-5.1073,-4.9923,-4.9819,-4.9244,-4.8172,-4.8146,-4.7858,-4.7278,-4.7226,-4.697,-4.6421,-4.6421,-4.6107,-4.5503,-4.5503,-4.519,-4.4668,-4.4668,-4.4668,-4.4505,-4.3602,-4.2712,-4.1785,-4.0894,-4.0048,-3.9308,-3.9308,-3.9308,-3.9308,-3.9308,-3.9308,-3.9308,-3.9308,-3.9285,-3.9033,-3.8045,-3.8114,-3.8367,-3.7907,-3.7379,-3.6933,-3.6979,-3.6645,-3.6332,-3.6332,-3.6332,-3.6332,-3.6332,-3.6332,-3.6094,-3.5543,0.0,0.0,-3.4762,-3.4257,-3.3958,-3.3958,-3.3545,-3.3292,-3.3292,-3.3292,-3.3292,-3.3292,-3.3292,-3.3292,-3.3292,-3.3292,-3.3292,-3.3292,-3.3292,-3.3292,-3.3292,-3.3292,-3.3292,-3.3292,-3.3292,-3.3292,-3.3292,-3.3292,-3.3292,-3.3292,-3.3292,-3.3292,-3.3292,-3.3292,-3.3292,-3.3338,-3.3821,-3.4326,-3.4854,-3.5336,-3.5841,-3.6332,-5.8523,-5.8523,-5.8523,-5.8523,-5.8523,-5.8392,-5.8026,-5.7974,-5.7634,-5.6693,-5.6562,-5.6275,-5.5491,-5.5412,-5.5334,-5.5125,-5.5099,-5.4837,-5.4236,-5.4001,-5.3217,-5.1675,-5.1282,-5.089,-5.0446,-4.9766,-4.9165,-4.8747,-4.8355,-4.8068,-4.7858,-4.7858,-4.7545,-4.7022,-4.7022,-4.6682,-4.6133,-4.5767,-4.5506,-4.5245,-4.4824,-4.4668,-4.4613,-4.3738,-4.2824,-4.1899,-4.1009,-4.0106,-3.9308,-3.9308,-3.9308,-3.9308,-3.9308,-3.9308,-3.9308,-3.9308,-3.9308,-3.9216,-3.8826,-3.8665,-3.8596,-3.8711,-3.8114,-3.7494,-3.7494,-3.7104,-3.6645,-3.6323,-3.6332,-3.6332,-3.6332,-3.6332,-3.6094,-3.5611,0.0,-3.5359,-3.4877,-3.4624,-3.4486,-3.4486,-3.4349,-3.4096,-3.3752,-3.4027,-3.3958,-3.3338,-3.3866,-3.3958,-3.3315,-3.3292,-3.3292,-3.3292,-3.3292,-3.3292,-3.3292,-3.3292,-3.3292,-3.3292,-3.3292,-3.3292,-3.3292,-3.3292,-3.3292,-3.3292,-3.3292,-3.3292,-3.3292,-3.3292,-3.3292,-3.3338,-3.3821,-3.4326,-3.4854,-3.5336,-3.5841,-3.6332,-5.847,-5.8366,-5.8314,-5.847,-5.8366,-5.8104,-5.7782,-5.7503,-5.7111,-5.6301,-5.6196,-5.5987,-5.5412,-5.5203,-5.5099,-5.5099,-5.4942,-5.4733,-5.4497,-5.4314,-5.3504,-5.1936,-5.1335,-5.0864,-5.0524,-4.974,-4.9165,-4.8799,-4.8381,-4.8172,-4.8172,-4.8172,-4.7989,-4.7597,-4.7597,-4.7283,-4.6708,-4.6316,-4.5895,-4.5529,-4.5111,-4.485,-4.4639,-4.4274,-4.3299,-4.2168,-4.1619,-4.0575,-3.9515,-3.9354,-3.9308,-3.9308,-3.9308,-3.9308,-3.9308,-3.9308,-3.9308,-3.9308,-3.9308,-3.9055,-3.8895,-3.9216,-3.8665,-3.7999,-3.7816,-3.7402,-3.6897,-3.6369,-3.6332,-3.6332,-3.6332,-3.6332,-3.6162,-3.5818,-3.5749,-3.5634,-3.5313,-3.5129,-3.5014,-3.5014,-3.49,-3.4647,-3.428,-3.4578,-3.4509,-3.3821,-3.4395,-3.4418,-3.3568,-3.3361,-3.3292,-3.3292,-3.3292,-3.3292,-3.3292,-3.3292,-3.3292,-3.3292,-3.3292,-3.3292,-3.3292,-3.3292,-3.3292,-3.3292,-3.3292,-3.3292,-3.3292,-3.3292,-3.3292,-3.3338,-3.3821,-3.4326,-3.4854,-3.5336,-3.5841,-3.6332,-5.8392,-5.8052,-5.7843,-5.8392,-5.8026,-5.773,-5.773,-5.7163,-5.6798,-5.6798,-5.6798,-5.6562,-5.5961,-5.5412,-5.5099,-5.5099,-5.455,-5.4471,-5.5072,-5.455,-5.3687,-5.2563,-5.1936,-5.1073,-4.9923,-4.9897,-4.9348,-4.8198,-4.8172,-4.8172,-4.8172,-4.8172,-4.8172,-4.8172,-4.8172,-4.7885,-4.7278,-4.7278,-4.6626,-4.5637,-4.5637,-4.5271,-4.4746,-4.5401,-4.4469,-4.2823,-4.2848,-4.1707,-4.0034,-3.9469,-3.9308,-3.9308,-3.9308,-3.9308,-3.9308,-3.9308,-3.9308,-3.9308,-3.9308,-3.9308,-3.9308,-3.9308,-3.8941,-3.8459,-3.7907,-3.7402,-3.6897,-3.6392,-3.6332,-3.6332,-3.6277,-3.6332,-3.6332,-3.6332,-3.6332,-3.6332,-3.6332,-3.5841,-3.552,-3.552,-3.5106,-3.4808,-3.4808,-3.4808,-3.4808,-3.4808,-3.4808,-3.4578,-3.4027,-3.3545,-3.3292,-3.3292,-3.3292,-3.3292,-3.3292,-3.3292,-3.3292,-3.3292,-3.3292,-3.3292,-3.3292,-3.3292,-3.3292,-3.3292,-3.3292,-3.3292,-3.3292,-3.3292,-3.3292,-3.3338,-3.3821,-3.4326,-3.4854,-3.5283,-3.5841,-3.6254,-5.7869,-5.7451,-5.7111,-5.7294,-5.7163,-5.6928,-5.6484,-5.6275,-5.604,-5.5674,-5.5621,-5.5543,-5.536,-5.5203,-5.5099,-5.5099,-5.4942,-5.4916,-5.5099,-5.455,-5.387,-5.3164,-5.2537,-5.1858,-5.11,-5.0315,-4.9714,-4.9374,-4.859,-4.8172,-4.8172,-4.8172,-4.8172,-4.8172,-4.8172,-4.8094,-4.7911,-4.7492,-4.7069,-4.673,-4.6395,-4.6107,-4.5976,-4.6159,-4.5056,-4.3389,-4.3389,-4.2174,-4.0525,-3.9997,-4.0066,-4.0364,-4.0364,-4.0364,-4.0364,-4.0364,-4.0112,-3.9836,-3.9836,-3.9584,-3.9308,-3.9308,-3.9193,-3.8964,-3.8459,-3.7953,-3.7517,-3.7356,-3.6759,-3.6392,-3.6736,-3.6507,-3.6332,-3.6332,-3.6332,-3.6332,-3.6332,-3.614,-3.6048,-3.6048,-3.5933,-3.5703,-3.5336,-3.5634,-3.5543,-3.4854,-3.4808,-3.4739,-3.4578,-3.4073,-3.3637,-3.3292,-3.3292,-3.3292,-3.3292,-3.3292,-3.3292,-3.3292,-3.3292,-3.3292,-3.3292,-3.3292,-3.3292,-3.3292,-3.3292,-3.3292,-3.3292,-3.3292,-3.3292,-3.3338,-3.3821,-3.4096,-3.4223,-3.4249,-3.4326,-3.4536,-5.7678,-5.7007,-5.6536,-5.6771,-5.6615,-5.6327,-5.5961,-5.5726,-5.5465,-5.5151,-5.5099,-5.5099,-5.5099,-5.4889,-5.4837,-5.5072,-5.5099,-5.5099,-5.5099,-5.455,-5.3949,-5.3426,-5.2825,-5.2119,-5.1282,-5.0603,-5.0028,-4.9557,-4.8878,-4.8407,-4.8172,-4.8172,-4.8172,-4.8172,-4.8172,-4.8172,-4.8172,-4.7806,-4.7545,-4.7252,-4.697,-4.6682,-4.6499,-4.6734,-4.5617,-4.3895,-4.3954,-4.2723,-4.103,-4.0525,-4.0571,-4.0823,-4.0823,-4.0823,-4.0823,-4.0823,-4.0594,-4.0318,-4.0172,-3.9836,-3.9561,-3.9354,-3.9308,-3.917,-3.8688,-3.8344,-3.8045,-3.7839,-3.715,-3.6668,-3.6933,-3.6622,-3.6332,-3.6332,-3.6332,-3.6332,-3.6332,-3.6332,-3.6332,-3.6332,-3.6332,-3.614,-3.5841,-3.6094,-3.6079,-3.5428,-3.5198,-3.5083,-3.5083,-3.4601,-3.4096,-3.3591,-3.3568,-3.3476,-3.3292,-3.3292,-3.3292,-3.3292,-3.3292,-3.3292,-3.3292,-3.3292,-3.3292,-3.3292,-3.3292,-3.3292,-3.3292,-3.3292,-3.3292,-3.3315,-3.3614,-3.3566,-3.3353,-3.3372,-3.3551,-3.3792,-5.7477,-5.6641,-5.6013,-5.6562,-5.6196,-5.583,-5.583,-5.5412,-5.5099,-5.5099,-5.5099,-5.5099,-5.5099,-5.4602,-5.4497,-5.5046,-5.5099,-5.5099,-5.5099,-5.455,-5.3949,-5.3426,-5.2825,-5.1988,-5.089,-5.0812,-5.0289,-4.9244,-4.9139,-4.8799,-4.8277,-4.814,-4.8114,-4.8172,-4.8114,-4.8114,-4.8172,-4.8172,-4.7885,-4.7357,-4.7357,-4.71,-4.6682,-4.709,-4.6086,-4.4459,-4.4484,-4.3211,-4.1581,-4.1099,-4.0915,-4.0892,-4.0938,-4.0961,-4.0961,-4.0961,-4.0915,-4.0778,-4.0272,-4.0195,-3.9997,-3.9446,-3.9331,-3.9239,-3.8757,-3.8619,-3.8459,-3.8022,-3.7494,-3.7071,-3.7117,-3.6714,-3.6346,-3.6346,-3.6355,-3.6332,-3.6332,-3.6332,-3.6332,-3.6332,-3.6332,-3.6332,-3.6332,-3.6332,-3.6332,-3.6332,-3.5841,-3.5566,-3.552,-3.5106,-3.4624,-3.4096,-3.4027,-3.3798,-3.3361,-3.3338,-3.3315,-3.3292,-3.3292,-3.3292,-3.3292,-3.3292,-3.3292,-3.3292,-3.3292,-3.3292,-3.3292,-3.3338,-3.3265,-3.3192,-3.3234,-3.2779,-3.215,-3.249,-3.2976,-3.3333,-5.6981,-5.6066,-5.5308,-5.5465,-5.536,-5.5282,-5.5282,-5.5177,-5.5099,-5.5099,-5.5099,-5.5099,-5.5099,-5.4994,-5.4968,-5.5099,-5.5099,-5.5099,-5.5099,-5.455,-5.3949,-5.3426,-5.2825,-5.2145,-5.1439,-5.0995,-5.0655,-5.042,-4.9531,-4.9008,-4.8878,-4.7614,-4.7442,-4.8198,-4.7383,-4.7442,-4.8172,-4.8172,-4.812,-4.7989,-4.7989,-4.7937,-4.7774,-4.7093,-4.6109,-4.4988,-4.4253,-4.3138,-4.2155,-4.1977,-4.1742,-4.1466,-4.188,-4.1931,-4.1931,-4.1931,-4.1719,-4.1306,-4.08,-4.0663,-4.0433,-3.9538,-3.9607,-3.9767,-3.9262,-3.8849,-3.8665,-3.8918,-3.8252,-3.7747,-3.8183,-3.7494,-3.6874,-3.6874,-3.653,-3.6332,-3.6332,-3.6332,-3.6332,-3.6332,-3.6332,-3.6332,-3.6332,-3.6332,-3.6332,-3.6332,-3.6162,-3.5933,-3.5543,-3.5428,-3.5129,-3.4647,-3.4211,-3.3958,-3.3843,-3.3843,-3.366,-3.3292,-3.3292,-3.3292,-3.3292,-3.3292,-3.3292,-3.3292,-3.3292,-3.3292,-3.3315,-3.3683,-3.3085,-3.2031,-3.2856,-3.2045,-3.0423,-3.0336,-3.0128,-2.9973,-5.6432,-5.5674,-5.5099,-5.5099,-5.5099,-5.5099,-5.5099,-5.5099,-5.5099,-5.5099,-5.5099,-5.5099,-5.5099,-5.5099,-5.5099,-5.5099,-5.5099,-5.5099,-5.5099,-5.4288,-5.3687,-5.34,-5.2537,-5.191,-5.1596,-5.1309,-5.1047,-5.0786,-4.9897,-4.9083,-4.8378,-4.7223,-4.673,-4.6789,-4.6704,-4.7027,-4.7501,-4.7997,-4.8172,-4.8172,-4.8172,-4.8172,-4.8055,-4.7087,-4.628,-4.5478,-4.4271,-4.3137,-4.2321,-4.2614,-4.2362,-4.1994,-4.2184,-4.2275,-4.2275,-4.2275,-4.2155,-4.1834,-4.1329,-4.1191,-4.0938,-3.9905,-3.9919,-3.9988,-3.9423,-3.9101,-3.901,-3.9262,-3.8688,-3.8252,-3.8527,-3.793,-3.7311,-3.7025,-3.6805,-3.6553,-3.63,-3.6332,-3.6332,-3.6332,-3.6332,-3.6332,-3.6332,-3.6332,-3.6332,-3.6332,-3.6332,-3.6162,-3.5887,-3.5887,-3.5657,-3.5152,-3.4877,-3.4624,-3.4395,-3.4372,-3.4257,-3.4004,-3.4004,-3.4004,-3.4004,-3.3752,-3.3637,-3.3614,-3.3384,-3.3292,-3.3292,-3.2966,-3.239,-3.1578,-3.1558,-3.0537,-2.9099,-2.9203,-2.8831,-2.8499,-5.6013,-5.5465,-5.5099,-5.5099,-5.5099,-5.5099,-5.5099,-5.5099,-5.5099,-5.5099,-5.5099,-5.5099,-5.5099,-5.5099,-5.5099,-5.5099,-5.5099,-5.5099,-5.5099,-5.4105,-5.353,-5.353,-5.238,-5.1753,-5.1753,-5.1648,-5.1325,-5.0669,-5.0097,-4.9013,-4.745,-4.6688,-4.5963,-4.5342,-4.5924,-4.6405,-4.6764,-4.756,-4.8055,-4.8172,-4.8172,-4.8114,-4.7821,-4.6951,-4.6226,-4.5584,-4.4245,-4.3222,-4.2522,-4.2936,-4.2752,-4.2275,-4.2275,-4.2275,-4.2275,-4.2275,-4.2275,-4.2224,-4.1719,-4.1627,-4.1466,-4.0433,-4.0241,-4.0043,-3.9561,-3.9377,-3.9308,-3.9308,-3.8987,-3.8711,-3.8711,-3.8275,-3.7747,-3.7242,-3.7025,-3.6851,-3.6401,-3.6332,-3.6332,-3.6332,-3.6332,-3.6332,-3.6332,-3.6332,-3.6332,-3.6332,-3.6332,-3.6332,-3.6332,-3.6332,-3.6094,-3.5657,-3.5566,-3.5313,-3.4923,-3.4923,-3.4923,-3.4923,-3.5014,-3.4969,-3.4785,-3.4257,-3.4004,-3.3981,-3.3275,-3.3019,-3.2919,-3.1878,-3.1292,-3.0949,-3.0047,-2.9033,-2.8076,-2.8465,-2.8294,-2.7936,-5.5935,-5.5465,-5.5099,-5.5099,-5.5099,-5.5099,-5.5099,-5.5099,-5.5099,-5.5099,-5.5099,-5.5099,-5.5099,-5.5099,-5.5099,-5.5099,-5.5099,-5.5099,-5.5099,-5.4471,-5.4105,-5.4105,-5.2981,-5.238,-5.238,-5.1858,-5.1105,-5.0206,-4.9608,-4.8523,-4.697,-4.5552,-4.5043,-4.5281,-4.4546,-4.5135,-4.6704,-4.6824,-4.7383,-4.8172,-4.8172,-4.7703,-4.6815,-4.6326,-4.5559,-4.4698,-4.4049,-4.3456,-4.3005,-4.3074,-4.2752,-4.2275,-4.2275,-4.2275,-4.2275,-4.2275,-4.2275,-4.2224,-4.1719,-4.1903,-4.1994,-4.0961,-4.0709,-4.0594,-4.0066,-3.9607,-3.9308,-3.9308,-3.9262,-3.9216,-3.9216,-3.8803,-3.8298,-3.777,-3.7311,-3.6851,-3.6401,-3.6332,-3.6332,-3.6332,-3.6332,-3.6332,-3.6332,-3.6332,-3.6332,-3.6332,-3.6332,-3.6332,-3.6332,-3.6332,-3.6286,-3.6162,-3.5749,-3.5497,-3.5428,-3.5428,-3.5428,-3.5428,-3.5864,-3.5634,-3.4785,-3.4257,-3.4004,-3.3907,-3.2469,-3.1841,-3.1783,-3.1084,-2.9946,-2.8688,-2.8976,-2.8391,-2.7401,-2.7808,-2.788,-2.7822,-5.5517,-5.5255,-5.5099,-5.5099,-5.5099,-5.5099,-5.5099,-5.5099,-5.5099,-5.5099,-5.5099,-5.5099,-5.5099,-5.5099,-5.5099,-5.5099,-5.5099,-5.5099,-5.5099,-5.455,-5.4079,-5.3766,-5.2955,-5.2328,-5.1988,-5.1727,-5.1094,-5.0078,-4.952,-4.8294,-4.6488,-4.5469,-4.469,-4.4128,-4.4732,-4.5368,-4.5985,-4.7087,-4.7821,-4.814,-4.7921,-4.7368,-4.6626,-4.5879,-4.5334,-4.4941,-4.4781,-4.3992,-4.3142,-4.3395,-4.2982,-4.2275,-4.2275,-4.2275,-4.2275,-4.2275,-4.2275,-4.2229,-4.2063,-4.2155,-4.2155,-4.142,-4.103,-4.0686,-4.0241,-3.9675,-3.9308,-3.9308,-3.9308,-3.9308,-3.9308,-3.9124,-3.8826,-3.8321,-3.8045,-3.7609,-3.6805,-3.6691,-3.6599,-3.63,-3.6332,-3.6332,-3.6332,-3.6332,-3.6332,-3.6332,-3.6332,-3.6332,-3.6332,-3.6332,-3.6332,-3.6332,-3.6048,-3.5933,-3.5933,-3.5933,-3.5933,-3.5933,-3.6162,-3.6048,-3.5611,-3.5083,-3.4854,-3.4756,-3.2849,-3.1979,-3.1845,-3.0298,-2.9203,-2.8524,-2.8365,-2.7996,-2.7583,-2.7748,-2.7822,-2.7822]},{"header":{"parameterUnit":"m.s-1","parameterCategory":1,"la1":30.6,"la2":28.766,"lo1":-90.7593,"lo2":-88.6598,"dy":0.0162,"dx":0.0183,"nx":116,"ny":114,"refTime":"2024-05-14T06:00:00:Z","depth":0,"parameterNumber":3,"parameterNumberName":"V-component_of_WINDS"},"data":[0.0,0.0,0.0,0.0,0.0,0.0,0.0,0.0,0.0,0.0,0.0,0.0,0.0,0.0,0.0,0.0,0.0,0.0,0.0,0.0,0.0,0.0,0.0,0.0,0.0,0.0,0.0,0.0,0.0,0.0,0.0,0.0,0.0,0.0,0.0,0.0,0.0,0.0,0.0,0.0,0.0,0.0,0.0,0.0,0.0,0.0,0.0,0.0,0.0,0.0,0.0,0.0,0.0,0.0,0.0,0.0,0.0,0.0,0.0,0.0,0.0,0.0,0.0,0.0,0.0,0.0,0.0,0.0,0.0,0.0,0.0,0.0,0.0,0.0,0.0,0.0,0.0,0.0,0.0,0.0,0.0,0.0,0.0,0.0,0.0,0.0,0.0,0.0,0.0,0.0,0.0,0.0,0.0,0.0,0.0,0.0,0.0,0.0,0.0,0.0,0.0,0.0,0.0,0.0,0.0,0.0,0.0,0.0,0.0,0.0,0.0,0.0,0.0,0.0,0.0,0.0,0.0,0.0,0.0,0.0,0.0,0.0,0.0,0.0,0.0,0.0,0.0,0.0,0.0,0.0,0.0,0.0,0.0,0.0,0.0,0.0,0.0,0.0,0.0,0.0,0.0,0.0,0.0,0.0,0.0,0.0,0.0,0.0,0.0,0.0,0.0,0.0,0.0,0.0,0.0,0.0,0.0,0.0,0.0,0.0,0.0,0.0,0.0,0.0,0.0,0.0,0.0,0.0,0.0,0.0,0.0,0.0,0.0,0.0,0.0,0.0,0.0,0.0,0.0,0.0,0.0,0.0,0.0,0.0,0.0,0.0,0.0,0.0,0.0,0.0,0.0,0.0,0.0,0.0,0.0,0.0,0.0,0.0,0.0,0.0,0.0,0.0,0.0,0.0,0.0,0.0,0.0,0.0,0.0,0.0,0.0,0.0,0.0,0.0,0.0,0.0,0.0,0.0,0.0,0.0,0.0,0.0,0.0,0.0,0.0,0.0,0.0,0.0,0.0,0.0,0.0,0.0,0.0,0.0,0.0,0.0,0.0,0.0,0.0,0.0,0.0,0.0,0.0,0.0,0.0,0.0,0.0,0.0,0.0,0.0,0.0,0.0,0.0,0.0,0.0,0.0,0.0,0.0,0.0,0.0,0.0,0.0,0.0,0.0,0.0,0.0,0.0,0.0,0.0,0.0,0.0,0.0,0.0,0.0,0.0,0.0,0.0,0.0,0.0,0.0,0.0,0.0,0.0,0.0,0.0,0.0,0.0,0.0,0.0,0.0,0.0,0.0,0.0,0.0,0.0,0.0,0.0,0.0,0.0,0.0,0.0,0.0,0.0,0.0,0.0,0.0,0.0,0.0,0.0,0.0,0.0,0.0,0.0,0.0,0.0,0.0,0.0,0.0,0.0,0.0,0.0,0.0,0.0,0.0,0.0,0.0,0.0,0.0,0.0,0.0,0.0,0.0,0.0,0.0,0.0,0.0,0.0,0.0,0.0,0.0,0.0,0.0,0.0,0.0,0.0,0.0,0.0,0.0,0.0,0.0,0.0,0.0,0.0,0.0,0.0,0.0,0.0,0.0,0.0,0.0,0.0,0.0,0.0,0.0,0.0,0.0,0.0,0.0,0.0,0.0,0.0,0.0,0.0,0.0,0.0,0.0,0.0,0.0,0.0,0.0,0.0,0.0,0.0,0.0,0.0,0.0,0.0,0.0,0.0,0.0,0.0,0.0,0.0,0.0,0.0,0.0,0.0,0.0,0.0,0.0,0.0,0.0,0.0,0.0,0.0,0.0,0.0,0.0,0.0,0.0,0.0,0.0,0.0,0.0,0.0,0.0,0.0,0.0,0.0,0.0,0.0,0.0,0.0,0.0,0.0,0.0,0.0,0.0,0.0,0.0,0.0,0.0,0.0,0.0,0.0,0.0,0.0,0.0,0.0,0.0,0.0,0.0,0.0,0.0,0.0,0.0,0.0,0.0,0.0,0.0,0.0,0.0,0.0,0.0,0.0,0.0,0.0,0.0,0.0,0.0,0.0,0.0,0.0,0.0,0.0,0.0,0.0,0.0,0.0,0.0,0.0,0.0,0.0,0.0,0.0,0.0,0.0,0.0,0.0,0.0,0.0,0.0,0.0,0.0,0.0,0.0,0.0,0.0,0.0,0.0,0.0,0.0,0.0,0.0,0.0,0.0,0.0,0.0,0.0,0.0,0.0,0.0,0.0,0.0,0.0,0.0,0.0,0.0,0.0,0.0,0.0,0.0,0.0,0.0,0.0,0.0,0.0,0.0,0.0,0.0,0.0,0.0,0.0,0.0,0.0,0.0,0.0,0.0,0.0,0.0,0.0,0.0,0.0,0.0,0.0,0.0,0.0,0.0,0.0,0.0,0.0,0.0,0.0,0.0,0.0,0.0,0.0,0.0,0.0,0.0,0.0,0.0,0.0,0.0,0.0,0.0,0.0,0.0,0.0,0.0,0.0,0.0,0.0,0.0,0.0,0.0,0.0,0.0,0.0,0.0,0.0,0.0,0.0,0.0,0.0,0.0,0.0,0.0,0.0,0.0,0.0,0.0,0.0,0.0,0.0,0.0,0.0,0.0,0.0,0.0,0.0,0.0,0.0,0.0,0.0,0.0,0.0,0.0,0.0,0.0,0.0,0.0,0.0,0.0,0.0,0.0,0.0,0.0,0.0,0.0,0.0,0.0,0.0,0.0,0.0,0.0,0.0,0.0,0.0,0.0,0.0,0.0,0.0,0.0,0.0,0.0,0.0,0.0,0.0,0.0,0.0,0.0,0.0,0.0,0.0,0.0,0.0,0.0,0.0,0.0,0.0,0.0,0.0,0.0,0.0,0.0,0.0,0.0,0.0,0.0,0.0,0.0,0.0,0.0,0.0,0.0,0.0,0.0,0.0,0.0,0.0,0.0,0.0,0.0,0.0,0.0,0.0,0.0,0.0,0.0,0.0,0.0,0.0,0.0,0.0,0.0,0.0,0.0,0.0,0.0,0.0,0.0,0.0,0.0,0.0,0.0,0.0,0.0,0.0,0.0,0.0,0.0,0.0,0.0,0.0,0.0,0.0,0.0,0.0,0.0,0.0,0.0,0.0,0.0,0.0,0.0,0.0,0.0,0.0,0.0,0.0,0.0,0.0,0.0,0.0,0.0,0.0,0.0,0.0,0.0,0.0,0.0,0.0,0.0,0.0,0.0,0.0,0.0,0.0,0.0,0.0,0.0,0.0,0.0,0.0,0.0,0.0,0.0,0.0,0.0,0.0,0.0,0.0,0.0,0.0,0.0,0.0,0.0,0.0,0.0,0.0,0.0,0.0,0.0,0.0,0.0,0.0,0.0,0.0,0.0,0.0,0.0,0.0,0.0,0.0,0.0,0.0,0.0,0.0,0.0,0.0,0.0,0.0,0.0,0.0,0.0,0.0,0.0,0.0,0.0,0.0,0.0,0.0,0.0,0.0,0.0,0.0,0.0,0.0,0.0,0.0,0.0,0.0,0.0,0.0,0.0,0.0,0.0,0.0,0.0,0.0,0.0,0.0,0.0,0.0,0.0,0.0,0.0,0.0,0.0,0.0,0.0,0.0,0.0,0.0,0.0,0.0,0.0,0.0,0.0,0.0,0.0,0.0,0.0,0.0,0.0,0.0,0.0,0.0,0.0,0.0,0.0,0.0,0.0,0.0,0.0,0.0,0.0,0.0,0.0,0.0,0.0,0.0,0.0,0.0,0.0,0.0,0.0,0.0,0.0,0.0,0.0,0.0,0.0,0.0,0.0,0.0,0.0,0.0,0.0,0.0,0.0,0.0,0.0,0.0,0.0,0.0,0.0,0.0,0.0,0.0,0.0,0.0,0.0,0.0,0.0,0.0,0.0,0.0,0.0,0.0,0.0,0.0,0.0,0.0,0.0,0.0,0.0,0.0,0.0,0.0,0.0,0.0,0.0,0.0,0.0,0.0,0.0,0.0,0.0,0.0,0.0,0.0,0.0,0.0,0.0,0.0,0.0,0.0,0.0,0.0,0.0,0.0,0.0,0.0,0.0,0.0,0.0,0.0,0.0,0.0,0.0,0.0,0.0,0.0,0.0,0.0,0.0,0.0,0.0,0.0,0.0,0.0,0.0,0.0,0.0,0.0,0.0,0.0,0.0,0.0,0.0,0.0,0.0,0.0,0.0,0.0,0.0,0.0,0.0,0.0,0.0,0.0,0.0,0.0,0.0,0.0,0.0,0.0,0.0,0.0,0.0,0.0,0.0,0.0,0.0,0.0,0.0,0.0,0.0,0.0,0.0,0.0,0.0,0.0,0.0,0.0,0.0,0.0,0.0,0.0,0.0,0.0,0.0,0.0,0.0,0.0,0.0,0.0,0.0,0.0,0.0,0.0,0.0,0.0,0.0,0.0,0.0,0.0,0.0,0.0,0.0,0.0,0.0,0.0,0.0,0.0,0.0,0.0,0.0,0.0,0.0,0.0,0.0,0.0,0.0,0.0,0.0,0.0,0.0,0.0,0.0,0.0,0.0,0.0,0.0,0.0,0.0,0.0,0.0,0.0,0.0,0.0,0.0,0.0,0.0,0.0,0.0,0.0,0.0,0.0,0.0,0.0,0.0,0.0,0.0,0.0,0.0,0.0,0.0,0.0,0.0,0.0,0.0,0.0,0.0,0.0,0.0,0.0,0.0,0.0,0.0,0.0,0.0,0.0,0.0,0.0,0.0,0.0,0.0,0.0,0.0,0.0,0.0,0.0,0.0,0.0,0.0,0.0,0.0,0.0,0.0,0.0,0.0,0.0,0.0,0.0,0.0,0.0,0.0,0.0,0.0,0.0,0.0,0.0,0.0,0.0,0.0,0.0,0.0,0.0,0.0,0.0,0.0,0.0,0.0,0.0,0.0,0.0,0.0,0.0,0.0,0.0,0.0,0.0,0.0,0.0,0.0,0.0,0.0,0.0,0.0,0.0,0.0,0.0,0.0,0.0,0.0,0.0,0.0,0.0,0.0,0.0,0.0,0.0,0.0,0.0,0.0,0.0,0.0,0.0,0.0,0.0,0.0,0.0,0.0,0.0,0.0,0.0,0.0,0.0,0.0,0.0,0.0,0.0,0.0,0.0,0.0,0.0,0.0,0.0,0.0,0.0,0.0,0.0,0.0,0.0,0.0,0.0,0.0,0.0,0.0,0.0,0.0,0.0,0.0,0.0,0.0,0.0,0.0,0.0,0.0,0.0,0.0,0.0,0.0,0.0,0.0,0.0,0.0,0.0,0.0,0.0,0.0,0.0,0.0,0.0,0.0,0.0,0.0,0.0,0.0,0.0,0.0,0.0,0.0,0.0,0.0,0.0,0.0,0.0,0.0,0.0,0.0,0.0,0.0,0.0,0.0,0.0,0.0,0.0,0.0,0.0,0.0,0.0,0.0,0.0,0.0,0.0,0.0,0.0,0.0,0.0,0.0,0.0,0.0,0.0,0.0,0.0,0.0,0.0,0.0,0.0,0.0,0.0,0.0,0.0,0.0,0.0,0.0,0.0,0.0,0.0,0.0,0.0,0.0,0.0,0.0,0.0,0.0,0.0,0.0,0.0,0.0,0.0,0.0,0.0,0.0,0.0,0.0,0.0,0.0,0.0,0.0,0.0,0.0,0.0,0.0,0.0,0.0,0.0,0.0,0.0,0.0,0.0,0.0,0.0,0.0,0.0,0.0,0.0,0.0,0.0,0.0,0.0,0.0,0.0,0.0,0.0,0.0,0.0,0.0,0.0,0.0,0.0,0.0,0.0,0.0,0.0,0.0,0.0,0.0,0.0,0.0,0.0,0.0,0.0,0.0,0.0,0.0,0.0,0.0,0.0,0.0,0.0,0.0,0.0,0.0,0.0,0.0,0.0,0.0,0.0,0.0,0.0,0.0,0.0,0.0,0.0,0.0,0.0,0.0,0.0,0.0,0.0,0.0,0.0,0.0,0.0,0.0,0.0,0.0,0.0,0.0,0.0,0.0,0.0,0.0,0.0,0.0,0.0,0.0,0.0,0.0,0.0,0.0,0.0,0.0,0.0,0.0,0.0,0.0,0.0,0.0,0.0,0.0,0.0,0.0,0.0,0.0,2.0757,0.0,0.0,0.0,0.0,0.0,0.0,0.0,0.0,0.0,0.0,0.0,0.0,0.0,0.0,0.0,0.0,0.0,0.0,0.0,0.0,0.0,0.0,0.0,0.0,4.0008,4.0397,4.0397,4.1189,4.1829,4.2157,0.0,0.0,0.0,0.0,0.0,0.0,0.0,4.1234,4.0626,4.1115,4.1477,4.1715,4.1155,4.0773,4.0507,0.0,0.0,0.0,0.0,0.0,0.0,0.0,0.0,0.0,0.0,0.0,0.0,0.0,0.0,0.0,0.0,0.0,0.0,0.0,0.0,0.0,0.0,0.0,0.0,0.0,0.0,0.0,0.0,0.0,0.0,0.0,0.0,0.0,0.0,0.0,0.0,0.0,0.0,0.0,0.0,0.0,0.0,0.0,0.0,0.0,0.0,0.0,0.0,0.0,0.0,0.0,0.0,0.0,0.0,0.0,0.0,0.0,0.0,0.0,0.0,0.0,0.0,0.0,0.0,0.0,0.0,0.0,0.0,0.0,0.0,0.0,2.1959,0.0,0.0,0.0,0.0,0.0,0.0,0.0,0.0,0.0,0.0,0.0,0.0,0.0,0.0,0.0,0.0,0.0,0.0,0.0,0.0,0.0,3.9553,3.9553,4.0277,4.0756,4.0689,4.1611,4.2287,4.2365,4.1972,4.1783,4.2011,4.1733,4.1309,4.0744,4.1796,4.1744,4.0517,4.193,4.2811,4.3065,4.2461,4.214,4.1981,4.0583,0.0,0.0,0.0,0.0,0.0,0.0,0.0,0.0,0.0,0.0,0.0,0.0,0.0,0.0,0.0,0.0,0.0,0.0,0.0,0.0,0.0,0.0,0.0,0.0,0.0,0.0,0.0,0.0,0.0,0.0,0.0,0.0,0.0,0.0,0.0,0.0,0.0,0.0,0.0,0.0,0.0,0.0,0.0,0.0,0.0,0.0,0.0,0.0,0.0,0.0,0.0,0.0,0.0,0.0,0.0,0.0,0.0,0.0,0.0,0.0,0.0,0.0,0.0,2.8903,2.9173,2.8677,2.9128,2.9082,2.8564,2.6794,2.532,2.4045,2.3203,0.0,0.0,0.0,0.0,0.0,0.0,0.0,0.0,0.0,0.0,0.0,0.0,0.0,0.0,0.0,0.0,0.0,0.0,0.0,4.0277,4.0277,4.1422,4.2064,4.1802,4.2604,4.2931,4.2438,4.2621,4.2611,4.2111,4.2193,4.2216,4.2129,4.217,4.2129,4.2088,4.3887,4.5128,4.5727,4.618,4.6196,4.5622,4.2187,4.1181,4.2013,0.0,0.0,0.0,0.0,0.0,0.0,0.0,0.0,0.0,0.0,0.0,0.0,0.0,0.0,0.0,0.0,0.0,0.0,0.0,0.0,0.0,0.0,0.0,0.0,0.0,0.0,0.0,0.0,0.0,0.0,0.0,0.0,0.0,0.0,0.0,0.0,0.0,0.0,0.0,0.0,0.0,2.9465,2.8887,0.0,0.0,0.0,0.0,0.0,0.0,0.0,0.0,0.0,0.0,0.0,0.0,0.0,2.8982,3.0005,3.126,3.1687,3.125,3.2606,3.3005,3.2575,3.2647,3.2647,3.2551,3.2243,0.0,2.5678,2.4404,0.0,0.0,0.0,0.0,0.0,0.0,0.0,0.0,0.0,0.0,0.0,0.0,0.0,0.0,0.0,0.0,0.0,0.0,0.0,0.0,0.0,4.2016,4.2753,4.2723,4.3719,4.4057,4.3348,4.3478,4.3194,4.2327,4.2257,4.2257,4.2257,4.2133,4.2656,4.3831,4.536,4.6512,4.7291,4.7794,4.7875,4.7521,4.5727,4.4116,4.2624,4.1198,0.0,0.0,0.0,0.0,0.0,0.0,0.0,0.0,0.0,0.0,0.0,0.0,0.0,0.0,0.0,0.0,0.0,0.0,0.0,0.0,0.0,0.0,0.0,0.0,0.0,0.0,0.0,0.0,0.0,0.0,0.0,0.0,0.0,0.0,0.0,0.0,0.0,0.0,0.0,3.0407,3.0733,2.9553,2.9955,2.998,0.0,0.0,0.0,0.0,0.0,0.0,0.0,0.0,0.0,3.1992,3.2464,3.295,3.3415,3.4631,3.4973,3.4426,3.5968,3.6122,3.5064,3.5665,3.5593,3.504,3.504,3.3339,3.0368,2.782,2.6168,2.5054,0.0,0.0,0.0,0.0,2.267,2.2446,0.0,0.0,0.0,0.0,0.0,0.0,0.0,0.0,0.0,0.0,0.0,0.0,4.1833,4.3051,4.3924,4.4143,4.5102,4.5285,4.4293,4.4014,4.3436,4.2368,4.2175,4.2092,4.2092,4.2557,4.3747,4.5634,4.7259,4.8526,4.9503,4.995,4.9989,4.9714,4.9376,4.7385,4.4157,4.2484,4.1537,4.1025,0.0,0.0,0.0,0.0,0.0,0.0,0.0,0.0,0.0,0.0,0.0,0.0,0.0,0.0,0.0,0.0,0.0,0.0,0.0,0.0,0.0,0.0,0.0,0.0,0.0,0.0,0.0,0.0,0.0,0.0,0.0,0.0,0.0,0.0,0.0,0.0,0.0,3.111,3.1612,2.998,3.1235,3.1712,0.0,0.0,0.0,0.0,0.0,0.0,3.2023,3.3501,3.4655,3.5207,3.5975,3.6627,3.7036,3.7685,3.7805,3.7445,3.8503,3.8383,3.7252,3.7902,3.7757,3.7012,3.6867,3.6074,3.4534,3.1152,2.9008,2.7727,2.5846,2.5106,2.5084,2.4821,2.4781,2.4832,0.0,0.0,0.0,0.0,0.0,0.0,0.0,0.0,0.0,0.0,0.0,4.1863,4.305,4.4964,4.6198,4.6432,4.6886,4.6561,4.4982,4.4158,4.326,4.2162,4.2092,4.2092,4.2092,4.3834,4.5692,4.7637,5.0133,5.202,5.3239,5.3907,5.3849,5.321,5.2652,5.0632,4.7511,4.5509,4.4132,4.306,4.1085,0.0,0.0,0.0,0.0,0.0,0.0,0.0,0.0,0.0,0.0,0.0,0.0,0.0,0.0,0.0,0.0,0.0,0.0,0.0,0.0,0.0,0.0,0.0,0.0,0.0,0.0,0.0,0.0,0.0,0.0,0.0,0.0,0.0,0.0,0.0,0.0,0.0,0.0,2.998,3.2616,0.0,0.0,0.0,0.0,3.3325,3.4089,3.4742,3.4992,3.5306,3.6483,3.8503,3.8623,3.9369,4.0884,4.0451,4.0234,4.0186,3.9753,3.9513,3.9417,3.8984,3.8743,3.8671,3.8142,3.7565,3.6768,3.3357,3.0996,2.9381,2.7491,2.6771,2.6661,2.565,2.5565,2.5937,0.0,0.0,0.0,0.0,0.0,3.9414,3.9941,4.0315,4.0785,4.1564,4.2494,4.3537,4.4846,4.6446,4.789,4.8951,4.8946,4.8336,4.7024,4.5405,4.3918,4.2731,4.2295,4.2673,4.3863,4.5372,4.7491,5.0249,5.2804,5.4517,5.5387,5.6026,5.5968,5.5358,5.4691,5.339,5.1513,4.7871,4.5561,4.4162,4.1751,4.0487,0.0,0.0,0.0,0.0,0.0,0.0,0.0,0.0,0.0,0.0,0.0,0.0,0.0,0.0,0.0,0.0,0.0,0.0,0.0,0.0,0.0,0.0,0.0,0.0,0.0,0.0,0.0,0.0,0.0,0.0,0.0,0.0,0.0,0.0,0.0,0.0,0.0,3.4575,3.686,0.0,3.583,3.6358,3.6513,3.5727,3.7072,3.7851,3.784,3.9026,4.0066,4.0836,4.1172,4.1461,4.1677,4.1509,4.1076,4.0403,4.0547,4.0258,3.9609,3.9417,3.9152,3.8791,3.8214,3.7685,3.7084,3.5509,3.3909,3.2296,3.0631,3.0003,2.9957,2.9539,2.9328,2.9126,0.0,0.0,0.0,3.9373,3.9301,3.9414,3.9971,4.0345,4.0867,4.1846,4.2942,4.4395,4.6223,4.811,4.9772,5.1111,5.0642,4.9639,4.8103,4.5929,4.4094,4.2731,4.2905,4.3834,4.5488,4.7433,4.9901,5.2891,5.501,5.652,5.739,5.7565,5.7419,5.7013,5.6345,5.5583,5.4497,5.1058,4.8131,4.5602,4.3575,4.2138,4.0978,0.0,0.0,0.0,0.0,0.0,0.0,0.0,0.0,0.0,0.0,0.0,0.0,0.0,0.0,0.0,0.0,0.0,0.0,0.0,0.0,0.0,0.0,0.0,0.0,0.0,0.0,0.0,0.0,0.0,0.0,0.0,0.0,0.0,0.0,3.5228,3.731,3.7437,3.9923,4.0953,3.9295,3.9973,4.012,3.9187,4.0602,4.1328,4.0933,4.19,4.2567,4.276,4.2928,4.2928,4.2784,4.2423,4.1894,4.1196,4.1172,4.0812,4.0138,3.9777,3.9417,3.9032,3.831,3.7781,3.7421,3.6892,3.5954,3.4631,3.3092,3.2466,3.2418,3.2082,3.1886,3.1632,0.0,3.9373,3.9373,3.9373,3.9373,3.9403,3.9439,3.9433,3.9838,4.0999,4.2228,4.4152,4.7183,4.9816,5.1777,5.2844,5.1983,5.0348,4.8003,4.5624,4.3653,4.2237,4.395,4.5576,4.6923,5.0104,5.2949,5.5503,5.6781,5.8058,5.9306,5.8668,5.8348,5.8348,5.7652,5.7013,5.6432,5.5155,5.1954,4.7655,4.6721,4.4882,4.2519,0.0,0.0,0.0,0.0,0.0,0.0,0.0,0.0,0.0,0.0,0.0,0.0,0.0,0.0,0.0,0.0,0.0,0.0,0.0,0.0,0.0,0.0,0.0,0.0,0.0,0.0,0.0,0.0,0.0,0.0,0.0,0.0,0.0,3.3312,3.6558,3.8793,3.8341,4.163,4.3313,4.1652,4.3991,4.5003,4.3614,4.4674,4.5037,4.4196,4.3784,4.3818,4.4285,4.3842,4.3818,4.4261,4.3289,4.2819,4.2771,4.1677,4.1172,4.1148,4.0114,3.9633,3.9537,3.8479,3.7998,3.795,3.7421,3.6867,3.6242,3.4655,3.403,3.3886,3.2947,3.2875,3.3212,3.9373,3.9373,3.9373,3.9373,3.9265,3.9377,4.0031,4.0285,4.0728,4.1644,4.3053,4.495,4.7645,4.9698,5.1758,5.3867,5.1678,4.9902,4.9233,4.5504,4.36,4.4095,4.5082,4.7288,5.0917,5.2775,5.4952,5.7507,5.8784,5.9597,5.9945,5.9771,5.9684,5.9626,5.8523,5.8203,5.8464,5.7819,5.5892,5.2894,4.9098,4.6711,4.5167,0.0,0.0,0.0,0.0,0.0,0.0,0.0,0.0,0.0,0.0,0.0,0.0,0.0,0.0,0.0,0.0,0.0,0.0,0.0,0.0,0.0,0.0,0.0,0.0,0.0,0.0,0.0,0.0,0.0,0.0,0.0,3.5253,3.6935,3.7764,3.9823,4.2082,4.4342,4.6276,4.7054,4.6175,4.7179,4.7282,4.5817,4.6205,4.6249,4.5789,4.545,4.5164,4.4861,4.4717,4.4395,4.3746,4.3096,4.2627,4.2241,4.1509,4.1172,4.1172,4.0475,3.997,3.9561,3.8888,3.8359,3.795,3.7421,3.6867,3.6314,3.5497,3.4895,3.4534,3.4294,3.3813,3.3212,3.9373,3.9373,3.9373,3.9373,3.9228,3.9275,3.9771,4.0173,4.0633,4.1253,4.3043,4.5245,4.7707,4.9359,5.0975,5.2746,5.0452,4.8566,4.7753,4.5256,4.4472,4.604,4.7753,5.0278,5.3675,5.5562,5.7507,5.951,6.0264,6.0874,6.1396,6.0584,6.0351,6.0555,5.9306,5.8929,5.9277,5.9044,5.8229,5.6723,5.3024,5.0233,4.798,4.5464,4.4177,4.3481,4.1995,4.1651,4.1599,3.9654,0.0,0.0,0.0,0.0,0.0,0.0,0.0,0.0,0.0,0.0,0.0,0.0,0.0,0.0,0.0,0.0,0.0,0.0,0.0,0.0,0.0,0.0,0.0,0.0,3.8336,4.0199,4.2484,4.3237,4.4518,4.7154,4.8234,4.8736,4.8636,4.9113,4.896,4.7731,4.7834,4.7571,4.6786,4.644,4.6006,4.5414,4.5197,4.4765,4.4202,4.3241,4.2651,4.2362,4.1533,4.1172,4.1172,4.0643,4.0114,3.9585,3.9056,3.8503,3.795,3.7637,3.7204,0.0,0.0,0.0,0.0,0.0,3.4318,3.3525,3.9373,3.9373,3.9373,3.9373,3.9228,3.9119,3.9208,3.9587,4.0009,4.0461,4.2643,4.4982,4.7248,4.8537,4.963,5.0365,4.8624,4.6766,4.5111,4.5082,4.6098,4.8333,5.1294,5.3849,5.591,5.829,6.0148,6.1396,6.1396,6.1977,6.3051,6.1338,6.0787,6.1251,6.0061,5.951,5.951,5.9422,5.9393,5.9248,5.7536,5.4575,5.0967,4.8512,4.7415,4.6824,4.4327,4.3456,4.3224,4.1134,0.0,0.0,0.0,0.0,0.0,0.0,0.0,0.0,0.0,0.0,0.0,0.0,0.0,0.0,0.0,0.0,0.0,0.0,0.0,0.0,0.0,0.0,0.0,0.0,4.1748,4.3179,4.696,4.6597,4.6426,4.7908,4.8611,4.9113,4.9565,5.0092,4.9997,4.9122,4.9191,4.8714,4.7304,0.0,0.0,0.0,0.0,4.5197,4.5077,4.3601,4.2867,4.2795,4.1677,4.1172,4.1172,4.0691,4.0186,3.9657,3.9128,3.8599,3.807,3.7998,3.7637,3.7012,3.6002,3.5304,3.4775,3.4775,3.4438,3.3934,3.9373,3.9373,3.9373,3.9373,3.9228,3.9268,3.9802,4.0123,4.0529,4.1134,4.2403,4.379,4.5285,4.6156,4.7288,4.8943,4.6853,4.5518,4.5692,4.6156,4.8246,5.2223,5.3994,5.6229,5.9219,6.0293,6.1454,6.2732,6.2732,6.2848,6.308,6.2703,6.2325,6.189,6.1164,6.0816,6.0787,6.0264,6.0032,6.0003,5.9626,5.7477,5.4168,5.1141,4.9659,4.8856,4.6824,4.6417,4.6388,4.3427,4.2789,4.2818,4.035,3.9218,0.0,0.0,0.0,0.0,0.0,0.0,0.0,0.0,0.0,0.0,0.0,0.0,0.0,0.0,0.0,0.0,0.0,0.0,0.0,4.3643,4.4837,4.6472,4.9585,4.892,4.841,4.9163,4.9766,4.9967,4.9615,5.0092,4.9931,4.8756,4.8739,4.8387,4.7485,4.7353,4.7112,4.6583,4.6463,4.6006,4.5077,4.3962,4.3168,4.2795,0.0,0.0,4.1172,4.1076,4.0739,4.021,3.9681,3.9152,3.8623,3.8166,3.7421,3.6483,3.5857,3.5304,3.4775,3.4775,3.4438,3.3982,3.9373,3.9373,3.9373,3.9373,3.9156,3.918,3.9831,4.0138,4.0508,4.115,4.2291,4.3369,4.4327,4.4734,4.5314,4.6272,4.4879,4.4501,4.5808,4.7695,5.0743,5.5213,5.6955,5.9016,6.16,6.2296,6.2935,6.3574,6.3574,6.3719,6.4038,6.3399,6.308,6.3022,6.2064,6.1832,6.2093,6.1106,6.0874,6.1106,6.0467,5.9074,5.7071,5.4517,5.2746,5.1352,4.9436,4.8537,4.7811,4.4908,4.395,4.3602,4.1308,4.0147,3.945,0.0,0.0,0.0,0.0,0.0,0.0,0.0,0.0,0.0,0.0,0.0,0.0,0.0,0.0,3.9522,4.1494,0.0,4.4749,4.8086,4.8369,4.8826,5.0812,5.0027,4.9289,4.9565,4.9841,4.9891,4.9615,4.9841,4.9631,4.8666,4.86,4.8248,4.7563,4.7497,4.7377,4.7112,4.6583,4.6054,4.5549,4.3938,4.3,4.2795,4.1677,4.1172,4.1172,4.1172,4.0884,4.0355,3.9826,3.932,3.8767,3.8214,3.7348,3.6386,3.6122,3.5521,3.4775,3.4775,3.4607,3.4342,3.9373,3.9373,3.9373,3.9373,3.9053,3.8974,3.9504,3.9896,4.0292,4.0815,4.2034,4.3021,4.3573,4.3631,4.3631,4.3631,4.334,4.4153,4.6475,4.9407,5.3036,5.7507,5.9539,6.1367,6.3051,6.3719,6.4033,6.4212,6.4212,6.4473,6.4967,6.3951,6.3661,6.3946,6.2935,6.2703,6.3022,6.1861,6.1571,6.1803,6.0671,5.9684,5.8726,5.7042,5.5271,5.3442,5.141,4.9669,4.8014,4.5808,4.4589,4.3718,4.215,4.1192,4.0379,3.8986,3.8405,0.0,0.0,0.0,0.0,0.0,0.0,0.0,0.0,3.9421,3.9944,4.1453,4.2209,4.3624,4.6946,4.7489,4.8562,5.2288,5.151,5.0767,5.1733,5.0563,4.9565,4.9439,4.954,4.959,4.959,4.959,4.9332,4.8706,4.8706,4.8379,4.7762,4.763,4.763,4.763,4.6583,4.603,4.5934,4.3914,4.2916,4.2795,4.1677,4.1172,4.1172,4.1172,4.0884,4.0355,3.9609,3.9056,3.8599,3.795,3.718,3.6386,3.629,3.5665,3.4775,3.4775,3.4775,3.4727,3.9373,3.9373,3.9373,3.9373,3.9053,3.8826,3.8885,3.9604,4.0118,4.0205,4.1366,4.2237,4.2295,4.2295,4.2295,4.2295,4.3282,4.5401,4.903,5.1257,5.4371,5.8871,6.0874,6.2267,6.308,6.3719,6.4299,6.488,6.488,6.4909,6.4996,6.4851,6.4502,6.3975,6.383,6.3545,6.3051,6.2296,6.1716,6.1222,6.0496,5.9132,5.7448,5.6694,5.5562,5.4081,5.1585,4.9117,4.6865,4.6069,4.4966,4.395,4.3747,4.3195,4.2295,4.0437,3.9073,3.8057,3.7476,3.7302,3.7447,3.797,3.8609,3.9828,0.0,4.3747,4.4821,4.7259,4.8286,4.9021,5.0075,5.1577,5.3035,5.4099,5.3102,5.2485,5.316,5.1168,4.9414,4.8912,4.9289,4.959,4.959,4.959,4.9461,4.9072,4.9007,4.8877,4.851,4.8116,4.796,4.796,4.7051,4.6391,4.5934,4.4251,4.3192,4.2795,4.1677,4.1172,4.1172,4.1172,4.0884,4.0306,3.8815,3.8118,3.7998,3.6988,3.6507,3.6362,3.5881,3.5352,3.4775,3.4775,3.4775,3.4775,3.9373,3.9373,3.9373,3.9373,3.9156,3.9025,3.9186,3.9808,4.0353,4.0681,4.1512,4.2092,4.2092,4.2092,4.1947,4.1541,4.2673,4.5024,4.8885,5.1294,5.4923,6.0177,6.1861,6.3138,6.4183,6.4444,6.4735,6.4996,6.4996,6.4996,6.4996,6.4996,6.4851,6.4561,6.4212,6.4096,6.4067,6.2325,6.1629,6.16,6.0235,5.8726,5.7158,5.5823,5.4052,5.1991,4.9785,4.7579,0.0,4.4124,4.3079,4.2382,4.276,4.244,4.1599,4.0031,3.9189,3.858,3.7564,3.7854,3.8551,3.916,4.0379,4.2063,4.4531,4.5866,4.7201,4.9407,5.0946,5.2223,5.3239,5.44,5.5416,5.6026,5.5025,5.4019,5.3577,5.1338,4.926,4.7945,4.7732,4.8058,4.9012,4.9113,4.911,4.9112,4.9072,4.8942,4.86,4.8248,4.788,4.7564,4.6665,4.6006,4.5477,4.389,4.2976,4.2795,4.1677,4.1172,4.1172,4.1172,4.0571,3.9465,3.908,3.8407,3.7493,3.7036,3.6507,3.593,3.5713,3.5112,3.4366,3.4655,3.4775,3.4775,3.9373,3.9373,3.9373,3.9337,3.9192,3.9158,3.9295,3.9759,4.0246,4.0768,4.1395,4.1889,4.2063,4.2092,4.1889,4.1424,4.2353,4.4414,4.7724,5.0336,5.411,5.9364,6.1338,6.2964,6.4415,6.4822,6.4996,6.4996,6.4996,6.4996,6.4996,6.4996,6.488,6.4706,6.4241,6.4096,6.4067,6.2035,6.1251,6.1164,5.9451,5.7739,5.6055,5.4168,5.1759,4.9175,4.7753,4.5779,4.3631,4.2266,4.1279,4.0728,4.1541,4.1482,4.0873,3.977,3.9189,3.8725,3.7796,3.8492,3.977,4.1076,4.2615,4.4385,4.6679,4.8043,4.9378,5.1323,5.2833,5.411,5.5213,5.5968,5.6437,5.6505,5.5878,5.4859,5.3446,5.1163,4.9049,4.7392,4.6204,4.615,4.7506,4.8058,4.8547,4.8992,4.8893,4.8814,4.8877,4.8363,4.7898,4.7507,4.6649,4.5924,4.5392,4.3735,4.2938,4.2914,4.1735,4.1172,4.1172,4.0884,4.0114,3.9032,3.896,3.8359,3.7372,3.6771,3.6266,3.5785,3.5352,3.4751,3.4246,3.4631,3.4775,3.4775,3.9373,3.9373,3.9337,3.9156,3.909,3.9046,3.8863,3.9048,3.945,4.006,4.0699,4.1366,4.2034,4.2092,4.2092,4.2063,4.2644,4.3834,4.5837,4.8362,5.1497,5.5416,5.861,6.1193,6.3109,6.4357,6.4996,6.4996,6.4996,6.4996,6.4996,6.4996,6.4648,6.4004,6.3975,6.3341,6.2122,6.1483,6.0496,5.9277,5.7913,5.5881,5.3413,5.1527,4.8798,4.6011,4.5953,4.3892,4.1221,4.1134,4.0292,3.9479,4.0728,4.1105,4.096,4.0263,3.9189,3.8231,3.8173,3.9102,4.0815,4.395,4.5285,4.6621,4.9814,5.1033,5.2049,5.3994,5.4458,5.4662,5.53,5.5968,5.5985,5.4799,5.5076,5.472,5.2788,5.0525,4.8649,4.7414,4.524,4.4116,0.0,4.6225,4.7631,4.8711,4.8284,4.8435,4.954,4.8729,4.8263,4.8302,4.7351,4.662,4.608,4.4134,4.3187,4.3187,4.1852,4.1172,4.1148,4.0114,3.9633,3.9489,3.795,3.7541,3.7805,3.5737,3.5497,3.6218,3.4631,3.4342,3.4751,3.4775,3.4775,3.4775,3.9373,3.9373,3.9337,3.9156,3.898,3.8833,3.8612,3.9057,3.9547,4.007,4.1076,0.0,0.0,0.0,0.0,0.0,4.1889,4.2731,4.5082,4.6824,4.932,5.2746,5.5968,5.8377,5.9887,6.1164,6.2238,6.308,6.2674,6.2674,6.3051,6.2674,6.2354,6.2151,6.2151,6.1919,6.1396,5.9916,5.9277,5.9016,5.5533,5.3646,5.2543,4.9349,4.6679,4.4472,0.0,4.1482,3.9712,3.887,3.8289,3.8086,3.8899,3.9189,3.9131,3.8899,3.9131,3.9654,4.0554,4.2005,4.395,4.6737,4.8246,4.9582,5.1548,5.2426,5.3065,5.3704,5.2833,5.202,5.2223,5.2107,5.2214,5.3087,5.3355,5.3381,5.3228,5.1858,4.9563,4.5943,4.5608,0.0,0.0,0.0,0.0,4.7581,4.7506,4.7707,4.8435,4.802,4.7557,4.7209,4.6636,4.608,4.554,4.4203,4.3531,4.3507,4.2141,4.1208,4.0643,4.0282,3.9537,3.8527,3.8334,3.795,3.7372,3.6314,3.5665,3.5255,3.4727,3.4246,3.3885,3.4583,3.4775,3.4775,0.0,3.9337,3.9265,3.909,3.887,0.0,0.0,0.0,0.0,0.0,0.0,0.0,0.0,0.0,0.0,0.0,0.0,4.2034,4.3427,4.4734,4.6592,4.9117,5.1846,5.4023,5.5533,5.6607,5.7652,5.8697,5.829,5.8552,5.9364,5.8987,5.8813,5.8813,5.8813,5.8552,5.8029,5.6549,5.6171,5.6229,5.2397,5.0714,5.0162,4.6766,4.4269,0.0,4.0931,3.9741,3.8725,3.7912,3.7622,3.7709,3.8086,3.8202,3.8289,3.8754,3.9799,4.1308,4.3515,4.5343,4.7259,5.0104,5.1236,5.1904,5.2717,5.3036,5.292,5.1991,5.083,4.9698,4.8769,4.8478,4.8683,4.9674,5.0606,5.1473,5.2363,5.1137,4.9346,4.7126,4.5965,4.4819,0.0,0.0,0.0,4.6426,4.6728,4.7079,4.7606,4.7408,4.7109,4.6761,4.6576,4.618,4.5635,4.4487,4.357,4.2944,4.1947,4.1112,4.0379,4.0186,3.9441,3.8286,3.8455,3.8118,3.7397,3.629,3.5665,3.5304,3.4366,3.3933,3.3885,3.4366,3.4607,3.4751,0.0,0.0,3.909,0.0,0.0,0.0,0.0,0.0,0.0,0.0,0.0,0.0,0.0,0.0,0.0,0.0,0.0,0.0,4.1134,4.2179,4.3398,4.4647,4.6563,4.8449,5.0336,5.1033,5.1701,5.2368,5.2391,5.2978,5.4226,5.4168,5.4168,5.4168,5.4168,5.3471,5.2333,5.1643,5.1381,5.1207,4.8595,4.7201,4.6372,4.3834,4.1686,3.9973,3.9421,3.8783,3.8202,3.8202,3.8231,3.826,3.8318,3.8347,3.8609,3.9915,4.1279,4.3195,4.6969,4.8914,5.0685,5.382,5.4052,5.35,5.3471,5.2862,5.1614,4.9146,4.8478,4.7579,4.514,4.5198,4.5504,4.5052,4.709,4.9207,5.0607,4.9031,4.8486,5.064,4.6535,4.4091,4.5474,0.0,0.0,4.5422,0.0,4.6476,4.7054,4.7043,4.7043,4.7043,4.7043,4.6828,4.6326,4.4926,4.3342,4.1663,4.1402,4.0941,4.0331,3.9826,3.9296,3.8743,3.8214,3.7974,3.7781,3.5713,3.5449,3.6074,3.3573,3.3477,3.4679,3.4198,3.4342,3.4703,0.0,0.0,0.0,0.0,0.0,0.0,0.0,0.0,0.0,0.0,0.0,0.0,0.0,0.0,0.0,0.0,0.0,0.0,4.1076,4.0931,4.1192,4.2034,4.3921,4.5401,4.633,4.7462,4.8595,4.9698,4.9233,4.9407,5.0191,4.9727,4.9494,4.9494,4.9494,4.932,4.8972,4.8333,4.8333,4.8478,4.543,4.4414,4.4443,4.1831,4.0263,3.9421,3.9247,3.8783,3.8202,3.8202,3.8522,3.9102,4.006,4.035,4.0699,4.2469,4.4589,4.6969,4.9843,5.1933,5.3704,5.5474,5.472,5.3384,5.292,5.083,4.8682,4.7503,4.5024,4.2847,4.2179,4.2208,4.3226,4.589,4.7685,4.9808,5.3051,5.3443,5.2368,4.9898,5.0449,4.9592,4.5879,4.7612,0.0,0.0,4.5447,4.5472,4.6476,4.6527,4.6527,4.6527,4.6527,4.6451,4.6301,4.5078,4.3721,4.2287,4.2174,4.1457,4.011,3.9964,3.9298,3.819,3.8046,3.7757,3.73,3.5954,3.5352,3.5087,3.4006,3.3838,3.4222,3.4486,3.4655,3.4703,0.0,0.0,0.0,0.0,0.0,0.0,0.0,0.0,0.0,0.0,0.0,0.0,0.0,0.0,0.0,0.0,0.0,0.0,0.0,4.0757,4.0583,4.0641,4.1453,4.2034,4.2382,4.2818,4.3544,4.456,4.4182,4.4472,4.5372,4.5024,4.4995,4.5285,4.5285,4.5285,4.5227,4.4589,4.4705,0.0,0.0,4.1889,4.2498,4.0466,3.9654,3.9567,3.9305,3.8957,3.8783,3.9625,4.0147,4.0641,4.1628,4.2498,4.3631,4.5866,4.8101,5.0452,5.3007,5.472,5.591,5.6636,5.5358,5.3413,5.1352,4.9262,4.7027,4.4414,4.2382,4.0757,3.9625,3.9654,4.0815,4.3834,4.582,4.8461,5.2633,5.3555,5.3414,5.2449,5.2648,5.1889,4.9334,5.0209,5.0367,0.0,4.7398,4.6527,4.6301,4.6301,4.6301,4.6301,4.6301,4.6075,4.5573,4.4602,4.3554,4.2513,4.2121,4.1355,4.019,3.9946,3.9306,3.8344,0.0,3.8016,3.7577,3.5956,3.5232,3.504,3.3837,3.3598,3.403,3.4318,3.4583,3.4703,0.0,0.0,0.0,0.0,0.0,0.0,0.0,0.0,0.0,0.0,3.9131,3.9509,4.0728,4.0931,0.0,0.0,0.0,0.0,0.0,0.0,4.0757,4.0263,3.9654,3.9334,3.9334,3.8754,3.8696,3.9189,3.9189,3.9712,4.0699,4.0699,4.1018,4.157,4.157,4.157,4.1541,4.096,4.1047,4.1424,3.9741,3.9741,4.0612,0.0,3.9509,3.9915,3.9392,3.9247,3.9596,4.1366,4.2121,4.2498,4.3369,4.4908,4.6882,4.9465,5.1527,5.35,5.6084,5.71,5.7448,5.7448,5.5823,5.3268,4.9582,4.7898,4.5808,4.1076,4.0437,4.0031,3.7825,3.7912,3.9044,4.125,4.3602,4.6737,5.1352,5.2109,5.3236,5.5954,5.4062,5.2809,5.3526,5.2512,5.1859,5.189,5.0527,4.8911,4.7027,4.6866,4.673,4.6654,4.6305,4.5632,4.4749,4.3894,4.3141,4.2569,4.1768,4.1114,4.0518,3.9952,3.9357,3.8788,3.8579,3.8323,3.8004,3.5862,3.5136,3.5232,3.3404,3.326,3.4006,3.4078,3.439,3.4703,0.0,0.0,0.0,0.0,0.0,0.0,0.0,0.0,0.0,0.0,3.8725,3.8667,0.0,0.0,0.0,0.0,0.0,0.0,0.0,0.0,0.0,4.0902,4.0292,3.9944,3.9944,3.9828,3.9567,3.9189,3.9189,3.9044,3.8696,3.8696,3.8783,3.887,3.887,3.887,3.887,3.8754,3.8783,3.8841,3.8522,3.8522,3.8725,3.9073,0.0,0.0,3.9247,3.9509,4.0089,4.096,4.2324,4.4037,4.6243,4.7898,4.9524,5.2107,5.3849,5.5474,5.8087,5.8464,5.8116,5.8116,5.5503,5.2165,4.9378,4.6185,4.3108,4.0612,3.9363,3.858,3.8115,3.858,4.0176,4.366,4.5518,4.8246,5.3297,5.4442,5.4957,5.5507,5.6023,5.5594,5.3723,5.5164,0.0,0.0,5.2639,5.2033,5.0228,4.9572,4.9063,4.8525,4.6168,4.503,4.5356,4.4294,4.3482,4.2905,4.2298,4.1584,4.0819,4.0273,3.9569,3.8788,3.8736,0.0,3.7035,3.6183,3.5235,3.4222,3.3862,3.3838,3.4054,3.4486,3.4703,3.4775,0.0,0.0,0.0,0.0,0.0,0.0,0.0,3.8986,3.9305,3.9625,3.9392,3.9305,3.9625,3.9654,3.9886,0.0,0.0,0.0,0.0,0.0,0.0,0.0,0.0,0.0,4.0612,4.0263,3.9944,3.9683,0.0,3.9334,3.8725,3.9044,3.9015,3.8725,3.9044,3.9189,3.9189,3.9189,3.9189,3.9189,3.9189,3.9015,0.0,0.0,0.0,0.0,3.9683,3.9654,3.9828,4.1163,4.2673,4.4443,4.6969,4.9117,5.112,5.3384,5.5155,5.681,5.8784,5.9306,5.9045,5.8029,5.5155,5.1606,4.7608,4.456,4.1773,3.9189,3.8405,3.8202,3.8202,3.8754,4.0031,4.2498,4.3979,4.6505,5.1323,5.2833,5.407,5.5736,5.6762,5.6822,5.5586,5.6307,5.6161,5.4627,5.4259,5.3078,5.0939,4.9956,4.9113,4.8489,4.6851,4.607,4.6408,4.497,4.416,4.3878,4.2739,4.1802,4.1089,4.0539,3.9937,3.9258,3.9102,3.8529,3.7562,3.6627,3.5673,3.4822,3.4388,3.4244,3.4244,3.4631,3.4775,3.4775,0.0,0.0,0.0,0.0,0.0,0.0,3.9102,3.9305,3.9625,4.0234,4.0321,4.0263,4.0118,3.9683,3.9538,0.0,0.0,0.0,0.0,0.0,0.0,0.0,0.0,0.0,0.0,0.0,0.0,4.0321,4.0321,0.0,0.0,0.0,0.0,0.0,3.9683,3.9915,3.9915,4.0031,3.9944,0.0,0.0,3.9741,0.0,0.0,0.0,0.0,0.0,3.9596,3.945,4.1105,4.2528,4.395,4.6098,4.8885,5.173,5.3413,5.5503,5.7594,5.8929,5.9655,5.9568,5.7768,5.4604,5.0763,4.5982,4.3224,4.0844,3.7912,3.7796,3.8202,3.8202,3.8638,3.9392,4.067,4.1976,4.4327,4.8653,5.0627,5.2746,5.5823,5.6839,0.0,5.7303,5.6752,0.0,5.62,5.4894,5.322,5.1208,4.9803,4.8872,4.8567,4.7538,4.7105,4.7397,4.5795,4.5047,4.5021,4.3429,4.246,4.1972,4.1283,4.0747,4.0364,4.016,3.9575,3.8667,3.7493,3.6574,3.5833,3.5011,3.4672,3.4764,3.492,3.492,3.4872,0.0,0.0,0.0,0.0,0.0,0.0,3.9102,3.9654,4.0263,4.0931,4.1018,4.0786,4.0176,4.006,3.9828,0.0,0.0,0.0,0.0,0.0,0.0,0.0,0.0,0.0,0.0,0.0,0.0,4.1018,4.1018,0.0,0.0,0.0,0.0,0.0,0.0,3.9276,3.9334,3.9857,0.0,0.0,0.0,0.0,0.0,0.0,0.0,0.0,0.0,3.9247,3.9305,4.0031,4.1163,4.2411,4.3195,4.6795,5.0917,5.1672,5.4458,5.7594,5.8929,5.9335,5.9045,5.7652,5.3588,4.9059,4.5647,4.2528,3.9712,3.7709,3.7796,3.8202,3.8202,3.826,3.8725,3.9973,4.1308,4.3544,4.7404,5.0075,5.2601,5.5184,5.6578,0.0,5.7303,5.6752,5.6142,5.5533,5.3791,5.2694,5.2457,5.0261,4.9478,5.0443,4.7799,4.6898,4.7903,4.6739,4.6162,4.6162,4.4924,4.4357,4.4276,4.3094,4.2555,4.2501,4.2501,4.147,0.0,3.9168,3.8148,3.6871,3.5881,3.5581,3.5739,3.559,3.538,3.5163,0.0,0.0,0.0,0.0,0.0,0.0,3.9044,3.9712,4.035,4.1018,4.1453,4.1453,4.0786,4.035,3.9683,3.8696,3.9189,0.0,0.0,0.0,0.0,0.0,0.0,0.0,0.0,0.0,4.157,4.1686,4.1686,0.0,0.0,0.0,0.0,0.0,0.0,4.0554,4.0902,4.035,0.0,0.0,0.0,0.0,0.0,0.0,0.0,0.0,0.0,0.0,3.8696,3.9334,3.9915,4.0408,4.0641,4.2644,4.5576,4.8885,5.1788,5.4429,5.6897,5.8116,5.829,5.6578,5.2891,4.874,4.5169,4.1889,3.9131,3.7622,3.7506,3.768,3.768,3.768,3.7709,3.7796,3.7941,3.9392,4.3224,4.4995,4.755,5.202,5.4023,5.5329,0.0,0.0,5.5213,5.3791,5.263,5.1846,5.149,5.0565,5.0054,5.0075,4.8966,4.8574,4.9001,4.7892,4.7331,4.7331,4.6168,4.5234,4.4579,4.4117,4.347,4.2792,4.2792,4.2199,0.0,4.0541,3.9774,3.8865,3.79,3.72,3.677,3.6561,3.6001,3.5428,0.0,0.0,0.0,0.0,0.0,3.7941,3.9044,3.9567,4.006,4.0728,4.1221,4.1337,4.0844,4.0205,3.9479,3.858,3.8754,0.0,0.0,0.0,0.0,0.0,0.0,0.0,0.0,0.0,4.1628,4.2092,4.2092,4.1395,0.0,0.0,4.0989,4.0118,0.0,0.0,0.0,0.0,0.0,0.0,0.0,0.0,0.0,0.0,0.0,0.0,0.0,0.0,0.0,0.0,0.0,3.9131,3.8754,3.9392,4.1134,4.5692,4.8798,5.1381,5.4226,5.6055,5.681,5.5242,5.1817,4.8043,4.4966,4.1482,3.8725,3.7999,3.7564,3.7418,3.7796,3.7564,3.7099,3.6431,3.6112,3.7106,4.035,4.1889,4.4443,4.9262,5.1352,5.2949,5.4429,5.4923,5.4342,5.2426,5.1875,5.1265,5.0423,5.0415,5.0211,4.9746,4.9717,4.9717,4.9717,4.8902,4.8389,4.8219,4.7192,4.62,4.5225,4.5059,4.4505,4.3701,4.3701,4.331,0.0,4.1791,4.1215,4.0703,3.9392,3.8649,3.8198,3.7789,3.7171,3.6449,0.0,0.0,0.0,0.0,0.0,3.8434,3.9102,3.9218,3.9421,4.0031,4.0118,4.0118,4.0118,3.9567,3.9189,3.9189,3.858,0.0,0.0,0.0,0.0,0.0,0.0,0.0,4.2092,4.2092,4.2092,4.2092,4.2092,4.1395,4.0089,4.0118,4.0118,4.0089,0.0,0.0,0.0,0.0,0.0,0.0,0.0,0.0,0.0,0.0,0.0,0.0,0.0,0.0,0.0,0.0,0.0,0.0,0.0,3.7738,3.887,4.2092,4.575,4.9175,5.1149,5.3065,5.44,5.3704,5.0162,4.6505,4.5169,4.1424,3.8405,3.9044,3.8173,3.768,3.8957,3.8144,3.7099,3.6431,3.6867,3.7941,3.9828,4.2324,4.4937,4.7491,4.8972,5.0511,5.2449,5.3762,5.3733,5.1788,5.1614,0.0,4.9805,4.9746,4.9746,4.9717,4.9717,4.9717,4.9717,4.9669,4.9349,4.8692,4.8101,4.7416,4.6778,4.614,4.5895,4.5895,4.5895,4.5247,0.0,4.2992,4.2441,4.2167,4.0028,3.9623,4.0074,3.9404,3.9006,3.8622,0.0,0.0,0.0,0.0,0.0,0.0,3.8434,3.8899,3.9276,3.945,3.9828,4.0089,4.0089,3.916,3.8696,3.916,3.858,0.0,0.0,0.0,0.0,0.0,0.0,0.0,4.2063,4.1657,4.1628,4.2092,4.1628,4.1192,4.0757,4.0321,4.035,4.0757,4.0292,4.0728,0.0,0.0,0.0,0.0,0.0,0.0,0.0,0.0,0.0,0.0,0.0,0.0,0.0,0.0,0.0,0.0,0.0,0.0,0.0,4.0466,4.3137,4.6011,4.8362,4.9756,5.0394,4.9756,4.7521,4.5053,4.3369,4.0844,3.8957,3.916,3.8522,3.8057,3.8434,3.7854,3.7244,3.7041,3.678,3.7302,3.9218,4.1337,4.3805,4.6766,5.0191,5.2717,0.0,0.0,5.321,5.173,5.1614,5.1033,4.9805,4.9717,4.9717,4.9717,4.9717,4.9717,4.9717,4.9717,4.9349,4.8663,4.8537,4.7869,4.6778,4.6621,4.6301,4.5895,4.5895,4.5685,4.5326,4.4464,4.4119,4.396,4.2409,4.1509,4.1063,4.0399,3.9711,3.8917,0.0,0.0,0.0,0.0,0.0,0.0,3.8144,3.8551,3.8812,3.8812,3.916,3.9392,3.9392,3.8667,3.8376,3.8783,3.8434,0.0,0.0,0.0,0.0,0.0,0.0,0.0,4.2063,4.1686,4.1686,4.2092,4.1686,4.1221,4.0699,4.0292,4.0321,4.0699,4.0292,4.0844,0.0,0.0,0.0,0.0,0.0,0.0,3.8783,0.0,0.0,0.0,0.0,0.0,0.0,0.0,0.0,0.0,0.0,0.0,0.0,0.0,4.125,4.3398,4.5721,4.6998,4.755,4.7172,4.5808,4.4182,4.276,4.0757,3.9334,3.9828,3.9015,3.8289,3.8522,3.7883,3.7157,3.6664,3.6228,3.6548,3.826,4.035,4.2992,4.6372,5.0162,0.0,0.0,5.3123,5.2717,5.1701,5.141,5.0801,4.9776,4.9717,4.9717,4.9717,4.9717,4.9717,4.9717,4.9436,4.9001,4.8362,4.8083,4.7462,4.6475,4.6475,4.6272,4.5895,4.5895,4.5895,0.0,4.5169,4.4763,4.4443,4.3398,4.248,4.1753,4.1312,4.0802,4.0071,0.0,0.0,0.0,0.0,0.0,0.0,0.0,3.8202,3.8202,3.8202,3.8202,3.8173,3.8144,3.8144,3.8144,3.8144,3.8144,0.0,0.0,0.0,0.0,0.0,0.0,4.0728,4.2063,4.2092,4.2063,4.2034,4.2034,4.1395,4.0176,4.0089,4.0118,4.0234,4.0147,4.0844,4.2063,4.1337,4.067,4.0031,3.9392,3.8754,0.0,0.0,0.0,0.0,0.0,0.0,0.0,0.0,0.0,0.0,0.0,0.0,0.0,0.0,0.0,0.0,0.0,4.4705,4.5605,4.5605,4.4734,4.3689,4.3021,4.0989,0.0,4.0786,3.9567,3.8463,3.9131,3.8202,3.6954,3.5857,3.5625,3.606,3.7331,3.9857,4.2934,4.6546,4.9262,5.0822,5.0685,5.1788,5.2223,5.1614,5.1004,5.0394,4.9746,4.9717,4.9717,4.9717,4.9717,4.9717,4.9717,4.9059,4.842,4.7782,4.7143,4.6505,4.5895,4.5895,4.5895,0.0,4.5895,4.5895,4.5837,4.5169,4.456,4.3979,4.3282,4.2644,4.215,4.2121,4.2092,4.1814,0.0,0.0,0.0,0.0,0.0,0.0,0.0,0.0,0.0,0.0,3.8202,3.8028,3.7564,3.7506,3.7506,0.0,0.0,0.0,0.0,0.0,0.0,0.0,4.0089,4.0728,4.2063,4.2092,4.1831,4.1337,4.1337,4.1163,4.0844,3.9857,4.0205,4.1599,4.0554,4.0844,4.2005,4.0844,4.0234,4.0002,3.887,3.8347,0.0,0.0,0.0,0.0,3.8202,3.8289,0.0,0.0,0.0,0.0,0.0,0.0,0.0,0.0,4.0873,4.1308,4.2266,0.0,4.2992,4.2992,4.276,4.2353,0.0,4.0699,3.9973,4.0263,3.9596,3.916,3.977,3.8463,3.7535,3.8202,3.7883,3.797,3.9247,4.334,4.6911,4.8798,5.0859,5.1781,5.0822,5.1381,5.1585,5.0946,5.0772,5.0394,4.9746,4.9717,4.9717,4.9717,4.9717,4.9717,4.9717,4.9059,4.842,4.7782,4.7143,4.6505,4.5895,4.5895,4.5895,4.5895,4.5895,4.5895,4.5837,4.5169,4.4821,4.456,4.3427,4.2905,4.2731,4.2266,4.2092,4.1897,0.0,0.0,0.0,0.0,0.0,0.0,0.0,0.0,0.0,0.0,3.797,3.7564,3.6925,3.6838,3.6983,0.0,0.0,0.0,0.0,0.0,0.0,4.006,4.0379,4.1047,4.2063,4.2092,4.1773,4.1105,4.1105,4.0786,4.0205,3.9509,3.9915,4.1163,4.1076,4.125,4.1599,4.0873,4.0205,3.9625,3.8928,0.0,0.0,0.0,0.0,0.0,3.8202,3.8202,0.0,3.9683,4.0089,4.0263,0.0,0.0,0.0,0.0,4.1308,4.157,4.1628,4.186,4.2092,4.2092,4.2092,4.1918,4.125,4.0583,4.0176,4.0495,3.9828,3.9392,3.9973,3.9044,3.8289,3.8667,3.8696,3.9421,4.157,4.4531,4.7259,4.9436,5.0888,5.1556,0.0,5.1149,5.1033,5.0685,5.0444,5.0095,4.9698,4.9717,4.9717,4.9717,4.9378,4.9233,4.9233,4.8624,4.7985,4.7346,4.6708,4.6214,4.5895,4.5895,4.5895,4.5895,4.5895,4.5895,4.5866,4.5488,4.4995,4.4414,4.3718,4.3079,4.2557,4.2208,4.2092,4.1968,0.0,0.0,0.0,0.0,0.0,0.0,0.0,0.0,0.0,0.0,0.0,0.0,0.0,0.0,0.0,0.0,0.0,0.0,0.0,0.0,3.9625,4.0234,4.0786,4.1395,4.2092,4.2005,4.1628,4.0931,4.1047,4.0495,3.9334,3.9334,3.9596,4.0147,4.1279,4.1599,4.125,4.1018,4.0379,3.9479,3.9276,0.0,0.0,0.0,0.0,0.0,0.0,0.0,0.0,3.9567,3.9973,4.0176,4.1395,0.0,0.0,0.0,0.0,0.0,4.1279,4.1599,4.2092,4.2092,4.2092,4.1918,4.125,4.0641,4.035,4.0728,3.9944,3.9392,3.9973,3.9509,3.8928,3.8551,3.9131,4.0786,4.4095,4.5082,4.6505,4.9185,5.022,0.0,5.1149,5.0772,5.056,5.056,4.9988,4.9717,4.9717,4.9717,4.9717,4.9717,4.9059,4.8682,4.8566,4.7956,4.7375,4.6778,4.6185,4.5895,4.5895,4.5895,4.5895,4.5895,0.0,0.0,4.5721,4.5634,4.4908,4.3834,4.3747,4.305,4.2092,4.2092,4.2092,4.1968,0.0,0.0,0.0,0.0,0.0,0.0,0.0,0.0,0.0,0.0,0.0,0.0,0.0,0.0,0.0,0.0,0.0,0.0,0.0,3.9421,4.0263,4.0931,4.1047,4.1395,4.2092,4.1541,4.0931,4.0263,4.0815,4.0699,3.9973,3.9973,4.0002,4.0118,4.0321,4.0989,4.186,4.0728,4.0466,4.0699,3.9625,0.0,0.0,0.0,0.0,0.0,0.0,0.0,0.0,3.9073,3.9334,3.945,4.0176,0.0,0.0,0.0,0.0,0.0,4.1279,4.1599,4.2092,4.2092,4.2092,4.1918,4.125,4.1018,4.067,3.9683,3.9334,3.9392,3.9973,3.9131,3.8667,3.9654,4.0844,4.2963,4.6679,4.7753,4.8333,4.8779,0.0,5.0278,4.9262,4.9582,4.9814,4.9814,4.9776,4.9717,4.9717,4.9717,4.9717,4.9717,4.9059,4.8449,4.7927,4.7288,4.6865,4.6778,4.6185,4.5895,4.5895,4.5895,4.5895,4.5895,0.0,4.5576,4.4995,4.4501,4.3834,4.3079,4.2586,4.2266,4.2092,4.2092,4.2092,4.1968,0.0,0.0,0.0,0.0,0.0,0.0,0.0,0.0,0.0,0.0,0.0,0.0,0.0,0.0,0.0,0.0,0.0,0.0,3.9131,3.977,4.0408,4.1076,4.0757,4.0873,4.1541,4.1599,4.1308,4.0641,4.1308,4.1308,4.0641,4.0263,4.0089,4.0089,4.0089,4.0263,4.0525,4.0612,4.0408,4.006,0.0,0.0,0.0,0.0,0.0,0.0,0.0,0.0,0.0,0.0,3.9189,3.9305,3.9915,0.0,0.0,0.0,0.0,0.0,4.0641,4.1047,4.1541,4.1541,4.1831,4.2005,4.1715,4.1366,4.1047,4.0815,4.0205,4.0002,4.0989,4.096,4.1337,4.2963,4.3747,4.4879,4.6969,4.7521,4.7909,0.0,0.0,4.9524,4.9262,4.9494,4.9717,4.9717,4.9717,4.9717,4.9717,4.9717,4.9524,4.9175,4.8537,4.7898,4.7288,4.665,4.633,4.633,4.6011,4.5895,4.5895,4.5895,4.5895,4.5895,0.0,4.5518,4.4879,4.4589,4.4095,4.3456,4.2847,4.2586,4.2557,4.2208,4.2092,4.2051,0.0,0.0,0.0,0.0,0.0,0.0,0.0,0.0,0.0,0.0,0.0,0.0,0.0,0.0,0.0,0.0,0.0,3.8057,3.977,4.0031,4.0466,4.1308,4.0525,4.0408,4.1076,4.1599,4.1686,4.1337,4.1831,4.1744,4.1076,4.0408,4.0089,4.0089,3.9799,3.9567,3.9479,4.0437,4.0379,3.9683,0.0,0.0,0.0,0.0,0.0,0.0,0.0,0.0,0.0,0.0,0.0,0.0,0.0,0.0,0.0,3.9915,4.0089,4.0263,3.9973,4.0379,4.0902,4.1047,4.1599,4.2179,4.2469,4.215,4.1918,4.244,4.1715,4.1221,4.1976,4.2702,4.3805,4.5605,4.6272,4.6766,4.7404,4.7637,4.8043,4.8856,4.8943,4.9146,4.964,4.9717,4.9717,4.9717,4.9717,4.9611,4.9465,4.9465,4.9175,4.8537,4.7898,4.7317,4.6778,4.6214,4.5895,4.5895,4.5895,4.5895,4.5895,4.5895,4.5895,4.5866,4.5721,4.5285,4.4676,4.4501,4.4095,4.3485,4.2992,4.2789,4.2731,4.2266,4.2092,4.2092,0.0,0.0,0.0,0.0,0.0,0.0,0.0,0.0,0.0,0.0,0.0,0.0,0.0,0.0,0.0,0.0,3.6577,3.7854,3.9189,3.9799,4.067,4.1976,4.0786,4.0408,4.1076,4.1134,4.1453,4.2034,4.2063,4.1744,4.1076,4.0408,4.0089,4.0031,3.887,3.8957,4.0031,4.0118,4.0466,4.096,4.1018,0.0,0.0,0.0,0.0,0.0,0.0,0.0,0.0,0.0,0.0,0.0,0.0,0.0,3.9973,3.9421,4.0089,4.0757,3.9596,3.9712,4.0321,4.0931,4.1599,4.2411,4.3573,4.3805,4.3805,4.3834,4.3776,4.3369,4.2295,4.3108,4.4356,4.5663,4.7375,4.874,4.9378,5.0017,5.0191,4.9669,4.9611,4.964,4.9717,4.9717,4.9717,4.9717,4.9717,4.9407,4.8827,4.8798,4.8508,4.7869,4.723,4.6836,4.6778,4.6214,4.5895,4.5895,4.5895,4.5895,4.5895,4.5895,4.5895,4.5866,4.5227,4.4618,4.4008,4.3369,4.2789,4.2237,4.2179,4.215,4.215,4.2121,4.2092,4.2092,0.0,0.0,0.0,0.0,0.0,0.0,0.0,0.0,0.0,0.0,0.0,3.7535,3.6664,0.0,0.0,0.0,3.7506,3.8696,3.916,4.0147,4.0757,4.0844,4.0379,4.0031,3.9915,4.1105,4.1831,4.2092,4.2469,4.2528,4.2237,4.0786,4.0089,4.0031,3.8783,3.8463,3.8957,3.9363,3.9915,4.0466,4.0466,4.0728,0.0,0.0,0.0,0.0,0.0,0.0,0.0,0.0,3.8202,3.8231,3.8492,3.9015,3.9421,3.8783,3.9218,3.9712,3.8812,3.9334,4.0147,4.0408,4.1308,4.244,4.3689,4.4269,4.456,4.456,4.5198,4.5488,4.4618,4.485,4.5576,4.6853,4.8014,4.8943,4.963,4.9901,4.9959,4.9698,4.9717,4.9717,4.9717,4.9717,4.9524,4.9117,4.9088,4.8798,4.8159,4.813,4.784,4.7201,4.6923,4.665,4.6243,4.5605,4.5488,4.5895,4.5895,4.5895,4.5895,4.5895,4.5663,4.5256,4.4995,4.4298,4.334,4.3079,4.2847,4.2644,4.2644,4.2411,4.2092,4.2092,4.2092,4.2092,0.0,0.0,0.0,0.0,0.0,0.0,0.0,0.0,3.7535,0.0,0.0,0.0,0.0,3.7302,0.0,0.0,3.8202,3.9276,3.9479,4.0495,4.0989,4.0728,4.0321,4.0089,4.0118,4.1221,4.1889,4.2092,4.2702,4.2905,4.2673,4.1134,4.0408,4.035,3.9073,3.8522,3.8551,3.9218,3.9712,4.0118,4.0321,4.0699,0.0,0.0,0.0,0.0,0.0,0.0,0.0,0.0,3.8202,3.8231,3.8463,3.8841,3.9102,3.8667,3.8841,3.9044,3.8376,3.8841,3.9538,3.977,4.096,4.2469,4.395,4.4908,4.5663,4.6272,4.6475,4.6534,4.6505,4.6156,4.6301,4.7579,4.8653,4.9407,4.964,4.9892,4.995,4.9746,4.9717,4.9717,4.9717,4.9494,4.9204,4.8721,4.8537,4.8159,4.7521,4.7491,4.7201,4.6563,4.633,4.6011,4.5576,4.4937,4.4821,4.5285,4.5285,4.5372,4.5576,4.5372,4.5024,4.4589,4.4385,4.3805,4.2992,4.2789,4.2702,4.2702,4.2702,4.244,4.2092,4.2092,4.2092,4.2092,0.0,0.0,0.0,0.0,0.0,0.0,0.0,0.0,3.7535,3.8115,3.8202,0.0,0.0,0.0,0.0,0.0,3.8492,3.9479,4.006,4.0728,4.1395,4.2063,4.0815,4.0728,4.2034,4.1424,4.1424,4.2092,4.2702,4.2673,4.2092,4.1395,4.1105,4.1047,3.977,3.9218,3.9247,3.9828,4.0089,4.0147,4.0815,4.1076,4.1018,0.0,0.0,0.0,0.0,0.0,0.0,0.0,3.8202,3.8318,3.8986,3.9189,3.9189,3.9189,3.9189,3.9073,3.8376,3.8202,3.8376,3.9044,4.067,4.2586,4.4472,4.5924,4.7375,4.9291,4.7666,4.6301,4.755,4.6766,4.633,4.7579,4.9407,5.0423,4.9805,5.0299,5.0423,4.9805,4.9717,4.9717,4.9717,4.9088,4.8663,4.8663,4.813,4.7491,4.6807,4.6778,4.6534,4.5895,4.5227,4.4879,4.4879,4.4298,4.3979,4.3979,4.3979,4.4298,4.485,4.4269,4.3979,4.395,4.3282,4.2992,4.2934,4.2353,4.2092,4.2092,4.2092,4.2092,4.2092,4.2092,4.2092,4.2092,0.0,0.0,0.0,0.0,0.0,0.0,0.0,0.0,3.7535,3.8115,3.8202,0.0,0.0,0.0,0.0,0.0,0.0,4.0612,4.0786,4.1424,4.1686,4.1395,4.1453,4.1047,4.0089,3.9857,4.0525,4.2092,4.2702,4.2673,4.2092,4.1395,4.1105,4.1047,4.0205,3.9596,3.9218,3.9392,3.9479,3.9509,4.0147,4.067,4.1076,0.0,0.0,0.0,0.0,0.0,0.0,0.0,0.0,0.0,3.7941,3.8783,3.9479,3.768,3.8434,3.9509,3.7999,3.8231,3.916,4.0263,4.1628,4.334,4.5721,4.6882,4.8043,4.9988,4.9059,4.7985,4.8362,4.7782,4.7346,4.7724,4.8624,4.9378,4.964,4.9892,4.9901,4.9698,4.9717,4.9494,4.9059,4.8827,4.8315,4.7416,4.723,4.6824,4.6214,4.6156,4.6069,4.5895,4.5227,4.4879,4.4879,4.3834,4.3515,4.3979,4.3079,4.3224,4.424,4.4066,4.3747,4.3282,4.3079,4.276,4.2353,4.2179,4.2092,4.2092,4.2092,4.2092,4.2092,4.2092,4.2092,4.2092,0.0,0.0,0.0,0.0,0.0,0.0,3.768,3.768,3.7796,3.8144,3.8202,3.8202,0.0,0.0,0.0,3.9189,4.035,4.1105,4.1105,4.1715,4.1918,4.1512,4.1628,4.0931,3.9247,3.9973,4.0554,4.096,4.1541,4.1802,4.1686,4.1279,4.125,4.1453,4.0786,4.0147,3.9567,3.9567,3.9567,3.9596,3.9944,4.0495,4.1076,0.0,0.0,0.0,0.0,0.0,0.0,0.0,0.0,0.0,3.7854,3.8434,3.9044,3.7506,3.8144,3.9102,3.797,3.8418,3.9466,4.0808,4.265,4.4837,4.7414,4.8687,4.9795,5.157,5.0437,4.9204,4.9465,4.8566,4.7956,4.8449,4.8856,4.9233,4.9611,4.9717,4.9717,4.9717,4.9717,4.9436,4.8798,4.8508,4.7927,4.6865,4.6592,4.6185,4.5518,4.5488,4.5372,4.514,4.4472,4.4124,4.4124,4.3137,4.2847,4.3224,4.2469,4.2498,4.3224,4.3224,4.3021,4.2644,4.2644,4.244,4.2092,4.2092,4.2092,4.2092,4.2092,4.2092,4.2092,4.2092,4.2092,4.2092,0.0,0.0,3.8202,3.8202,0.0,0.0,3.8202,3.8202,3.8202,3.8202,3.8202,3.8202,0.0,0.0,0.0,3.9276,4.0437,4.1192,4.1192,4.1773,4.2063,4.2005,4.1366,4.0495,3.9392,4.1047,4.1047,3.9276,3.9886,4.0495,4.1105,4.1105,4.1453,4.2063,4.1453,4.0786,4.0089,4.0176,4.0118,4.0031,4.0147,4.0554,4.1018,4.0408,0.0,0.0,0.0,0.0,0.0,0.0,0.0,0.0,3.8347,3.8231,3.8318,3.8115,3.8144,3.826,3.8219,3.8774,3.9721,4.1105,4.3905,4.7008,4.9613,5.0905,5.1975,5.3207,5.1522,4.9988,5.0569,4.9223,4.8333,4.9543,4.9717,4.9717,4.9717,4.9717,4.9688,4.9582,4.9582,4.932,4.8624,4.8043,4.7433,4.6749,4.6214,4.5605,4.4937,4.4879,4.4618,4.4008,4.334,4.2992,4.2992,4.2382,4.2092,4.2092,4.2092,4.2092,4.2092,4.2092,4.2092,4.2092,4.2092,4.2092,4.2092,4.2092,4.2092,4.2092,4.2092,4.2092,4.2092,4.2092,4.2092,4.2092,0.0,0.0,3.8202,3.8202,0.0,0.0,3.8202,3.8202,3.8202,3.8202,3.8202,3.8202,3.8202,3.9218,0.0,3.9915,4.1105,4.1889,4.1889,4.2005,4.186,4.1337,4.067,4.0437,4.0699,4.0583,4.0321,3.9915,4.0554,4.096,4.1105,4.1105,4.1453,4.2092,4.1947,4.1221,4.0118,4.067,4.0321,3.9479,4.0466,4.096,4.1076,4.0931,4.0873,0.0,0.0,0.0,0.0,0.0,0.0,0.0,3.7854,3.8522,3.9305,3.7302,3.7796,3.8868,3.8296,3.9802,4.1936,4.3747,4.7008,5.0404,5.2579,5.2399,5.1532,5.0759,5.0543,5.0511,5.0656,4.9901,4.9398,4.9688,4.9717,4.9717,4.9717,4.9717,4.9494,4.9001,4.8943,4.8478,4.73,4.7068,4.6766,4.6127,4.5953,4.5605,4.4937,4.4879,4.4618,4.4008,4.334,4.2992,4.2992,4.2382,4.2092,4.2092,4.2092,4.2092,4.2092,4.2092,4.2092,4.2092,4.2092,4.2092,4.2092,4.2092,4.2092,4.2092,4.2092,4.2092,4.2092,4.2092,4.2092,4.2092,0.0,0.0,0.0,0.0,0.0,0.0,0.0,0.0,3.858,3.8231,3.8202,3.8202,3.8202,3.9334,0.0,0.0,4.1337,4.2092,4.2092,4.2092,4.1657,4.067,4.0292,3.9973,3.9712,3.9683,3.9683,3.9683,4.0031,4.0495,4.1105,4.1424,4.1918,4.2528,4.2528,4.1802,4.0583,4.0612,4.006,3.9276,4.0234,4.0815,4.1047,4.0728,4.0815,4.0931,3.9654,0.0,0.0,0.0,0.0,0.0,0.0,0.0,3.9421,3.8086,3.8564,3.9509,3.9172,4.0768,4.3304,4.6554,4.9674,5.2209,5.3276,5.2933,5.2057,5.0994,5.073,5.0618,5.0299,4.995,4.9717,4.9717,4.9717,4.9717,4.9717,4.9407,4.9088,4.8769,4.8449,4.7898,4.6865,4.6778,4.6563,4.5924,4.5576,4.514,4.4501,4.4153,4.3689,4.3108,4.2731,4.2557,4.2557,4.2266,4.1947,4.1628,4.1947,4.2092,4.2092,4.2092,4.2092,4.2092,4.2092,4.2092,4.2092,4.2092,4.2092,4.2092,4.2092,4.2092,4.2092,4.2092,4.2092,4.2092,0.0,0.0,0.0,0.0,0.0,0.0,0.0,0.0,0.0,3.8289,3.8289,3.8347,3.8202,3.945,4.0234,0.0,0.0,0.0,4.2092,4.1889,4.125,4.0147,4.0002,3.9509,3.8551,3.9189,3.9538,3.9538,3.9654,4.035,4.1599,4.1947,4.2469,4.3166,4.305,4.2295,4.1047,4.0495,3.9857,3.9247,3.9857,4.0495,4.1018,4.0234,4.035,4.0757,3.9479,3.9363,3.9683,3.9189,0.0,0.0,0.0,0.0,3.9334,3.9247,3.9358,3.9602,3.998,4.1778,4.4617,4.8993,5.156,5.2984,5.2859,5.2834,5.2661,5.2047,5.1387,5.075,5.0193,4.996,4.9863,4.9863,4.9766,4.964,4.9524,4.9059,4.8605,4.8373,4.7927,4.7375,4.6737,4.665,4.6388,4.575,4.5198,4.4589,4.3863,4.3282,4.2702,4.2121,4.2092,4.2092,4.2092,4.2092,4.1831,4.1279,4.1715,4.1976,4.2092,4.1976,4.1976,4.2092,4.1976,4.1976,4.2092,4.1976,4.2005,4.2092,4.2092,4.2092,4.2092,4.2092,4.2092,4.2092,0.0,0.0,0.0,0.0,0.0,0.0,0.0,0.0,0.0,0.0,3.8725,3.8841,3.826,3.9857,4.0728,4.0147,4.1337,4.2092,4.2092,0.0,0.0,4.0118,3.9596,3.9479,3.9828,4.0495,4.0844,4.0844,4.1424,4.2353,4.3573,4.2557,4.2731,4.3834,4.3253,4.2295,4.1076,4.0989,4.0292,3.9247,3.9857,4.0495,4.096,3.977,3.9712,4.006,3.8783,3.8405,3.8434,3.8347,3.9073,0.0,0.0,0.0,3.9886,3.9363,3.8443,3.7982,3.9535,4.3035,4.7012,5.0089,5.1966,5.2891,5.2261,5.2153,5.2082,5.1994,5.1849,5.1725,5.1635,5.1075,5.065,5.065,5.0105,4.9494,4.8943,4.8769,4.8257,4.7155,4.6952,4.6708,4.6069,4.6011,4.575,4.5082,4.4937,4.4356,4.3195,4.305,4.2702,4.2121,4.2092,4.2092,4.2092,4.2092,4.2063,4.1947,4.1453,4.1541,4.2063,4.1482,4.1541,4.2063,4.1482,4.157,4.2063,4.1482,4.157,4.2092,4.2092,4.2092,4.2092,4.2092,4.2092,4.2092,0.0,0.0,0.0,0.0,0.0,0.0,0.0,0.0,0.0,0.0,0.0,3.9596,3.9305,4.035,4.0989,4.0699,4.1192,4.1541,4.1541,4.0321,3.9741,4.0089,3.916,3.8754,3.9015,3.9683,4.0205,4.0525,4.1221,4.2557,4.4472,4.4298,4.4705,4.5547,4.4501,4.3573,4.2644,4.1541,4.035,3.9305,4.0263,4.0612,4.0466,3.9915,3.9857,3.9915,3.8667,3.8202,3.8202,3.8202,3.8812,3.9596,3.9683,0.0,0.0,0.0,4.003,4.0224,4.2093,4.4642,4.7372,4.9773,5.1164,5.1922,5.1986,5.1989,5.1998,5.1998,5.1962,5.1933,5.1896,5.1009,5.0258,5.0228,4.9597,4.8914,4.8275,4.7898,4.7416,4.6865,4.6505,4.6185,4.5924,4.5895,4.5605,4.4937,4.4589,4.3979,4.305,4.2673,4.2353,4.2121,4.2092,4.2092,4.2092,4.2092,4.2092,4.2092,4.1424,4.125,4.1541,4.1628,4.1831,4.2063,4.1395,4.1279,4.1482,4.0815,4.0699,4.0989,4.0989,4.0989,4.1018,4.1395,4.1541,4.1599,0.0,0.0,0.0,0.0,0.0,0.0,0.0,0.0,0.0,0.0,0.0,4.0292,4.0118,0.0,0.0,0.0,4.125,4.1279,4.1105,4.0205,3.9741,3.9857,3.9102,3.8522,3.8202,3.9189,3.9828,4.0089,4.1105,4.2876,4.5401,4.5895,4.6824,4.7938,4.6359,4.5198,4.4356,4.2411,4.1018,4.0205,4.067,4.0641,4.0321,4.0147,4.0089,3.9944,3.8841,3.8347,3.8202,3.8202,3.8638,3.9305,3.9915,4.0437,0.0,0.0,0.0,4.1675,4.3278,4.476,4.627,4.8345,4.9552,5.0374,5.1069,5.1353,5.1543,5.1701,5.1606,5.156,5.1867,5.088,5.0079,5.0095,4.9453,4.8764,4.8165,4.7483,4.6907,4.6586,4.6014,4.5576,4.543,4.5401,4.514,4.4443,4.3979,4.3456,4.2789,4.2324,4.2092,4.2092,4.2092,4.2092,4.2092,4.2092,4.2092,4.2092,4.1424,4.1192,4.1366,4.1686,4.1947,4.2063,4.1395,4.1192,4.1279,4.0437,4.0205,4.035,4.035,4.035,4.0437,4.1105,4.1337,4.1424,0.0,0.0,0.0,0.0,0.0,0.0,0.0,0.0,0.0,0.0,0.0,4.0815,4.0176,4.1279,4.1773,4.1163,4.1686,4.1773,4.1134,4.1047,4.0466,3.9305,3.9741,0.0,3.8231,4.0031,4.0699,4.0089,4.1976,4.4211,4.6691,4.672,4.8373,5.1265,4.874,4.694,4.5663,4.3718,4.2847,4.2644,4.0873,4.0495,4.0989,4.035,4.0089,4.0031,3.9392,3.8754,3.8202,3.8202,3.8638,3.9305,3.9915,4.0118,4.0265,0.0,0.0,0.0,4.0904,4.2066,4.3572,4.552,4.7056,4.8225,4.8889,4.9552,5.0216,5.0879,5.05,5.0429,5.1736,5.1339,5.0839,5.0839,5.0201,4.9549,4.8914,4.8193,4.7288,4.6116,4.5332,4.4705,4.4153,4.4095,4.3805,4.3137,4.305,4.2789,4.2179,4.2121,4.2092,4.2092,4.2092,4.2092,4.2092,4.2092,4.2092,4.2092,4.1424,4.1424,4.2034,4.1424,4.1482,4.2063,4.1395,4.1453,4.1947,4.0641,4.0466,4.1047,4.1047,4.1047,4.1134,4.1802,4.2034,4.2063,0.0,0.0,0.0,0.0,0.0,0.0,0.0,0.0,0.0,0.0,0.0,0.0,0.0,4.1802,4.2005,4.1773,4.157,4.1366,4.1105,4.0699,4.0437,4.0408,4.0205,3.9886,3.9421,4.0525,4.0989,4.0728,4.186,4.3515,4.5605,4.6446,4.7666,4.9117,4.8188,4.7521,4.6969,4.5024,4.3747,4.2963,4.2702,4.2469,4.2208,4.1134,4.0728,4.0554,3.9073,3.8405,3.8277,3.8649,3.9172,3.9761,3.9967,4.055,4.1324,4.196,4.1934,4.1838,4.2513,4.2736,4.3022,4.4173,4.5159,4.5918,4.6139,4.7087,4.8004,4.8256,4.8478,4.8762,4.9268,4.9872,5.0286,5.0328,4.9702,4.8862,4.777,4.7377,4.6876,4.5943,4.5645,4.5221,4.4634,4.4562,4.4128,4.3092,4.2992,4.2731,4.2121,4.2092,4.2092,4.2092,4.2092,4.2092,4.2092,4.2092,4.2092,4.2092,4.186,4.1628,4.1453,4.1657,4.1628,4.1453,4.1657,4.1628,4.1395,4.0466,4.0234,4.0466,4.0466,4.0466,4.0525,4.1221,4.1453,4.1512,0.0,0.0,0.0,0.0,0.0,4.2469,4.2702,4.2382,4.2237,4.2673,0.0,0.0,0.0,0.0,4.2324,4.2121,4.1686,4.1424,4.1424,4.1018,4.0873,4.1076,4.0873,4.0554,4.0118,4.0989,4.1337,4.1105,4.1976,4.3253,4.4908,4.6011,4.7085,4.8072,4.7666,4.7811,4.8304,4.6592,4.5372,4.4589,4.4385,4.4037,4.3544,4.2702,4.2237,4.1889,4.0612,3.9857,3.9625,4.0208,4.0396,4.0396,4.0898,4.1519,4.2279,4.2963,4.2954,4.2899,4.351,4.3063,4.2679,4.3763,4.3864,4.3927,4.4875,4.5444,4.595,4.6645,4.7182,4.7624,4.7846,4.8624,4.925,4.9291,4.8852,4.8255,4.7373,4.7017,4.661,4.5898,4.5606,4.5233,4.4616,4.4545,4.4203,4.3378,4.3101,0.0,4.2718,4.2339,4.2092,4.2092,4.2092,4.2092,4.2092,4.2092,4.2092,4.2092,4.2092,4.186,4.1453,4.1889,4.186,4.1453,4.1918,4.1831,4.1366,4.0699,4.0437,4.0437,4.0437,4.0437,4.0525,4.1192,4.1424,4.1482,0.0,0.0,4.4008,4.4008,4.3456,4.3224,4.3892,4.2934,4.2586,4.3805,0.0,0.0,0.0,0.0,0.0,4.2179,4.2121,4.2121,4.2092,4.2092,4.1802,4.1163,4.1744,4.1482,4.0176,4.1424,4.1773,4.1134,4.2353,4.3602,4.485,4.5547,4.6853,4.8595,4.7329,4.7898,4.9524,4.8246,4.7724,4.7579,4.5692,4.4937,4.4937,4.4879,4.4501,4.3979,4.395,4.3166,4.2245,4.289,4.2188,4.1343,4.2599,4.2916,4.2917,4.3598,4.3392,4.3074,0.0,0.0,0.0,4.4134,4.3074,4.2284,4.5033,4.4591,4.4246,4.6266,4.6676,4.6929,4.7656,4.7782,4.7782,4.7814,4.7846,4.7877,4.7877,4.7247,4.6578,4.5966,4.5331,4.4664,4.3988,4.3927,4.3927,4.3888,4.3379,4.326,4.3888,4.2769,4.2104,4.2092,4.2063,4.2063,4.2092,4.2092,4.2092,4.2092,4.2092,4.2092,4.2092,4.2092,4.2092,4.2092,4.2092,4.2092,4.2034,4.1395,4.1134,4.1134,4.1134,4.1134,4.1221,4.186,4.2092,4.2092,0.0,4.4966,4.4647,4.4647,4.4124,4.3776,4.395,4.3689,4.3427,0.0,0.0,0.0,4.305,4.3427,4.3456,4.2789,4.2731,4.2557,4.2121,4.2092,4.2005,4.1831,4.2005,4.1918,4.1541,4.1918,4.2005,4.1831,4.2179,4.2731,4.3544,4.4647,4.5692,4.6708,4.7259,4.7811,4.8217,4.694,4.6679,4.6998,4.6011,4.5866,4.6156,4.4763,4.4124,4.3863,4.2963,4.2673,4.2756,4.2917,4.3319,4.3789,4.3547,4.3198,4.2967,4.3541,4.3965,4.4256,4.4397,0.0,0.0,0.0,0.0,0.0,4.1873,4.2094,4.2473,4.3611,4.4211,4.4622,4.4843,4.4875,4.5033,4.5507,4.6898,4.7719,4.7182,4.6937,4.6573,4.5913,4.5671,4.5316,4.4617,4.4548,4.4358,0.0,4.3732,4.3732,4.3888,4.2693,4.2056,4.2092,4.1628,4.1599,4.2092,4.2092,4.2092,4.2092,4.2092,4.2092,4.2092,4.2092,4.2092,4.2092,4.2092,4.2092,4.2092,4.1889,4.1831,4.1831,4.1831,4.1831,4.1831,4.2034,4.2092,4.2092,4.5895,4.5576,4.5314,4.5314,4.4792,4.4472,4.4734,4.4327,4.4037,0.0,0.0,0.0,4.3834,4.4124,4.3979,4.3079,4.2992,4.2731,4.215,4.2092,4.2092,4.2092,4.2324,4.2469,4.2469,4.2469,4.2469,4.2469,4.2208,4.2411,4.3021,4.4037,4.485,4.5488,4.6243,4.6737,4.6911,4.5895,4.5982,4.6824,4.7073,4.734,4.762,4.7052,4.6859,4.677,4.6043,4.5836,4.5892,4.5906,4.5999,4.592,4.4531,4.4126,4.4136,4.4106,4.4366,4.4654,4.4369,4.3706,4.3011,4.26,0.0,0.0,4.102,4.1083,4.1367,4.2094,4.2823,4.3358,4.364,4.3703,4.3829,4.4243,4.5349,4.6202,4.636,4.6392,4.6234,4.5855,4.5823,4.552,4.4846,4.4778,4.4507,4.3889,4.3342,4.2962,4.2694,4.2447,4.2141,4.1653,4.1232,4.1113,4.125,4.1541,4.1686,4.1686,4.1976,4.2092,4.2092,4.2092,4.2092,4.2092,4.2092,4.2092,4.2092,4.2092,4.2092,4.2092,4.2092,4.2092,4.2092,4.2092,4.2092,4.2092,0.0,4.5895,4.5895,4.5895,4.5401,4.5198,4.5808,4.4937,4.4589,0.0,4.5314,4.5053,4.5198,4.514,4.4589,4.3311,4.3195,4.2905,4.2237,4.2266,4.2295,4.2295,4.2731,4.2992,4.2992,4.2992,4.2963,4.2905,4.2498,4.2557,4.3021,4.3747,4.4385,4.4879,4.4966,4.5314,4.5837,4.5256,4.5663,4.6841,4.8142,4.8711,4.8921,5.0216,5.0698,5.0698,5.0788,5.0498,5.0083,5.0086,4.8988,4.7322,4.5503,4.5286,4.557,4.4907,4.478,4.4685,4.4085,4.3864,4.3766,4.3703,4.2695,0.0,4.162,4.1146,4.0862,4.1367,4.1999,4.2631,4.3134,4.3292,4.3355,4.345,4.3513,4.4053,4.5381,4.557,4.557,4.557,4.557,4.5317,4.4654,4.4591,4.4369,4.3734,4.2654,4.1745,4.1135,4.1973,4.2047,4.105,4.0923,4.0654,4.0207,4.0818,4.1098,4.1105,4.1686,4.2034,4.2092,4.2092,4.2092,4.2092,4.2092,4.2092,4.2092,4.2092,4.2092,4.2092,4.2092,4.2092,4.2092,4.2092,4.2092,4.2092,4.5895,4.5895,4.5895,4.5895,4.5779,4.5721,4.5866,4.5663,4.5401,4.5111,4.543,4.6069,4.7114,4.6766,4.5924,4.4618,4.4531,4.4037,4.2905,4.3311,4.3631,4.3631,4.3224,4.2992,4.2992,4.2992,4.276,4.2266,4.3166,4.3398,4.3021,4.4182,4.4763,4.4908,4.5459,4.5779,4.5866,4.575,4.5837,4.6127,4.6903,4.7549,4.8109,4.8965,4.9268,4.9359,4.9956,5.0407,5.0739,5.0722,4.8726,4.6251,4.637,4.5728,4.4907,4.4749,4.5128,4.557,4.5444,4.497,4.4401,4.3829,4.3105,0.0,4.1715,4.1494,4.1272,4.0893,4.0893,4.0862,4.0419,4.0798,4.1367,4.1904,4.2505,4.3169,4.4022,4.4082,4.4082,4.4082,4.4082,4.405,4.3892,4.3892,4.3829,4.3703,4.3078,4.24,4.1745,4.1009,4.0748,4.0982,4.0478,4.041,4.079,4.0938,4.1057,4.1105,4.1221,4.157,4.2092,4.2092,4.2092,4.2092,4.2092,4.2092,4.2092,4.2092,4.2092,4.2092,4.2092,4.2092,4.2092,4.2092,4.2092,4.2092,4.5895,4.5895,4.5895,4.5895,4.5895,4.5895,4.5895,4.5895,4.5982,4.6301,4.7172,4.7782,4.7782,4.7491,4.665,4.5024,4.4618,4.4037,4.305,4.3311,4.3485,4.3485,4.3776,4.3805,4.3485,4.3776,4.3805,4.3485,4.3834,4.3979,4.395,4.4589,4.5053,4.5401,4.575,4.5895,4.5866,4.5518,4.5576,4.6072,4.7702,4.861,4.9103,5.0845,5.1488,5.1533,5.1884,5.1797,5.1394,5.108,4.9568,4.7801,4.7448,4.6866,4.6171,4.5476,4.5254,4.5191,4.4843,4.4717,4.4622,4.4271,4.3959,0.0,0.0,4.2126,4.1936,4.1241,4.083,4.0577,4.0546,4.0293,4.0293,4.0988,4.1399,4.1873,4.2568,4.3263,4.3703,4.3703,4.3703,4.3579,4.3232,4.32,4.294,4.2319,4.2222,4.198,4.1387,4.1014,4.0842,4.0885,4.0552,4.0444,4.0447,4.1078,4.1474,4.1525,4.2179,4.2524,4.2555,4.2555,4.2392,4.2092,4.2092,4.2092,4.2092,4.2092,4.2092,4.2092,4.2092,4.2092,4.2092,4.2092,4.2092,4.2092,4.5895,4.5895,4.5895,4.5895,4.5895,4.5895,4.5895,4.5895,4.633,4.7608,4.8914,4.932,4.8246,4.8043,4.7433,4.6127,4.4995,4.424,4.3921,4.3689,4.3485,4.3369,4.4327,4.4647,4.4182,4.4647,4.4821,4.4705,4.4472,4.4531,4.4879,4.5024,4.5372,4.5895,4.5895,4.5895,4.5837,4.5169,4.5285,4.6117,4.8757,4.9695,4.9891,5.2629,5.3667,5.3742,5.3997,5.3186,5.1922,5.1353,5.0532,4.9521,4.8446,4.8004,4.7688,4.655,4.5792,0.0,4.4689,4.4907,4.5254,4.5001,4.5033,4.4717,0.0,0.0,0.0,4.1778,4.1051,0.0,0.0,0.0,0.0,4.0672,0.0,0.0,0.0,4.2473,0.0,4.3295,4.3166,4.2947,4.2505,4.2473,4.2053,4.1049,4.1256,4.1256,4.0817,4.1122,4.1122,4.0783,4.0783,4.0578,4.0095,4.1163,4.176,4.1893,4.3016,4.3382,4.318,4.318,4.293,4.2433,4.2433,4.2351,4.2269,4.2269,4.2216,4.2092,4.2092,4.2092,4.2092,4.2092,4.2092,4.2092,4.5895,4.5895,4.5895,4.5895,4.5895,4.5895,4.5895,4.5895,4.633,4.7608,4.8885,4.9611,4.9514,4.8943,4.9001,4.993,4.7346,4.6127,4.7172,4.6185,4.5285,4.4705,4.4821,4.485,4.4792,4.485,4.4618,4.4095,4.514,4.5401,4.4908,4.5488,4.5808,4.5895,4.5895,4.5895,4.5837,4.5169,4.5285,4.6059,4.826,4.8692,4.8357,5.1177,5.2256,5.2405,5.3636,5.3186,5.1986,5.1922,5.0595,4.8983,4.8825,4.8383,4.7877,4.7719,0.0,0.0,0.0,0.0,0.0,0.0,4.6139,4.6044,4.4053,0.0,4.3232,4.1873,0.0,4.0419,0.0,0.0,0.0,0.0,0.0,0.0,4.1588,4.1241,4.1178,4.1746,4.1304,4.1146,4.1652,4.1715,4.1683,4.1522,4.1122,4.0851,4.0783,4.0339,4.0305,4.0814,4.0783,4.0749,4.0681,4.0835,4.1238,4.1893,4.2045,4.2705,4.381,4.381,4.3771,4.3693,4.3693,4.3379,4.293,4.293,4.2566,4.2092,4.2092,4.2092,4.2092,4.2092,4.2092,4.2092,4.5895,4.5895,4.5895,4.5895,4.5895,4.5895,4.5895,4.7462,4.8595,4.8362,5.0423,5.1759,5.1381,5.0772,5.0481,5.0656,4.842,4.7201,4.7753,4.6214,4.5518,4.5982,4.6431,4.6299,4.5533,4.6226,4.6138,4.5082,4.5227,4.5372,4.5459,4.5343,4.5518,4.5895,4.6272,4.6417,4.6417,4.6127,4.6382,4.7095,4.7955,4.8383,4.8813,5.1996,5.3201,5.3244,5.3481,5.287,5.1954,5.1543,5.0563,4.9489,4.9489,0.0,0.0,4.8478,0.0,0.0,0.0,0.0,0.0,0.0,0.0,0.0,4.5223,0.0,4.4117,0.0,0.0,0.0,0.0,0.0,0.0,0.0,4.102,4.102,0.0,0.0,4.023,4.0925,0.0,0.0,4.1525,4.1588,4.1588,4.1588,4.139,4.1256,4.1256,4.1024,4.099,4.1256,4.1256,4.1256,4.1256,4.1695,4.225,4.2972,4.3345,4.3845,4.4434,4.4434,4.4205,4.3888,4.3888,4.3771,4.3536,4.3536,4.3379,4.313,4.313,4.2718,4.2092,4.2092,4.2092,4.2092,4.5895,4.5895,4.5895,4.5895,4.5895,4.5953,4.6127,4.8275,4.9669,4.9088,5.1323,5.2949,5.2833,5.2572,5.2514,5.2746,5.0685,4.9349,4.9349,4.7375,4.6388,4.6749,4.7519,4.7358,4.6156,4.7107,4.7019,4.5895,4.5401,4.5401,4.5866,4.5372,4.5314,4.5663,4.6475,4.6691,4.6592,4.672,4.7186,4.7849,4.8254,4.9172,5.0562,5.2684,5.3647,5.3755,5.3281,5.2649,5.1891,5.1195,5.0627,0.0,4.9955,4.9584,4.9141,0.0,0.0,0.0,4.8225,0.0,0.0,0.0,0.0,0.0,0.0,0.0,0.0,0.0,0.0,0.0,0.0,0.0,4.083,4.1367,0.0,4.1051,0.0,3.9977,0.0,0.0,0.0,0.0,0.0,4.1494,4.1588,4.1588,4.1588,4.1588,4.1588,4.1588,4.1588,4.1588,4.1778,4.1904,4.1904,4.26,4.3327,4.3955,4.4496,4.4813,4.5067,4.5067,4.4843,4.4427,4.4427,4.4312,4.4159,4.4159,4.4043,4.3888,4.3888,4.3339,4.2596,4.2596,4.2596,4.2596,4.5895,4.5895,4.5895,4.5895,4.5895,4.6098,4.6662,4.7404,4.8304,4.9524,5.0859,5.2136,5.3355,5.4052,5.5416,5.7855,5.5155,5.3326,5.3326,5.0946,4.8711,4.6865,4.7404,4.7509,4.6778,4.6824,4.6505,4.5895,4.5866,4.5866,4.5895,4.5866,4.5518,4.4966,4.6243,4.6505,4.5953,4.6563,4.7172,4.7911,4.9344,5.1549,5.3785,5.2511,5.2496,5.3123,5.3123,5.2649,0.0,5.1195,5.0983,0.0,0.0,0.0,0.0,0.0,0.0,0.0,0.0,0.0,0.0,4.8225,0.0,0.0,0.0,0.0,4.557,0.0,0.0,0.0,0.0,4.3608,4.3576,4.3576,4.3074,0.0,0.0,3.9977,3.9503,3.9534,0.0,0.0,0.0,4.1209,4.1588,0.0,4.1588,4.1588,4.1588,4.1588,4.1588,4.1588,4.2284,4.2663,4.2663,4.3358,4.3987,4.4685,4.4685,4.5096,4.5787,4.5787,4.5787,4.5719,4.5719,4.5358,4.4774,4.4774,4.4434,4.3888,4.3888,4.3888,4.3849,4.3849,4.3849,4.3849,4.6417,4.6156,4.5895,4.5895,4.5895,4.6243,4.7288,4.874,5.0452,5.2601,5.3994,5.5591,5.771,5.8145,5.861,5.948,5.7797,5.6316,5.5474,5.263,5.0685,5.0017,4.9421,4.8997,4.8791,4.8378,4.7847,4.7214,4.5902,4.5459,4.5866,4.543,4.5343,4.5605,4.6882,4.7624,4.7936,4.8482,4.9163,4.9928,5.0396,5.1703,5.339,5.3389,5.3258,5.306,5.2554,5.1922,0.0,5.05,5.0279,5.0247,4.9995,4.9892,4.9868,4.9647,4.9742,4.9829,0.0,0.0,4.971,4.8794,0.0,0.0,0.0,0.0,0.0,0.0,0.0,0.0,0.0,4.3987,4.3545,4.3105,4.2853,4.2189,0.0,3.9977,3.9503,3.9503,4.0135,4.0767,0.0,0.0,0.0,0.0,4.1178,4.1114,4.1557,4.1588,4.1588,4.1588,4.1841,4.2189,4.2695,4.2916,4.3611,4.4717,4.4717,4.5096,4.5823,4.5823,4.5823,4.5823,4.5823,4.5682,4.5468,4.5468,4.5321,4.5136,4.5136,4.5136,4.5061,4.4197,4.3888,4.3966,4.6749,4.6679,4.6475,4.6272,4.6417,4.6911,4.7956,5.0162,5.2455,5.4546,5.6142,5.7971,6.0293,6.0758,6.0961,6.1222,6.0467,5.8987,5.6578,5.4894,5.3297,5.1701,5.1092,5.057,5.0147,4.9292,4.8525,4.7847,4.6324,4.5924,4.6534,4.5663,4.5488,4.5998,4.7524,4.8194,4.826,4.9811,5.0649,5.0909,5.1439,5.2202,5.3109,5.3836,5.3692,5.2965,0.0,5.1512,5.1195,5.0247,5.0089,5.0247,4.9995,4.9892,4.9829,4.9615,4.971,4.9829,4.9615,4.9742,0.0,4.9047,4.8573,0.0,4.7024,0.0,4.6929,0.0,0.0,0.0,0.0,0.0,4.3864,4.3169,4.2853,4.2094,0.0,3.9787,3.9503,3.9503,3.9914,4.0388,0.0,0.0,4.0388,4.0798,4.0704,4.0798,0.0,4.1462,4.1588,4.1588,4.1841,4.2315,4.3042,4.3295,4.399,4.5096,4.5096,4.5349,4.5823,4.5823,4.5823,4.5823,4.5823,4.5823,4.5823,4.5823,4.5823,4.5823,4.5823,4.5823,4.5682,4.4874,4.4579,4.4617,4.6952,4.7404,4.7666,4.6981,4.7433,4.8072,4.8769,5.1497,5.4023,5.5416,5.7274,5.919,6.1164,6.189,6.2499,6.3138,6.3167,6.1338,5.7013,5.7768,5.6461,5.2078,5.2368,5.2071,5.0842,4.9407,4.842,4.7951,4.716,4.716,4.7846,4.6567,4.5985,4.6072,4.7981,4.8142,4.717,5.0439,5.1466,5.1028,5.2411,5.3047,5.3218,5.3818,5.3692,5.2965,5.1575,5.148,5.1796,5.0437,5.0437,5.0879,5.0153,4.9963,4.99,4.9205,4.9457,4.9837,4.9205,4.9489,4.9773,4.9141,4.8952,0.0,0.0,0.0,4.7498,0.0,0.0,0.0,0.0,0.0,0.0,4.3797,4.3105,4.1936,3.9882,3.9598,3.9598,3.9598,3.9566,3.9566,3.9598,3.9534,3.9534,3.9598,4.0166,4.0546,0.0,4.1209,4.1557,4.1588,4.2252,4.2979,4.3671,4.4338,4.5065,4.5823,4.5823,4.5823,4.5823,4.5823,4.5823,4.5823,4.5823,4.5823,4.5823,4.5823,4.5823,4.5823,4.5823,4.5823,4.5823,4.5823,4.5823,4.5823,4.7579,4.842,4.8972,4.8362,4.8362,4.903,5.0627,5.2368,5.4662,5.7884,5.9568,6.1367,6.3748,6.4154,6.4299,6.4473,6.4502,6.3603,6.1513,6.0322,5.8552,5.5968,5.4197,5.2916,5.2201,4.9902,4.9145,5.0095,4.7971,4.7495,4.8558,4.7259,4.686,4.7332,4.7867,4.8476,4.9273,5.0561,5.1635,5.2457,5.2846,5.3328,5.3818,0.0,5.3566,5.3724,5.287,5.2333,5.1891,5.1006,5.1164,5.1543,5.0311,5.0627,5.1353,5.0658,5.0563,5.0785,5.1132,5.0563,4.9995,5.0342,4.9647,4.8794,0.0,0.0,0.0,0.0,0.0,0.0,0.0,0.0,0.0,4.3892,4.2695,4.1683,4.1146,4.1051,4.1051,4.1051,4.0609,4.0514,4.0988,4.0103,3.9945,4.0988,3.9819,3.9724,4.1241,0.0,4.1083,4.1557,4.1778,4.2473,4.3671,4.3861,4.4591,4.5823,4.5823,4.5823,4.5823,4.5823,4.5823,4.5823,4.5823,4.5823,4.5823,4.5823,4.5823,4.5823,4.5823,4.5823,4.5823,4.5823,4.5823,4.5823,4.9163,5.0378,5.1483,5.1346,5.1786,5.236,5.2798,5.3704,5.5416,5.8464,6.0235,6.1745,6.3167,6.4328,6.4996,6.4996,6.4996,6.4212,6.2383,6.1774,6.0351,5.7855,5.6084,5.4643,5.348,5.1175,0.0,5.0368,4.8322,4.7799,4.8786,4.7182,4.677,4.7417,4.8018,4.8563,4.9175,5.0635,5.1957,5.3024,5.3334,5.3569,0.0,5.3566,5.3597,5.366,5.3566,5.3092,5.2365,5.167,5.1701,5.1859,5.1069,5.1385,5.1859,5.1195,5.1195,5.1385,5.1164,5.0974,5.0848,5.0943,5.0414,4.971,4.9426,4.8604,4.7688,0.0,4.6582,4.6266,0.0,0.0,0.0,0.0,0.0,0.0,0.0,0.0,4.1841,4.1241,4.1083,4.1178,4.1557,4.0072,3.9281,3.9787,3.8997,3.9155,4.0609,0.0,4.0893,4.1557,4.1904,4.26,4.3671,4.3987,4.4717,4.5823,4.5823,4.5823,4.5823,4.5823,4.5823,4.5823,4.5823,4.5823,4.5823,4.5823,4.5823,4.5823,4.5823,4.5823,4.5823,4.5823,4.5823,4.5823,5.1344,5.277,5.4201,5.4527,5.5835,5.6439,5.5292,5.5736,5.681,5.8581,6.0496,6.1687,6.1687,6.3661,6.4996,6.4996,6.4996,6.4038,6.1832,6.2558,6.1803,5.8929,5.7913,5.652,5.4546,5.2601,5.0996,4.9718,4.8417,4.8126,4.8708,4.6874,4.635,4.6991,4.8113,4.8391,4.8121,5.0605,5.2062,5.2781,5.3608,5.3627,5.3154,5.3839,5.3755,5.3313,5.3882,5.3724,5.3123,5.2396,5.2207,5.2238,5.208,5.2144,5.2144,5.1448,5.167,5.1922,5.0785,5.1227,5.1891,5.1385,5.1141,5.0816,5.0184,4.9015,4.7814,4.7087,4.6487,4.6044,4.5855,0.0,0.0,0.0,0.0,0.0,0.0,0.0,0.0,0.0,4.1399,0.0,4.1494,3.985,3.8586,3.8079,3.8333,3.8871,0.0,0.0,4.083,4.1715,4.2347,4.3074,4.3797,4.4433,4.5096,4.5823,4.5823,4.5823,4.5823,4.5823,4.5823,4.5823,4.5823,4.5823,4.5823,4.5823,4.5823,4.5823,4.5823,4.5823,4.5823,4.5823,4.5823,4.5823,5.3455,5.4589,5.5269,5.4151,5.5902,5.7685,5.8346,5.9451,6.0467,6.1309,6.3109,6.4328,6.4328,6.4706,6.4996,6.4996,6.4996,6.4793,6.4357,6.3545,6.2587,6.1483,5.9306,5.6984,5.4575,5.2601,5.0982,0.0,4.8427,4.8206,4.8827,4.7407,4.7037,4.7583,4.7278,4.7721,4.88,4.9794,0.0,5.1391,5.2688,5.3139,5.309,5.3825,5.404,5.3945,5.4071,5.4008,5.3818,5.3155,5.3281,5.3534,5.2365,5.2807,5.3597,5.2934,5.2839,5.2997,5.3281,5.2712,5.2112,5.2618,5.1859,5.0983,5.0816,4.971,4.8509,4.7846,4.7624,4.7182,4.6013,0.0,0.0,0.0,0.0,0.0,0.0,0.0,0.0,0.0,0.0,4.2031,4.0893,4.0451,4.0419,4.083,3.9408,0.0,0.0,0.0,4.0546,0.0,4.2631,4.3295,0.0,0.0,4.5096,4.5823,4.5823,4.5823,4.5823,4.5823,4.5823,4.5823,4.5823,4.5823,4.5823,4.5823,4.5823,4.5823,4.5823,4.5823,4.5823,4.5823,4.5823,4.5823,5.5789,5.6495,5.6939,5.6779,5.8722,6.0518,6.1263,6.2426,6.279,6.1774,6.2441,6.3022,6.3022,6.4183,6.4996,6.4996,6.4677,6.4502,6.4502,6.3283,6.2441,6.2093,6.0003,5.7768,5.5533,5.3588,5.1795,5.0279,0.0,4.7988,4.8282,4.7019,4.6727,4.7333,4.7301,4.8054,0.0,0.0,5.0245,5.0998,5.2424,5.3024,5.3069,5.3813,5.4103,5.4103,5.4103,5.4103,5.404,5.3724,5.3818,5.3976,5.3313,5.3566,5.3976,5.3313,5.3344,5.3534,5.3123,5.306,5.2997,5.2618,5.2017,5.1417,5.111,4.9939,4.8794,4.8478,4.7846,4.7024,4.6013,4.5507,0.0,0.0,0.0,0.0,0.0,0.0,4.3864,0.0,0.0,0.0,0.0,4.1114,4.0956,4.0546,3.9566,0.0,0.0,0.0,4.0704,0.0,0.0,0.0,4.418,0.0,4.5444,4.5823,4.5823,4.5823,4.5823,4.5823,4.5823,4.5823,4.5823,4.5823,4.5823,4.5823,4.5823,4.5823,4.5823,4.5823,4.5823,4.5823,4.5823,4.5823,5.8297,5.8644,5.8971,5.9606,6.1463,6.2894,6.3002,6.4155,6.427,6.2267,6.2006,6.2006,6.2006,6.3777,6.4996,6.4996,6.4415,6.3975,6.3975,6.2819,6.2035,6.189,6.0235,5.8319,5.6229,5.4429,5.2514,0.0,0.0,4.7934,4.7782,4.6625,4.6326,4.6741,4.7465,0.0,0.0,0.0,4.9969,5.0756,5.2169,5.2891,5.3069,5.3813,5.4103,5.4103,5.4103,5.4103,5.4103,5.4103,5.4103,5.4103,5.4103,5.4103,5.4008,5.3471,5.3692,5.385,5.2744,5.325,5.3787,5.2554,5.2112,5.1828,5.1173,4.9995,4.9078,4.892,4.7782,4.6676,4.6329,4.6013,0.0,0.0,0.0,0.0,0.0,0.0,4.4433,0.0,0.0,0.0,4.1683,4.1588,4.1146,4.004,0.0,0.0,4.0767,0.0,0.0,0.0,0.0,4.3769,4.3892,0.0,4.5823,4.5823,4.5823,4.5823,4.5823,4.5823,4.5823,4.5823,4.5823,4.5823,4.5823,4.5823,4.5823,4.5823,4.5823,4.5823,4.5823,4.5981,4.6013,4.6013,6.0732,6.1196,6.1317,6.0496,6.1934,6.3031,6.2307,6.381,6.4909,6.4677,6.4619,6.4619,6.4619,6.4851,6.4996,6.4996,6.4415,6.3975,6.3975,6.2819,6.1861,6.1309,6.0003,5.8116,5.5562,5.4197,5.2281,0.0,0.0,4.8343,4.7807,4.704,4.6492,4.6059,0.0,0.0,0.0,4.8312,4.9263,5.0024,5.1409,5.2411,5.3069,5.3813,5.4103,5.4103,5.4103,5.4103,5.4103,5.4103,5.4103,5.4103,5.4103,5.4103,5.4071,5.4008,5.404,5.4071,5.3945,5.4008,5.3913,5.3186,5.2491,5.1828,5.1173,5.0374,4.9647,4.9015,4.7782,4.6992,4.7593,4.6676,4.5823,0.0,0.0,0.0,0.0,0.0,4.5191,4.3766,0.0,0.0,4.1715,4.1588,4.1525,4.1399,4.083,0.0,0.0,0.0,0.0,4.2537,4.3295,4.399,4.4622,4.5412,4.5823,4.5823,4.5823,4.5823,4.5823,4.5823,4.5823,4.5823,4.5823,4.5823,4.5823,4.5823,4.5823,4.5823,4.5823,4.5823,4.5886,4.6487,4.6708,4.6708,6.179,6.173,6.1729,6.1997,6.2734,6.3443,6.3786,6.4473,6.4996,6.4996,6.4996,6.4996,6.4996,6.4996,6.4822,6.4444,6.3835,6.3312,6.2906,6.2035,6.128,6.0613,5.9771,5.8261,5.6055,5.4371,5.263,0.0,0.0,0.0,0.0,4.8381,4.7904,0.0,0.0,4.8492,4.8593,4.8698,4.9135,4.982,5.0815,5.1681,5.2411,5.3157,5.3683,5.4103,5.4103,5.4103,5.4103,5.4103,5.4103,5.4103,5.4103,5.4103,5.4103,5.4103,5.3818,5.3502,5.3502,5.3186,5.2681,5.2017,5.1606,5.1195,5.05,5.0121,4.9797,4.9552,4.8731,4.8035,4.7909,4.7087,4.6392,4.6392,0.0,0.0,0.0,0.0,0.0,4.3864,0.0,4.3137,4.1715,4.1588,4.1588,0.0,0.0,0.0,0.0,0.0,0.0,4.2663,0.0,4.4022,4.4685,4.5444,4.5823,4.5823,4.5823,4.5823,4.5823,4.5823,4.5823,4.5823,4.5823,4.5823,4.5823,4.5823,4.5823,4.5823,4.5823,4.5823,4.5855,4.6108,4.6455,4.6803,6.2854,6.2616,6.2588,6.3528,6.3749,6.408,6.4891,6.4996,6.4996,6.4996,6.4996,6.4996,6.4996,6.4822,6.4532,6.4004,6.3283,6.2587,6.2122,6.1338,6.0613,5.9974,5.9335,0.0,5.6142,5.4604,5.3094,5.1614,5.0554,0.0,0.0,0.0,0.0,0.0,4.8909,4.9203,4.9469,4.9106,4.9407,5.0105,5.084,5.1588,5.229,5.3038,5.364,5.4103,5.4103,5.4103,5.4103,5.4103,5.4103,5.4103,5.4103,5.4103,5.4103,5.4103,5.3629,5.3123,5.3123,5.2586,5.1828,5.1173,5.1015,5.0785,5.0089,4.9892,4.9892,4.9892,4.9363,4.8762,4.8288,4.7435,4.6803,4.6803,0.0,0.0,0.0,4.5823,0.0,4.4117,4.399,4.3421,4.2031,4.1904,4.181,4.162,0.0,0.0,0.0,0.0,0.0,0.0,0.0,0.0,4.4717,4.5444,4.5823,4.5823,4.5823,4.5823,4.5823,4.5823,4.5823,4.5823,4.5823,4.5823,4.5823,4.5823,4.5823,4.5823,4.5823,4.5823,4.5855,4.6266,4.6708,4.715,6.4278,6.4336,6.4508,6.4925,6.4967,6.4967,6.4996,6.4996,6.4996,6.4996,6.4996,6.4996,6.4996,6.4415,6.3975,6.3975,6.2848,6.2093,6.2093,6.0903,5.9945,0.0,0.0,5.739,5.5474,5.4807,5.3559,5.1614,0.0,0.0,4.9796,0.0,4.9068,4.7887,4.9136,4.932,4.8769,4.9407,5.0105,5.084,5.1558,5.2321,5.3069,5.3813,5.4103,5.4103,5.4103,5.4103,5.4103,5.4103,5.4103,5.4103,5.4103,5.4103,5.4103,5.4103,5.3629,5.3123,5.3123,5.2586,5.1828,5.1173,5.1015,5.0785,5.0089,4.9892,4.9892,4.9892,4.9363,4.8889,4.8889,4.7719,4.6803,4.6803,0.0,0.0,0.0,4.5823,0.0,4.478,4.4685,4.418,4.2821,4.2663,4.2378,0.0,0.0,0.0,0.0,0.0,0.0,4.2695,4.399,0.0,4.4717,4.5444,4.5823,4.5823,4.5823,4.5823,4.5823,4.5823,4.5823,4.5823,4.5823,4.5823,4.5823,4.5823,4.5823,4.5823,4.5823,4.5823,4.5981,4.7372,4.7877,4.7972,6.4773,6.4798,6.4881,6.4973,6.4996,6.4996,6.4996,6.4996,6.4996,6.4996,6.4996,6.4996,6.4996,6.4415,6.3864,0.0,6.2587,6.1919,0.0,6.0671,5.9916,5.9335,5.8668,5.739,5.5445,5.4807,5.3791,5.2281,0.0,0.0,0.0,5.0496,4.9981,4.9136,4.9494,4.9553,4.9378,4.9582,5.0154,5.0793,5.1075,5.1911,5.3024,5.3246,5.364,5.4103,5.4103,5.4103,5.4103,5.4103,5.4103,5.4103,5.4103,5.4103,5.4103,5.4103,5.3629,5.2997,5.2491,5.1859,5.1132,5.0437,5.0247,5.0184,4.9963,4.9892,4.9892,4.9892,4.9742,4.9584,4.9584,4.8825,4.8067,4.7624,4.6961,0.0,4.5886,0.0,4.5539,4.4812,4.4717,4.4369,4.3485,4.2979,0.0,0.0,0.0,0.0,0.0,0.0,0.0,0.0,4.4496,0.0,4.5444,4.5697,4.5823,4.5823,4.5823,4.5823,4.5823,4.5823,4.5823,4.5823,4.5823,4.5823,4.5823,4.5823,4.5823,4.5823,4.5823,4.5823,4.5918,4.6834,4.7466,4.8004,6.4996,6.4996,6.4996,6.4996,6.4996,6.4996,6.4996,6.4996,6.4996,6.4996,6.4996,6.488,6.4648,6.4067,0.0,6.3138,6.2267,6.16,6.1222,6.0351,5.9684,5.9306,5.8406,5.7129,5.5445,5.5039,0.0,5.2623,5.1795,5.1042,5.0394,5.0394,5.0154,4.9717,4.9717,4.9717,4.9717,4.9717,4.996,5.0442,5.0981,5.1773,5.2637,5.3201,5.3683,5.4103,5.4103,5.4103,5.4103,5.4103,5.4103,5.4103,5.4103,5.4103,5.4103,5.4103,5.3629,5.2934,5.2207,5.1512,5.0816,5.0089,4.9892,4.9892,4.9892,4.9892,4.9892,4.9892,4.9892,4.9892,4.9892,4.9363,4.8667,4.8004,4.7277,4.6582,4.5918,0.0,4.5634,0.0,0.0,4.4843,0.0,4.3706,4.3358,0.0,0.0,0.0,0.0,0.0,4.3579,4.4685,4.497,4.5349,4.5823,4.5823,4.5823,4.5823,4.5823,4.5823,4.5823,4.5823,4.5823,4.5823,4.5823,4.5823,4.5823,4.5823,4.5823,4.5823,4.5823,4.5823,4.5918,4.6866,4.7498,4.8035,6.4996,6.4996,6.4996,6.4996,6.4996,6.4996,6.4996,6.4996,6.4996,6.4996,6.4996,6.4735,6.4033,6.3457,6.308,6.3022,0.0,0.0,6.1193,6.0003,5.9306,5.9306,5.8029,5.6723,5.5503,5.5416,5.4458,5.2565,5.1323,5.0415,4.9717,4.9717,4.9717,4.9717,4.9717,4.9717,4.9717,4.9717,4.9717,4.9912,5.1279,5.1835,5.2063,5.3509,5.4017,5.406,5.4103,5.4103,5.4103,5.4103,5.4103,5.4103,5.4103,5.4103,5.4103,5.4103,5.3629,5.2965,5.227,5.1543,5.0816,5.0153,4.9963,4.9892,4.9892,4.9892,4.9892,4.9892,4.9892,4.9892,4.9892,4.9363,4.8667,4.8004,4.7277,4.6582,4.5918,4.5823,4.5823,0.0,0.0,0.0,4.4843,4.4749,4.4464,0.0,0.0,0.0,0.0,0.0,4.4082,4.478,4.5444,4.5823,4.5823,4.5823,4.5823,4.5823,4.5823,4.5823,4.5823,4.5823,4.5823,4.5823,4.5823,4.5823,4.5823,4.5823,4.5823,4.5823,4.5823,4.5823,4.5981,4.7372,4.7909,4.8098,6.4996,6.4996,6.4996,6.4996,6.4996,6.4996,6.4996,6.4996,6.4996,6.4996,6.4996,6.4735,6.4033,6.3457,6.2877,6.2383,6.1629,6.1193,6.1193,6.0003,5.9306,5.9306,5.8029,5.6955,5.62,5.5678,5.4226,5.1846,5.1527,5.0801,4.9717,4.9717,4.9717,4.9717,4.9717,4.9717,4.9717,4.9717,5.0009,5.0555,5.0934,5.1403,5.1972,5.2905,5.3246,5.3334,5.3931,5.4103,5.4103,5.4103,5.4103,5.4103,5.4103,5.4103,5.4103,5.4103,5.3629,5.306,5.2902,5.1922,5.0983,5.0753,5.0311,4.9892,4.9892,4.9892,4.9892,4.9892,4.9892,4.9892,4.9892,4.9363,4.8667,4.8004,4.7277,4.6582,4.5918,4.5823,4.5823,0.0,4.5823,4.5728,4.557,4.5033,4.4654,0.0,0.0,4.3987,4.4685,4.4559,4.4812,4.5539,4.5728,4.5823,4.5823,4.5823,4.5823,4.5823,4.5823,4.5823,4.5823,4.5823,4.5823,4.5823,4.5823,4.5823,4.5823,4.5823,4.5823,4.5823,4.5823,4.5823,4.5981,4.7372,4.7909,4.8098,6.4996,6.4996,6.4996,6.4996,6.4996,6.4996,6.4996,6.4996,6.4996,6.4996,6.4996,6.4735,6.4033,6.3457,6.2819,6.2151,6.1542,6.1077,6.0758,5.9829,5.9161,5.8871,5.7855,5.6868,5.5968,5.5591,5.4313,5.2049,5.1759,5.1091,5.0133,4.9814,4.9717,4.9717,4.9717,4.9717,4.9717,4.9717,4.9912,5.0346,5.065,5.1263,5.1972,5.2726,5.3201,5.3552,5.3974,5.4103,5.4103,5.4103,5.4103,5.4103,5.4103,5.4103,5.4103,5.4103,5.3629,5.3028,5.2712,5.1796,5.0951,5.0563,5.0216,4.9892,4.9892,4.9892,4.9892,4.9892,4.9892,4.9892,4.9892,4.9615,4.9047,4.8067,4.7561,4.6961,4.595,4.5823,4.5823,4.5823,4.5823,4.5823,4.5823,4.5444,4.5223,4.5223,4.4875,0.0,4.5191,4.5223,4.5412,4.5792,4.5823,4.5823,4.5823,4.5823,4.5823,4.5823,4.5823,4.5823,4.5823,4.5823,4.5823,4.5823,4.5823,4.5823,4.5823,4.5823,4.5823,4.5823,4.5823,4.6013,4.6392,4.7498,4.8098,4.8509,6.4996,6.4996,6.4996,6.4996,6.4996,6.4996,6.4996,6.4996,6.4938,6.4851,6.4851,6.4561,6.3835,6.3254,6.2674,6.2006,6.1483,6.0903,6.0235,5.9539,5.89,5.8319,5.7652,5.681,5.5707,5.5503,5.4487,5.2623,5.202,5.1381,5.0705,5.0104,4.9834,4.9717,4.9717,4.9717,4.9717,4.9717,4.9717,4.9766,5.0394,5.1028,5.1651,5.2502,5.3246,5.3813,5.4017,5.4103,5.4103,5.4103,5.4103,5.4103,5.4103,5.4103,5.4103,5.4103,5.3629,5.2997,5.246,5.1733,5.0943,5.0121,4.9892,4.9892,4.9892,4.9892,4.9892,4.9892,4.9892,4.9892,4.9892,4.9837,4.9363,4.8098,4.7814,4.7277,4.5981,0.0,4.5823,4.5823,4.5823,4.5823,4.5823,4.5823,4.5823,4.5823,4.5823,4.5823,4.5823,4.5823,4.5823,4.5823,4.5823,4.5823,4.5823,4.5823,4.5823,4.5823,4.5823,4.5823,4.5823,4.5823,4.5823,4.5823,4.5823,4.5823,4.5823,4.5823,4.5823,4.5823,4.5823,4.6202,4.6898,4.7624,4.832,4.8983,6.4996,6.4996,6.4996,6.4996,6.4996,6.4996,6.4996,6.4996,6.4793,6.4241,6.4183,6.3719,6.2529,6.2296,6.2006,6.1396,6.1251,6.0903,6.0235,5.9103,5.8406,5.829,5.7652,5.7216,5.7013,5.5968,5.4487,5.2623,5.2484,5.1817,5.0734,5.0618,5.022,4.9717,4.9717,4.9717,4.9717,4.9717,4.9717,4.9717,4.9815,4.996,5.0172,5.1558,5.2109,5.2381,5.364,5.4103,5.4103,5.4103,5.4103,5.4103,5.4103,5.4103,5.4103,5.4103,5.3629,5.3218,5.366,5.2839,5.1543,5.0247,4.9892,4.9892,4.9892,4.9892,4.9892,4.9892,4.9892,4.9892,4.9892,4.9457,4.8794,4.8035,4.7372,4.6708,4.5918,0.0,4.5823,4.5823,4.5823,4.5823,4.5823,4.5823,4.5823,4.5823,4.5823,4.5823,4.5823,4.5823,4.5823,4.5823,4.5823,4.5823,4.5823,4.5823,4.5823,4.5823,4.5823,4.5823,4.5823,4.5823,4.5823,4.5823,4.5823,4.5823,4.5823,4.5823,4.5823,4.5823,4.5823,4.6202,4.6898,4.7624,4.832,4.8983,6.4996,6.4996,6.4996,6.4996,6.4996,6.4996,6.4996,6.4996,6.4764,6.4125,6.3975,6.3661,6.2732,6.2296,6.1977,6.1716,6.1048,6.038,5.9771,5.9161,5.8523,5.7797,5.7477,5.6984,5.6287,5.5039,5.3965,5.3065,5.2746,5.2333,5.1751,5.1352,5.083,5.027,5.027,5.0066,4.9717,4.9717,4.9717,4.9717,4.9717,4.996,5.0412,5.1466,5.2185,5.2637,5.3726,5.4103,5.4103,5.4103,5.4103,5.4103,5.4103,5.4103,5.4103,5.4103,5.3629,5.3092,5.2997,5.2238,5.1385,5.1101,5.0469,4.9987,5.0405,5.0184,4.9892,4.9892,4.9892,4.9892,4.9892,4.9679,4.911,4.8067,4.7624,4.7024,4.595,4.5823,4.5823,4.5823,4.5823,4.5823,4.5823,4.5823,4.5823,4.5823,4.5823,4.5823,4.5823,4.5823,4.5823,4.5823,4.5823,4.5823,4.5823,4.5823,4.5823,4.5823,4.5823,4.5823,4.5823,4.5823,4.5823,4.5823,4.5823,4.5823,4.5823,4.5823,4.5823,4.5855,4.6202,4.6771,4.7466,4.8162,4.8857,4.9489,6.4996,6.4996,6.4996,6.4996,6.4996,6.4996,6.4996,6.4996,6.4764,6.4125,6.3975,6.3748,6.2935,6.2412,6.2035,6.189,6.099,6.0177,5.9539,5.9393,5.8697,5.7361,5.7303,5.6723,5.5445,5.4458,5.382,5.35,5.3036,5.2717,5.2623,5.2078,5.1497,5.0888,5.0888,5.054,4.9901,4.9901,4.9814,4.9717,4.9717,5.0057,5.0603,5.1356,5.2063,5.2815,5.3596,5.3974,5.4103,5.4103,5.4103,5.4103,5.4103,5.4103,5.4103,5.4103,5.3724,5.3155,5.2238,5.1733,5.1543,5.1922,5.1069,5.0311,5.0848,5.0437,4.9892,4.9892,4.9892,4.9892,4.9892,4.9892,4.9521,4.832,0.0,4.7688,4.6455,4.6139,4.6044,4.6044,4.5918,4.5823,4.5823,4.5823,4.5823,4.5823,4.5823,4.5823,4.5823,4.5823,4.5823,4.5823,4.5823,4.5823,4.5823,4.5823,4.5823,4.5823,4.5823,4.5823,4.5823,4.5823,4.5823,4.5823,4.5823,4.5823,4.5823,4.5823,4.5823,4.5886,4.655,4.7245,4.7972,4.8636,4.9331,4.9892,6.4996,6.4996,6.4996,6.4996,6.4996,6.4996,6.4996,6.4996,6.4764,6.4125,6.3975,6.3545,6.2296,6.2122,6.1861,6.1309,6.1164,6.0845,6.0177,5.9626,5.8697,5.7361,5.7303,5.6723,5.5445,5.5329,5.4691,5.35,5.3471,5.3152,5.2623,5.2565,5.2165,5.1556,5.1556,5.1207,5.0647,5.0647,5.0299,4.9717,4.9717,4.9717,4.9863,5.0603,5.1356,5.2063,5.2815,5.3509,5.4103,5.4103,5.4103,5.4103,5.4103,5.4103,5.4103,5.4103,5.4071,5.3724,5.2365,5.246,5.2807,5.2175,5.1448,5.0951,5.1015,5.0437,4.9892,4.9892,4.9892,4.9892,4.9892,4.9892,4.9679,4.892,0.0,0.0,4.7846,4.715,4.674,4.674,4.6171,4.5823,4.5823,4.5823,4.5823,4.5823,4.5823,4.5823,4.5823,4.5823,4.5823,4.5823,4.5823,4.5823,4.5823,4.5823,4.5823,4.5823,4.5823,4.5823,4.5823,4.5823,4.5823,4.5823,4.5823,4.5823,4.5823,4.5823,4.5823,4.5886,4.655,4.7245,4.7972,4.8636,4.9331,4.9892,6.4996,6.4996,6.4996,6.4996,6.4996,6.4851,6.4444,6.4386,6.4009,6.2964,6.2819,6.2499,6.1629,6.1542,6.1454,6.1222,6.1193,6.0903,6.0235,5.9974,5.9103,5.739,5.6955,5.652,5.6026,5.5271,5.4604,5.4139,5.3704,5.3384,5.3152,5.3152,5.2804,5.2223,5.2223,5.1846,5.1236,5.083,5.054,5.0249,4.9892,4.9717,4.9766,5.0537,5.1263,5.1972,5.2726,5.3465,5.4103,5.4103,5.4103,5.4103,5.4103,5.4103,5.4103,5.4103,5.4103,5.3976,5.3439,5.3218,5.3123,5.3281,5.246,5.1606,5.1606,5.1069,5.0437,4.9995,4.9892,4.9892,4.9892,4.9892,4.9679,4.9015,0.0,4.8667,4.8004,4.7656,4.7466,4.7466,4.7277,4.6929,4.6455,4.6834,4.674,4.5886,4.6613,4.674,4.5855,4.5823,4.5823,4.5823,4.5823,4.5823,4.5823,4.5823,4.5823,4.5823,4.5823,4.5823,4.5823,4.5823,4.5823,4.5823,4.5823,4.5823,4.5823,4.5823,4.5823,4.5886,4.655,4.7245,4.7972,4.8636,4.9331,4.9892,6.4938,6.4822,6.4764,6.4938,6.4822,6.4532,6.4033,6.3864,6.3428,6.2529,6.2412,6.218,6.1542,6.1309,6.1193,6.1193,6.1019,6.0787,6.0526,6.0322,5.9422,5.7681,5.7013,5.649,5.6113,5.5242,5.4604,5.4197,5.3733,5.35,5.35,5.35,5.3297,5.2862,5.2862,5.2514,5.1875,5.1439,5.1083,5.0676,5.0211,4.9921,4.9795,5.0485,5.1374,5.2306,5.2794,5.3601,5.4387,5.4166,5.4103,5.4103,5.4103,5.4103,5.4103,5.4103,5.4103,5.4103,5.4103,5.3755,5.3534,5.3976,5.3218,5.2302,5.2049,5.148,5.0785,5.0058,4.9892,4.9892,4.9892,4.9892,4.9773,4.9299,4.9205,4.9047,4.8604,4.8351,4.8193,4.8193,4.8035,4.7688,4.7182,4.7593,4.7498,4.655,4.734,4.7372,4.6202,4.5918,4.5823,4.5823,4.5823,4.5823,4.5823,4.5823,4.5823,4.5823,4.5823,4.5823,4.5823,4.5823,4.5823,4.5823,4.5823,4.5823,4.5823,4.5823,4.5823,4.5886,4.655,4.7245,4.7972,4.8636,4.9331,4.9892,6.4851,6.4473,6.4241,6.4851,6.4444,6.3975,6.3975,6.3486,6.308,6.308,6.308,6.2819,6.2151,6.1542,6.1193,6.1193,6.0584,6.0496,6.1164,6.0584,5.9626,5.8377,5.7681,5.6723,5.5445,5.5416,5.4807,5.353,5.35,5.35,5.35,5.35,5.35,5.35,5.35,5.3181,5.2623,5.2623,5.1897,5.0685,5.0685,5.0278,4.9805,5.0423,5.1609,5.2882,5.2913,5.3866,5.4976,5.4324,5.4103,5.4103,5.4103,5.4103,5.4103,5.4103,5.4103,5.4103,5.4103,5.4103,5.4103,5.4103,5.3597,5.2934,5.2175,5.148,5.0785,5.0089,4.9892,4.9892,4.9931,4.9892,4.9892,4.9892,4.9892,4.9892,4.9892,4.9331,4.8889,4.8889,4.832,4.7909,4.7909,4.7909,4.7909,4.7909,4.7909,4.7593,4.6834,4.6171,4.5823,4.5823,4.5823,4.5823,4.5823,4.5823,4.5823,4.5823,4.5823,4.5823,4.5823,4.5823,4.5823,4.5823,4.5823,4.5823,4.5823,4.5823,4.5823,4.5886,4.655,4.7245,4.7972,4.8674,4.9331,4.99,6.427,6.3806,6.3428,6.3632,6.3486,6.3225,6.2732,6.2499,6.2238,6.1832,6.1774,6.1687,6.1483,6.1309,6.1193,6.1193,6.1019,6.099,6.1193,6.0584,5.9829,5.9045,5.8348,5.7594,5.6752,5.5881,5.5213,5.4836,5.3965,5.35,5.35,5.35,5.35,5.35,5.35,5.3413,5.321,5.2746,5.2391,5.2013,5.1527,5.1207,5.1062,5.1265,5.229,5.358,5.358,5.4591,5.5778,5.5051,5.5146,5.5557,5.5557,5.5557,5.5557,5.5557,5.5209,5.483,5.483,5.4482,5.4103,5.4103,5.3945,5.3629,5.2934,5.2238,5.1638,5.1417,5.0595,5.0089,5.0563,5.0247,4.9892,4.9892,4.9892,4.9892,4.9892,4.9742,4.9615,4.9615,4.9457,4.9141,4.8636,4.9047,4.892,4.7972,4.7909,4.7814,4.7593,4.6898,4.6297,4.5823,4.5823,4.5823,4.5823,4.5823,4.5823,4.5823,4.5823,4.5823,4.5823,4.5823,4.5823,4.5823,4.5823,4.5823,4.5823,4.5823,4.5823,4.5886,4.655,4.6929,4.732,4.9026,4.9829,5.0016,6.3917,6.3312,6.279,6.3051,6.2877,6.2558,6.2151,6.189,6.16,6.1251,6.1193,6.1193,6.1193,6.0961,6.0903,6.1164,6.1193,6.1193,6.1193,6.0584,5.9916,5.9335,5.8668,5.7884,5.6955,5.62,5.5562,5.5039,5.4284,5.3762,5.35,5.35,5.35,5.35,5.35,5.35,5.35,5.3094,5.2804,5.2594,5.2165,5.1846,5.1643,5.1904,5.2941,5.4327,5.4279,5.5302,5.6473,5.5778,5.5841,5.6189,5.6189,5.6189,5.6189,5.6189,5.5873,5.5493,5.5165,5.483,5.4451,5.4166,5.4103,5.3913,5.325,5.2776,5.2365,5.208,5.1132,5.0469,5.0951,5.0405,4.9892,4.9892,4.9892,4.9892,4.9892,4.9892,4.9892,4.9892,4.9892,4.9742,4.9331,4.9679,4.9544,4.8762,4.8446,4.8288,4.8288,4.7624,4.6929,4.6234,4.6202,4.6076,4.5823,4.5823,4.5823,4.5823,4.5823,4.5823,4.5823,4.5823,4.5823,4.5823,4.5823,4.5823,4.5823,4.5823,4.5823,4.5855,4.6266,4.6734,4.7412,4.9014,4.9742,5.0098,6.3835,6.2906,6.2209,6.2819,6.2412,6.2006,6.2006,6.1542,6.1193,6.1193,6.1193,6.1193,6.1193,6.0642,6.0526,6.1135,6.1193,6.1193,6.1193,6.0584,5.9916,5.9335,5.8668,5.7739,5.652,5.6432,5.5852,5.4691,5.4575,5.4197,5.3617,5.3582,5.3553,5.35,5.3553,5.3553,5.35,5.35,5.3181,5.271,5.271,5.231,5.1846,5.2529,5.3722,5.5025,5.5056,5.606,5.7231,5.6568,5.6315,5.6283,5.6347,5.6378,5.6378,5.6378,5.6315,5.6125,5.543,5.5197,5.5051,5.4292,5.4134,5.4008,5.3344,5.3155,5.2934,5.2333,5.1606,5.1141,5.1204,5.0532,5.0026,5.0026,4.9923,4.9892,4.9892,4.9892,4.9892,4.9892,4.9892,4.9892,4.9892,4.9892,4.9892,4.9892,4.9331,4.8952,4.8889,4.832,4.7656,4.6929,4.6834,4.6518,4.5918,4.5886,4.5855,4.5823,4.5823,4.5823,4.5823,4.5823,4.5823,4.5823,4.5823,4.5823,4.5823,4.5886,4.5891,4.5896,4.6059,4.6813,4.8002,4.8855,4.9469,5.0123,6.3283,6.2267,6.1425,6.16,6.1483,6.1396,6.1396,6.128,6.1193,6.1193,6.1193,6.1193,6.1193,6.1077,6.1048,6.1193,6.1193,6.1193,6.1193,6.0584,5.9916,5.9335,5.8668,5.7913,5.7129,5.6636,5.6258,5.5997,5.501,5.4429,5.4284,5.4413,5.4097,5.353,5.4149,5.4097,5.35,5.35,5.3442,5.3297,5.3297,5.3239,5.3175,5.3936,5.483,5.5804,5.6388,5.7246,5.8022,5.7909,5.7453,5.7073,5.7642,5.7846,5.7846,5.7846,5.7421,5.6852,5.6157,5.5967,5.5651,5.4419,5.4514,5.4735,5.404,5.3471,5.3218,5.3566,5.2649,5.1954,5.2554,5.1606,5.0753,5.0753,5.0279,4.9892,4.9892,4.9892,4.9892,4.9892,4.9892,4.9892,4.9892,4.9892,4.9892,4.9892,4.9773,4.9457,4.892,4.8762,4.8351,4.7688,4.7087,4.674,4.6582,4.6582,4.6329,4.5823,4.5823,4.5823,4.5823,4.5823,4.5823,4.5823,4.5823,4.5823,4.5855,4.636,4.6598,4.6714,4.7806,4.8072,4.8101,4.9992,5.0391,5.0256,6.2674,6.1832,6.1193,6.1193,6.1193,6.1193,6.1193,6.1193,6.1193,6.1193,6.1193,6.1193,6.1193,6.1193,6.1193,6.1193,6.1193,6.1193,6.1193,6.0293,5.9626,5.9306,5.8348,5.7652,5.7303,5.6984,5.6694,5.6403,5.5416,5.4992,5.5043,5.4805,5.4713,5.4662,5.4684,5.4458,5.4045,5.3658,5.35,5.35,5.35,5.35,5.3605,5.4406,5.54,5.6412,5.692,5.7637,5.8384,5.8654,5.8306,5.78,5.8194,5.8321,5.8321,5.8321,5.8022,5.7579,5.6884,5.6694,5.6347,5.4925,5.4818,5.4913,5.4261,5.3818,5.3692,5.404,5.325,5.2649,5.3028,5.2207,5.1353,5.1078,5.0658,5.0311,4.9963,4.9892,4.9892,4.9892,4.9892,4.9892,4.9892,4.9892,4.9892,4.9892,4.9892,4.9773,4.9394,4.9394,4.9078,4.8383,4.8004,4.7656,4.734,4.7308,4.715,4.6803,4.6803,4.6803,4.6803,4.6455,4.6297,4.6266,4.595,4.5823,4.5823,4.6538,4.6799,4.6927,4.8019,4.8398,4.8549,5.0075,5.083,5.1151,6.2209,6.16,6.1193,6.1193,6.1193,6.1193,6.1193,6.1193,6.1193,6.1193,6.1193,6.1193,6.1193,6.1193,6.1193,6.1193,6.1193,6.1193,6.1193,6.009,5.9451,5.9451,5.8174,5.7477,5.7477,5.7361,5.7127,5.677,5.6129,5.5889,5.605,5.5517,5.5511,5.5869,5.5341,5.4938,5.4633,5.3993,5.3605,5.35,5.35,5.3553,5.3815,5.473,5.5953,5.7178,5.7532,5.8013,5.8527,5.9096,5.8843,5.8321,5.8321,5.8321,5.8321,5.8321,5.8321,5.8116,5.7421,5.7295,5.7073,5.5651,5.526,5.5114,5.4451,5.4198,5.4103,5.4103,5.366,5.3281,5.3281,5.2681,5.1954,5.1259,5.1078,5.0721,4.9987,4.9892,4.9892,4.9892,4.9892,4.9892,4.9892,4.9892,4.9892,4.9892,4.9892,4.9892,4.9892,4.9892,4.9679,4.9078,4.8952,4.8604,4.8067,4.8067,4.8067,4.8067,4.8193,4.813,4.7877,4.715,4.6803,4.6771,4.6222,4.5972,4.6044,4.6818,4.7165,4.7204,4.7968,4.8679,4.9372,5.0184,5.1176,5.2127,6.2122,6.16,6.1193,6.1193,6.1193,6.1193,6.1193,6.1193,6.1193,6.1193,6.1193,6.1193,6.1193,6.1193,6.1193,6.1193,6.1193,6.1193,6.1193,6.0496,6.009,6.009,5.8842,5.8174,5.8174,5.7594,5.7637,5.8267,5.77,5.7444,5.7616,5.7653,5.7009,5.5918,5.6506,5.5986,5.4684,5.4582,5.4149,5.35,5.35,5.3919,5.4692,5.6073,5.7148,5.812,5.9393,5.9539,5.9191,5.9286,5.8843,5.8321,5.8321,5.8321,5.8321,5.8321,5.8321,5.8116,5.7421,5.7674,5.78,5.6378,5.6031,5.5873,5.5146,5.4514,5.4103,5.4103,5.404,5.3976,5.3976,5.3408,5.2712,5.1986,5.1353,5.0721,4.9987,4.9892,4.9892,4.9892,4.9892,4.9892,4.9892,4.9892,4.9892,4.9892,4.9892,4.9892,4.9892,4.9892,4.9829,4.9773,4.9205,4.8857,4.8762,4.8762,4.8762,4.8762,4.9363,4.9047,4.7877,4.715,4.6803,4.6777,4.6696,4.6655,4.6789,4.8095,4.8628,4.8702,4.9439,5.0181,5.0862,5.1619,5.2024,5.2188,6.1658,6.1367,6.1193,6.1193,6.1193,6.1193,6.1193,6.1193,6.1193,6.1193,6.1193,6.1193,6.1193,6.1193,6.1193,6.1193,6.1193,6.1193,6.1193,6.0584,6.0061,5.9713,5.8813,5.8116,5.7739,5.7448,5.7751,5.8634,5.7981,5.8196,5.9103,5.8857,5.8373,5.7769,5.7254,5.6401,5.529,5.4406,5.3815,5.3582,5.4404,5.4731,5.4955,5.7292,5.8418,5.8967,6.0795,6.055,5.938,5.9728,5.9159,5.8321,5.8321,5.8321,5.8321,5.8321,5.8321,5.8257,5.7895,5.8022,5.8022,5.701,5.6473,5.5999,5.526,5.4609,5.4103,5.4103,5.4103,5.4103,5.4103,5.385,5.3439,5.2744,5.2365,5.1764,5.0658,5.05,5.0374,4.9963,4.9892,4.9892,4.9892,4.9892,4.9892,4.9892,4.9892,4.9892,4.9892,4.9892,4.9892,4.9892,4.9615,4.9457,4.9457,4.9457,4.9457,4.9457,4.9773,4.9615,4.9015,4.8288,4.7972,4.7947,4.7573,4.741,4.7547,4.8962,4.9577,4.9656,5.0779,5.1428,5.174,5.205,5.2188,5.2188]}]]